<?xml version="1.0" encoding="UTF-8" standalone="no" ?>
<gpx xmlns="http://www.topografix.com/GPX/1/1" xmlns:xsi="http://www.w3.org/2001/XMLSchema-instance" xsi:schemaLocation="http://www.topografix.com/GPX/1/1 http://www.topografix.com/GPX/1/1/gpx.xsd" version="1.1" creator="VisuGPX - https://www.visugpx.com">
  <metadata>
    <name>RANDO Fains 2017 50km</name>
    <desc><![CDATA[RANDO Fains 2017 50km (avec une petite erreur km30)]]></desc>
  </metadata>
  <trk>
    <name><![CDATA[RANDO Fains 2017 50km]]></name>
    <trkseg>
      <trkpt lat="48.99507" lon="1.38422">
        <ele>252</ele>
        <time>2017-09-24T06:32:51Z</time>
      </trkpt>
      <trkpt lat="48.99507" lon="1.38422">
        <ele>252</ele>
        <time>2017-09-24T06:33:02Z</time>
      </trkpt>
      <trkpt lat="48.99501" lon="1.38435">
        <ele>252</ele>
        <time>2017-09-24T06:33:07Z</time>
      </trkpt>
      <trkpt lat="48.99509" lon="1.38454">
        <ele>252</ele>
        <time>2017-09-24T06:33:12Z</time>
      </trkpt>
      <trkpt lat="48.99512" lon="1.38466">
        <ele>252</ele>
        <time>2017-09-24T06:33:17Z</time>
      </trkpt>
      <trkpt lat="48.99513" lon="1.3847">
        <ele>252</ele>
        <time>2017-09-24T06:33:22Z</time>
      </trkpt>
      <trkpt lat="48.99514" lon="1.38465">
        <ele>252</ele>
        <time>2017-09-24T06:33:27Z</time>
      </trkpt>
      <trkpt lat="48.99507" lon="1.38457">
        <ele>252</ele>
        <time>2017-09-24T06:33:32Z</time>
      </trkpt>
      <trkpt lat="48.99504" lon="1.38442">
        <ele>252</ele>
        <time>2017-09-24T06:33:37Z</time>
      </trkpt>
      <trkpt lat="48.99497" lon="1.38442">
        <ele>252</ele>
        <time>2017-09-24T06:33:42Z</time>
      </trkpt>
      <trkpt lat="48.99503" lon="1.38443">
        <ele>252</ele>
        <time>2017-09-24T06:33:47Z</time>
      </trkpt>
      <trkpt lat="48.99511" lon="1.38461">
        <ele>252</ele>
        <time>2017-09-24T06:33:52Z</time>
      </trkpt>
      <trkpt lat="48.99524" lon="1.38489">
        <ele>252</ele>
        <time>2017-09-24T06:33:57Z</time>
      </trkpt>
      <trkpt lat="48.99539" lon="1.38522">
        <ele>252</ele>
        <time>2017-09-24T06:34:02Z</time>
      </trkpt>
      <trkpt lat="48.99556" lon="1.38557">
        <ele>252</ele>
        <time>2017-09-24T06:34:07Z</time>
      </trkpt>
      <trkpt lat="48.99575" lon="1.38592">
        <ele>252</ele>
        <time>2017-09-24T06:34:12Z</time>
      </trkpt>
      <trkpt lat="48.99594" lon="1.38628">
        <ele>252</ele>
        <time>2017-09-24T06:34:17Z</time>
      </trkpt>
      <trkpt lat="48.99613" lon="1.38664">
        <ele>252</ele>
        <time>2017-09-24T06:34:22Z</time>
      </trkpt>
      <trkpt lat="48.99621" lon="1.38696">
        <ele>252</ele>
        <time>2017-09-24T06:34:27Z</time>
      </trkpt>
      <trkpt lat="48.99639" lon="1.38705">
        <ele>252</ele>
        <time>2017-09-24T06:34:32Z</time>
      </trkpt>
      <trkpt lat="48.99659" lon="1.38729">
        <ele>252</ele>
        <time>2017-09-24T06:34:37Z</time>
      </trkpt>
      <trkpt lat="48.99683" lon="1.38757">
        <ele>252</ele>
        <time>2017-09-24T06:34:42Z</time>
      </trkpt>
      <trkpt lat="48.99704" lon="1.38792">
        <ele>252</ele>
        <time>2017-09-24T06:34:47Z</time>
      </trkpt>
      <trkpt lat="48.99729" lon="1.38819">
        <ele>252</ele>
        <time>2017-09-24T06:34:52Z</time>
      </trkpt>
      <trkpt lat="48.99758" lon="1.38836">
        <ele>252</ele>
        <time>2017-09-24T06:34:57Z</time>
      </trkpt>
      <trkpt lat="48.99787" lon="1.38844">
        <ele>252</ele>
        <time>2017-09-24T06:35:02Z</time>
      </trkpt>
      <trkpt lat="48.99819" lon="1.38843">
        <ele>252</ele>
        <time>2017-09-24T06:35:07Z</time>
      </trkpt>
      <trkpt lat="48.99849" lon="1.38841">
        <ele>252</ele>
        <time>2017-09-24T06:35:12Z</time>
      </trkpt>
      <trkpt lat="48.99865" lon="1.3887">
        <ele>252</ele>
        <time>2017-09-24T06:35:17Z</time>
      </trkpt>
      <trkpt lat="48.99874" lon="1.38913">
        <ele>252</ele>
        <time>2017-09-24T06:35:22Z</time>
      </trkpt>
      <trkpt lat="48.99885" lon="1.38956">
        <ele>252</ele>
        <time>2017-09-24T06:35:27Z</time>
      </trkpt>
      <trkpt lat="48.99889" lon="1.39001">
        <ele>252</ele>
        <time>2017-09-24T06:35:32Z</time>
      </trkpt>
      <trkpt lat="48.99881" lon="1.39044">
        <ele>252</ele>
        <time>2017-09-24T06:35:37Z</time>
      </trkpt>
      <trkpt lat="48.99863" lon="1.39082">
        <ele>252</ele>
        <time>2017-09-24T06:35:42Z</time>
      </trkpt>
      <trkpt lat="48.99843" lon="1.39119">
        <ele>252</ele>
        <time>2017-09-24T06:35:47Z</time>
      </trkpt>
      <trkpt lat="48.99821" lon="1.39155">
        <ele>252</ele>
        <time>2017-09-24T06:35:52Z</time>
      </trkpt>
      <trkpt lat="48.998" lon="1.3919">
        <ele>252</ele>
        <time>2017-09-24T06:35:57Z</time>
      </trkpt>
      <trkpt lat="48.99779" lon="1.39227">
        <ele>252</ele>
        <time>2017-09-24T06:36:02Z</time>
      </trkpt>
      <trkpt lat="48.99759" lon="1.39263">
        <ele>252</ele>
        <time>2017-09-24T06:36:07Z</time>
      </trkpt>
      <trkpt lat="48.99736" lon="1.39293">
        <ele>252</ele>
        <time>2017-09-24T06:36:12Z</time>
      </trkpt>
      <trkpt lat="48.99712" lon="1.39313">
        <ele>252</ele>
        <time>2017-09-24T06:36:17Z</time>
      </trkpt>
      <trkpt lat="48.99685" lon="1.39327">
        <ele>252</ele>
        <time>2017-09-24T06:36:22Z</time>
      </trkpt>
      <trkpt lat="48.99656" lon="1.39336">
        <ele>252</ele>
        <time>2017-09-24T06:36:27Z</time>
      </trkpt>
      <trkpt lat="48.99635" lon="1.39358">
        <ele>252</ele>
        <time>2017-09-24T06:36:32Z</time>
      </trkpt>
      <trkpt lat="48.99616" lon="1.39384">
        <ele>252</ele>
        <time>2017-09-24T06:36:37Z</time>
      </trkpt>
      <trkpt lat="48.99599" lon="1.39415">
        <ele>252</ele>
        <time>2017-09-24T06:36:42Z</time>
      </trkpt>
      <trkpt lat="48.99578" lon="1.39445">
        <ele>252</ele>
        <time>2017-09-24T06:36:47Z</time>
      </trkpt>
      <trkpt lat="48.9956" lon="1.3948">
        <ele>252</ele>
        <time>2017-09-24T06:36:52Z</time>
      </trkpt>
      <trkpt lat="48.99538" lon="1.39513">
        <ele>252</ele>
        <time>2017-09-24T06:36:57Z</time>
      </trkpt>
      <trkpt lat="48.99515" lon="1.39541">
        <ele>252</ele>
        <time>2017-09-24T06:37:02Z</time>
      </trkpt>
      <trkpt lat="48.99489" lon="1.39561">
        <ele>252</ele>
        <time>2017-09-24T06:37:07Z</time>
      </trkpt>
      <trkpt lat="48.99462" lon="1.39572">
        <ele>252</ele>
        <time>2017-09-24T06:37:12Z</time>
      </trkpt>
      <trkpt lat="48.99438" lon="1.39559">
        <ele>252</ele>
        <time>2017-09-24T06:37:17Z</time>
      </trkpt>
      <trkpt lat="48.99412" lon="1.39572">
        <ele>252</ele>
        <time>2017-09-24T06:37:22Z</time>
      </trkpt>
      <trkpt lat="48.99384" lon="1.39596">
        <ele>252</ele>
        <time>2017-09-24T06:37:28Z</time>
      </trkpt>
      <trkpt lat="48.9936" lon="1.39618">
        <ele>252</ele>
        <time>2017-09-24T06:37:33Z</time>
      </trkpt>
      <trkpt lat="48.99338" lon="1.39641">
        <ele>252</ele>
        <time>2017-09-24T06:37:38Z</time>
      </trkpt>
      <trkpt lat="48.9932" lon="1.3967">
        <ele>252</ele>
        <time>2017-09-24T06:37:43Z</time>
      </trkpt>
      <trkpt lat="48.99301" lon="1.397">
        <ele>252</ele>
        <time>2017-09-24T06:37:48Z</time>
      </trkpt>
      <trkpt lat="48.9928" lon="1.39726">
        <ele>252</ele>
        <time>2017-09-24T06:37:53Z</time>
      </trkpt>
      <trkpt lat="48.99258" lon="1.39747">
        <ele>252</ele>
        <time>2017-09-24T06:37:58Z</time>
      </trkpt>
      <trkpt lat="48.99232" lon="1.39763">
        <ele>252</ele>
        <time>2017-09-24T06:38:03Z</time>
      </trkpt>
      <trkpt lat="48.9921" lon="1.39778">
        <ele>252</ele>
        <time>2017-09-24T06:38:08Z</time>
      </trkpt>
      <trkpt lat="48.99188" lon="1.39795">
        <ele>252</ele>
        <time>2017-09-24T06:38:13Z</time>
      </trkpt>
      <trkpt lat="48.99165" lon="1.39812">
        <ele>252</ele>
        <time>2017-09-24T06:38:18Z</time>
      </trkpt>
      <trkpt lat="48.99144" lon="1.3983">
        <ele>252</ele>
        <time>2017-09-24T06:38:23Z</time>
      </trkpt>
      <trkpt lat="48.99122" lon="1.39849">
        <ele>252</ele>
        <time>2017-09-24T06:38:28Z</time>
      </trkpt>
      <trkpt lat="48.99098" lon="1.39865">
        <ele>252</ele>
        <time>2017-09-24T06:38:33Z</time>
      </trkpt>
      <trkpt lat="48.99074" lon="1.3988">
        <ele>252</ele>
        <time>2017-09-24T06:38:38Z</time>
      </trkpt>
      <trkpt lat="48.9905" lon="1.39896">
        <ele>252</ele>
        <time>2017-09-24T06:38:43Z</time>
      </trkpt>
      <trkpt lat="48.99026" lon="1.39915">
        <ele>253</ele>
        <time>2017-09-24T06:38:48Z</time>
      </trkpt>
      <trkpt lat="48.99003" lon="1.39935">
        <ele>253</ele>
        <time>2017-09-24T06:38:53Z</time>
      </trkpt>
      <trkpt lat="48.98979" lon="1.39954">
        <ele>253</ele>
        <time>2017-09-24T06:38:58Z</time>
      </trkpt>
      <trkpt lat="48.98954" lon="1.3997">
        <ele>253</ele>
        <time>2017-09-24T06:39:03Z</time>
      </trkpt>
      <trkpt lat="48.98928" lon="1.39984">
        <ele>253</ele>
        <time>2017-09-24T06:39:08Z</time>
      </trkpt>
      <trkpt lat="48.98902" lon="1.39996">
        <ele>253</ele>
        <time>2017-09-24T06:39:13Z</time>
      </trkpt>
      <trkpt lat="48.98877" lon="1.40003">
        <ele>253</ele>
        <time>2017-09-24T06:39:18Z</time>
      </trkpt>
      <trkpt lat="48.98853" lon="1.40007">
        <ele>253</ele>
        <time>2017-09-24T06:39:23Z</time>
      </trkpt>
      <trkpt lat="48.98828" lon="1.40018">
        <ele>253</ele>
        <time>2017-09-24T06:39:28Z</time>
      </trkpt>
      <trkpt lat="48.98805" lon="1.40032">
        <ele>253</ele>
        <time>2017-09-24T06:39:33Z</time>
      </trkpt>
      <trkpt lat="48.98784" lon="1.40046">
        <ele>253</ele>
        <time>2017-09-24T06:39:38Z</time>
      </trkpt>
      <trkpt lat="48.98766" lon="1.40027">
        <ele>253</ele>
        <time>2017-09-24T06:39:43Z</time>
      </trkpt>
      <trkpt lat="48.98748" lon="1.40003">
        <ele>253</ele>
        <time>2017-09-24T06:39:48Z</time>
      </trkpt>
      <trkpt lat="48.98731" lon="1.39978">
        <ele>253</ele>
        <time>2017-09-24T06:39:53Z</time>
      </trkpt>
      <trkpt lat="48.98739" lon="1.39948">
        <ele>253</ele>
        <time>2017-09-24T06:39:58Z</time>
      </trkpt>
      <trkpt lat="48.98757" lon="1.39921">
        <ele>253</ele>
        <time>2017-09-24T06:40:03Z</time>
      </trkpt>
      <trkpt lat="48.98767" lon="1.39886">
        <ele>253</ele>
        <time>2017-09-24T06:40:08Z</time>
      </trkpt>
      <trkpt lat="48.98758" lon="1.39847">
        <ele>253</ele>
        <time>2017-09-24T06:40:13Z</time>
      </trkpt>
      <trkpt lat="48.98744" lon="1.3981">
        <ele>253</ele>
        <time>2017-09-24T06:40:18Z</time>
      </trkpt>
      <trkpt lat="48.9873" lon="1.39772">
        <ele>253</ele>
        <time>2017-09-24T06:40:23Z</time>
      </trkpt>
      <trkpt lat="48.98717" lon="1.39734">
        <ele>253</ele>
        <time>2017-09-24T06:40:28Z</time>
      </trkpt>
      <trkpt lat="48.98703" lon="1.39696">
        <ele>253</ele>
        <time>2017-09-24T06:40:33Z</time>
      </trkpt>
      <trkpt lat="48.9869" lon="1.39659">
        <ele>253</ele>
        <time>2017-09-24T06:40:38Z</time>
      </trkpt>
      <trkpt lat="48.98677" lon="1.39622">
        <ele>253</ele>
        <time>2017-09-24T06:40:43Z</time>
      </trkpt>
      <trkpt lat="48.98665" lon="1.39587">
        <ele>253</ele>
        <time>2017-09-24T06:40:48Z</time>
      </trkpt>
      <trkpt lat="48.98654" lon="1.39561">
        <ele>253</ele>
        <time>2017-09-24T06:40:53Z</time>
      </trkpt>
      <trkpt lat="48.98642" lon="1.39531">
        <ele>253</ele>
        <time>2017-09-24T06:40:58Z</time>
      </trkpt>
      <trkpt lat="48.98631" lon="1.39499">
        <ele>253</ele>
        <time>2017-09-24T06:41:03Z</time>
      </trkpt>
      <trkpt lat="48.98619" lon="1.39466">
        <ele>253</ele>
        <time>2017-09-24T06:41:08Z</time>
      </trkpt>
      <trkpt lat="48.98606" lon="1.39433">
        <ele>253</ele>
        <time>2017-09-24T06:41:13Z</time>
      </trkpt>
      <trkpt lat="48.98595" lon="1.394">
        <ele>253</ele>
        <time>2017-09-24T06:41:18Z</time>
      </trkpt>
      <trkpt lat="48.98584" lon="1.39367">
        <ele>253</ele>
        <time>2017-09-24T06:41:23Z</time>
      </trkpt>
      <trkpt lat="48.98578" lon="1.39333">
        <ele>254</ele>
        <time>2017-09-24T06:41:28Z</time>
      </trkpt>
      <trkpt lat="48.98575" lon="1.39297">
        <ele>255</ele>
        <time>2017-09-24T06:41:33Z</time>
      </trkpt>
      <trkpt lat="48.98574" lon="1.39262">
        <ele>255</ele>
        <time>2017-09-24T06:41:38Z</time>
      </trkpt>
      <trkpt lat="48.98574" lon="1.39229">
        <ele>256</ele>
        <time>2017-09-24T06:41:43Z</time>
      </trkpt>
      <trkpt lat="48.98575" lon="1.39199">
        <ele>256</ele>
        <time>2017-09-24T06:41:48Z</time>
      </trkpt>
      <trkpt lat="48.98575" lon="1.3917">
        <ele>257</ele>
        <time>2017-09-24T06:41:53Z</time>
      </trkpt>
      <trkpt lat="48.98576" lon="1.39142">
        <ele>258</ele>
        <time>2017-09-24T06:41:58Z</time>
      </trkpt>
      <trkpt lat="48.98576" lon="1.39115">
        <ele>258</ele>
        <time>2017-09-24T06:42:03Z</time>
      </trkpt>
      <trkpt lat="48.98576" lon="1.39093">
        <ele>260</ele>
        <time>2017-09-24T06:42:08Z</time>
      </trkpt>
      <trkpt lat="48.98576" lon="1.39072">
        <ele>260</ele>
        <time>2017-09-24T06:42:13Z</time>
      </trkpt>
      <trkpt lat="48.98575" lon="1.39051">
        <ele>261</ele>
        <time>2017-09-24T06:42:18Z</time>
      </trkpt>
      <trkpt lat="48.98573" lon="1.39031">
        <ele>263</ele>
        <time>2017-09-24T06:42:23Z</time>
      </trkpt>
      <trkpt lat="48.98569" lon="1.39014">
        <ele>265</ele>
        <time>2017-09-24T06:42:28Z</time>
      </trkpt>
      <trkpt lat="48.98564" lon="1.38998">
        <ele>265</ele>
        <time>2017-09-24T06:42:33Z</time>
      </trkpt>
      <trkpt lat="48.98557" lon="1.38983">
        <ele>267</ele>
        <time>2017-09-24T06:42:38Z</time>
      </trkpt>
      <trkpt lat="48.98552" lon="1.3897">
        <ele>268</ele>
        <time>2017-09-24T06:42:43Z</time>
      </trkpt>
      <trkpt lat="48.98546" lon="1.38957">
        <ele>270</ele>
        <time>2017-09-24T06:42:48Z</time>
      </trkpt>
      <trkpt lat="48.98541" lon="1.38945">
        <ele>272</ele>
        <time>2017-09-24T06:42:53Z</time>
      </trkpt>
      <trkpt lat="48.98536" lon="1.38935">
        <ele>272</ele>
        <time>2017-09-24T06:42:58Z</time>
      </trkpt>
      <trkpt lat="48.98532" lon="1.38925">
        <ele>274</ele>
        <time>2017-09-24T06:43:03Z</time>
      </trkpt>
      <trkpt lat="48.98528" lon="1.38915">
        <ele>275</ele>
        <time>2017-09-24T06:43:08Z</time>
      </trkpt>
      <trkpt lat="48.98524" lon="1.38904">
        <ele>277</ele>
        <time>2017-09-24T06:43:13Z</time>
      </trkpt>
      <trkpt lat="48.98519" lon="1.38894">
        <ele>278</ele>
        <time>2017-09-24T06:43:18Z</time>
      </trkpt>
      <trkpt lat="48.98515" lon="1.38884">
        <ele>279</ele>
        <time>2017-09-24T06:43:23Z</time>
      </trkpt>
      <trkpt lat="48.98511" lon="1.38873">
        <ele>280</ele>
        <time>2017-09-24T06:43:28Z</time>
      </trkpt>
      <trkpt lat="48.98507" lon="1.38862">
        <ele>282</ele>
        <time>2017-09-24T06:43:33Z</time>
      </trkpt>
      <trkpt lat="48.98503" lon="1.38851">
        <ele>283</ele>
        <time>2017-09-24T06:43:38Z</time>
      </trkpt>
      <trkpt lat="48.985" lon="1.3884">
        <ele>284</ele>
        <time>2017-09-24T06:43:43Z</time>
      </trkpt>
      <trkpt lat="48.98496" lon="1.38829">
        <ele>285</ele>
        <time>2017-09-24T06:43:48Z</time>
      </trkpt>
      <trkpt lat="48.98493" lon="1.38818">
        <ele>287</ele>
        <time>2017-09-24T06:43:53Z</time>
      </trkpt>
      <trkpt lat="48.98492" lon="1.38809">
        <ele>288</ele>
        <time>2017-09-24T06:43:58Z</time>
      </trkpt>
      <trkpt lat="48.9849" lon="1.388">
        <ele>289</ele>
        <time>2017-09-24T06:44:03Z</time>
      </trkpt>
      <trkpt lat="48.9849" lon="1.38788">
        <ele>290</ele>
        <time>2017-09-24T06:44:08Z</time>
      </trkpt>
      <trkpt lat="48.98492" lon="1.38776">
        <ele>291</ele>
        <time>2017-09-24T06:44:13Z</time>
      </trkpt>
      <trkpt lat="48.98495" lon="1.38765">
        <ele>292</ele>
        <time>2017-09-24T06:44:18Z</time>
      </trkpt>
      <trkpt lat="48.98499" lon="1.38755">
        <ele>293</ele>
        <time>2017-09-24T06:44:23Z</time>
      </trkpt>
      <trkpt lat="48.98505" lon="1.38742">
        <ele>294</ele>
        <time>2017-09-24T06:44:28Z</time>
      </trkpt>
      <trkpt lat="48.9851" lon="1.38729">
        <ele>295</ele>
        <time>2017-09-24T06:44:33Z</time>
      </trkpt>
      <trkpt lat="48.98513" lon="1.38716">
        <ele>296</ele>
        <time>2017-09-24T06:44:38Z</time>
      </trkpt>
      <trkpt lat="48.98518" lon="1.38704">
        <ele>297</ele>
        <time>2017-09-24T06:44:43Z</time>
      </trkpt>
      <trkpt lat="48.98522" lon="1.3869">
        <ele>298</ele>
        <time>2017-09-24T06:44:48Z</time>
      </trkpt>
      <trkpt lat="48.98528" lon="1.38677">
        <ele>299</ele>
        <time>2017-09-24T06:44:53Z</time>
      </trkpt>
      <trkpt lat="48.98534" lon="1.38664">
        <ele>299</ele>
        <time>2017-09-24T06:44:58Z</time>
      </trkpt>
      <trkpt lat="48.98542" lon="1.38648">
        <ele>301</ele>
        <time>2017-09-24T06:45:04Z</time>
      </trkpt>
      <trkpt lat="48.98547" lon="1.38631">
        <ele>301</ele>
        <time>2017-09-24T06:45:09Z</time>
      </trkpt>
      <trkpt lat="48.98552" lon="1.38615">
        <ele>301</ele>
        <time>2017-09-24T06:45:14Z</time>
      </trkpt>
      <trkpt lat="48.98558" lon="1.38599">
        <ele>302</ele>
        <time>2017-09-24T06:45:19Z</time>
      </trkpt>
      <trkpt lat="48.98564" lon="1.38583">
        <ele>304</ele>
        <time>2017-09-24T06:45:24Z</time>
      </trkpt>
      <trkpt lat="48.9857" lon="1.38568">
        <ele>305</ele>
        <time>2017-09-24T06:45:29Z</time>
      </trkpt>
      <trkpt lat="48.98578" lon="1.38552">
        <ele>306</ele>
        <time>2017-09-24T06:45:34Z</time>
      </trkpt>
      <trkpt lat="48.98585" lon="1.38538">
        <ele>307</ele>
        <time>2017-09-24T06:45:39Z</time>
      </trkpt>
      <trkpt lat="48.98591" lon="1.38525">
        <ele>308</ele>
        <time>2017-09-24T06:45:44Z</time>
      </trkpt>
      <trkpt lat="48.98598" lon="1.38511">
        <ele>309</ele>
        <time>2017-09-24T06:45:50Z</time>
      </trkpt>
      <trkpt lat="48.98604" lon="1.385">
        <ele>311</ele>
        <time>2017-09-24T06:45:55Z</time>
      </trkpt>
      <trkpt lat="48.98609" lon="1.38488">
        <ele>312</ele>
        <time>2017-09-24T06:46:00Z</time>
      </trkpt>
      <trkpt lat="48.98614" lon="1.38475">
        <ele>313</ele>
        <time>2017-09-24T06:46:05Z</time>
      </trkpt>
      <trkpt lat="48.98619" lon="1.3846">
        <ele>314</ele>
        <time>2017-09-24T06:46:11Z</time>
      </trkpt>
      <trkpt lat="48.98622" lon="1.38447">
        <ele>316</ele>
        <time>2017-09-24T06:46:16Z</time>
      </trkpt>
      <trkpt lat="48.98625" lon="1.38433">
        <ele>317</ele>
        <time>2017-09-24T06:46:21Z</time>
      </trkpt>
      <trkpt lat="48.98627" lon="1.38421">
        <ele>318</ele>
        <time>2017-09-24T06:46:26Z</time>
      </trkpt>
      <trkpt lat="48.9863" lon="1.38408">
        <ele>320</ele>
        <time>2017-09-24T06:46:31Z</time>
      </trkpt>
      <trkpt lat="48.98632" lon="1.38393">
        <ele>321</ele>
        <time>2017-09-24T06:46:36Z</time>
      </trkpt>
      <trkpt lat="48.98633" lon="1.38379">
        <ele>322</ele>
        <time>2017-09-24T06:46:41Z</time>
      </trkpt>
      <trkpt lat="48.98631" lon="1.38366">
        <ele>323</ele>
        <time>2017-09-24T06:46:46Z</time>
      </trkpt>
      <trkpt lat="48.98629" lon="1.3835">
        <ele>324</ele>
        <time>2017-09-24T06:46:51Z</time>
      </trkpt>
      <trkpt lat="48.98627" lon="1.38334">
        <ele>324</ele>
        <time>2017-09-24T06:46:56Z</time>
      </trkpt>
      <trkpt lat="48.98628" lon="1.38314">
        <ele>325</ele>
        <time>2017-09-24T06:47:01Z</time>
      </trkpt>
      <trkpt lat="48.98634" lon="1.38288">
        <ele>325</ele>
        <time>2017-09-24T06:47:06Z</time>
      </trkpt>
      <trkpt lat="48.98641" lon="1.38253">
        <ele>325</ele>
        <time>2017-09-24T06:47:11Z</time>
      </trkpt>
      <trkpt lat="48.98648" lon="1.38218">
        <ele>324</ele>
        <time>2017-09-24T06:47:16Z</time>
      </trkpt>
      <trkpt lat="48.98656" lon="1.38181">
        <ele>324</ele>
        <time>2017-09-24T06:47:21Z</time>
      </trkpt>
      <trkpt lat="48.98664" lon="1.38143">
        <ele>323</ele>
        <time>2017-09-24T06:47:26Z</time>
      </trkpt>
      <trkpt lat="48.98675" lon="1.38105">
        <ele>323</ele>
        <time>2017-09-24T06:47:31Z</time>
      </trkpt>
      <trkpt lat="48.98686" lon="1.38065">
        <ele>323</ele>
        <time>2017-09-24T06:47:36Z</time>
      </trkpt>
      <trkpt lat="48.98697" lon="1.38027">
        <ele>323</ele>
        <time>2017-09-24T06:47:41Z</time>
      </trkpt>
      <trkpt lat="48.98708" lon="1.37991">
        <ele>322</ele>
        <time>2017-09-24T06:47:46Z</time>
      </trkpt>
      <trkpt lat="48.98719" lon="1.37953">
        <ele>322</ele>
        <time>2017-09-24T06:47:51Z</time>
      </trkpt>
      <trkpt lat="48.98732" lon="1.3791">
        <ele>321</ele>
        <time>2017-09-24T06:47:56Z</time>
      </trkpt>
      <trkpt lat="48.98745" lon="1.37871">
        <ele>321</ele>
        <time>2017-09-24T06:48:01Z</time>
      </trkpt>
      <trkpt lat="48.98751" lon="1.37851">
        <ele>321</ele>
        <time>2017-09-24T06:48:06Z</time>
      </trkpt>
      <trkpt lat="48.9876" lon="1.3783">
        <ele>321</ele>
        <time>2017-09-24T06:48:11Z</time>
      </trkpt>
      <trkpt lat="48.9877" lon="1.37806">
        <ele>321</ele>
        <time>2017-09-24T06:48:16Z</time>
      </trkpt>
      <trkpt lat="48.9878" lon="1.37783">
        <ele>322</ele>
        <time>2017-09-24T06:48:21Z</time>
      </trkpt>
      <trkpt lat="48.98791" lon="1.37758">
        <ele>323</ele>
        <time>2017-09-24T06:48:26Z</time>
      </trkpt>
      <trkpt lat="48.98801" lon="1.37732">
        <ele>325</ele>
        <time>2017-09-24T06:48:31Z</time>
      </trkpt>
      <trkpt lat="48.98812" lon="1.37705">
        <ele>326</ele>
        <time>2017-09-24T06:48:36Z</time>
      </trkpt>
      <trkpt lat="48.98821" lon="1.37676">
        <ele>327</ele>
        <time>2017-09-24T06:48:41Z</time>
      </trkpt>
      <trkpt lat="48.9883" lon="1.37646">
        <ele>328</ele>
        <time>2017-09-24T06:48:46Z</time>
      </trkpt>
      <trkpt lat="48.98837" lon="1.37616">
        <ele>328</ele>
        <time>2017-09-24T06:48:51Z</time>
      </trkpt>
      <trkpt lat="48.98844" lon="1.37586">
        <ele>329</ele>
        <time>2017-09-24T06:48:56Z</time>
      </trkpt>
      <trkpt lat="48.98851" lon="1.37558">
        <ele>330</ele>
        <time>2017-09-24T06:49:01Z</time>
      </trkpt>
      <trkpt lat="48.98858" lon="1.3753">
        <ele>331</ele>
        <time>2017-09-24T06:49:06Z</time>
      </trkpt>
      <trkpt lat="48.98866" lon="1.37501">
        <ele>332</ele>
        <time>2017-09-24T06:49:11Z</time>
      </trkpt>
      <trkpt lat="48.98874" lon="1.37474">
        <ele>332</ele>
        <time>2017-09-24T06:49:16Z</time>
      </trkpt>
      <trkpt lat="48.98882" lon="1.37446">
        <ele>333</ele>
        <time>2017-09-24T06:49:21Z</time>
      </trkpt>
      <trkpt lat="48.98891" lon="1.37418">
        <ele>334</ele>
        <time>2017-09-24T06:49:26Z</time>
      </trkpt>
      <trkpt lat="48.98899" lon="1.3739">
        <ele>334</ele>
        <time>2017-09-24T06:49:31Z</time>
      </trkpt>
      <trkpt lat="48.98908" lon="1.37362">
        <ele>334</ele>
        <time>2017-09-24T06:49:36Z</time>
      </trkpt>
      <trkpt lat="48.98917" lon="1.37332">
        <ele>334</ele>
        <time>2017-09-24T06:49:41Z</time>
      </trkpt>
      <trkpt lat="48.98928" lon="1.37302">
        <ele>334</ele>
        <time>2017-09-24T06:49:46Z</time>
      </trkpt>
      <trkpt lat="48.98939" lon="1.3727">
        <ele>334</ele>
        <time>2017-09-24T06:49:51Z</time>
      </trkpt>
      <trkpt lat="48.9895" lon="1.37234">
        <ele>334</ele>
        <time>2017-09-24T06:49:56Z</time>
      </trkpt>
      <trkpt lat="48.98962" lon="1.37195">
        <ele>334</ele>
        <time>2017-09-24T06:50:01Z</time>
      </trkpt>
      <trkpt lat="48.98975" lon="1.37151">
        <ele>333</ele>
        <time>2017-09-24T06:50:06Z</time>
      </trkpt>
      <trkpt lat="48.9899" lon="1.37103">
        <ele>331</ele>
        <time>2017-09-24T06:50:11Z</time>
      </trkpt>
      <trkpt lat="48.99005" lon="1.37052">
        <ele>330</ele>
        <time>2017-09-24T06:50:16Z</time>
      </trkpt>
      <trkpt lat="48.99023" lon="1.37001">
        <ele>329</ele>
        <time>2017-09-24T06:50:21Z</time>
      </trkpt>
      <trkpt lat="48.99042" lon="1.36945">
        <ele>328</ele>
        <time>2017-09-24T06:50:26Z</time>
      </trkpt>
      <trkpt lat="48.99058" lon="1.36894">
        <ele>328</ele>
        <time>2017-09-24T06:50:31Z</time>
      </trkpt>
      <trkpt lat="48.99071" lon="1.36849">
        <ele>328</ele>
        <time>2017-09-24T06:50:36Z</time>
      </trkpt>
      <trkpt lat="48.99082" lon="1.36812">
        <ele>329</ele>
        <time>2017-09-24T06:50:41Z</time>
      </trkpt>
      <trkpt lat="48.99091" lon="1.36778">
        <ele>329</ele>
        <time>2017-09-24T06:50:46Z</time>
      </trkpt>
      <trkpt lat="48.99101" lon="1.36745">
        <ele>330</ele>
        <time>2017-09-24T06:50:51Z</time>
      </trkpt>
      <trkpt lat="48.99112" lon="1.36714">
        <ele>331</ele>
        <time>2017-09-24T06:50:56Z</time>
      </trkpt>
      <trkpt lat="48.99122" lon="1.36682">
        <ele>332</ele>
        <time>2017-09-24T06:51:01Z</time>
      </trkpt>
      <trkpt lat="48.99133" lon="1.36652">
        <ele>333</ele>
        <time>2017-09-24T06:51:06Z</time>
      </trkpt>
      <trkpt lat="48.99146" lon="1.36627">
        <ele>335</ele>
        <time>2017-09-24T06:51:11Z</time>
      </trkpt>
      <trkpt lat="48.99155" lon="1.36602">
        <ele>336</ele>
        <time>2017-09-24T06:51:16Z</time>
      </trkpt>
      <trkpt lat="48.99158" lon="1.36576">
        <ele>336</ele>
        <time>2017-09-24T06:51:21Z</time>
      </trkpt>
      <trkpt lat="48.99165" lon="1.3655">
        <ele>336</ele>
        <time>2017-09-24T06:51:26Z</time>
      </trkpt>
      <trkpt lat="48.99172" lon="1.36526">
        <ele>336</ele>
        <time>2017-09-24T06:51:31Z</time>
      </trkpt>
      <trkpt lat="48.99181" lon="1.36498">
        <ele>338</ele>
        <time>2017-09-24T06:51:36Z</time>
      </trkpt>
      <trkpt lat="48.99189" lon="1.36471">
        <ele>339</ele>
        <time>2017-09-24T06:51:41Z</time>
      </trkpt>
      <trkpt lat="48.99198" lon="1.36444">
        <ele>340</ele>
        <time>2017-09-24T06:51:46Z</time>
      </trkpt>
      <trkpt lat="48.99207" lon="1.36417">
        <ele>340</ele>
        <time>2017-09-24T06:51:51Z</time>
      </trkpt>
      <trkpt lat="48.99216" lon="1.36389">
        <ele>340</ele>
        <time>2017-09-24T06:51:56Z</time>
      </trkpt>
      <trkpt lat="48.99225" lon="1.36361">
        <ele>341</ele>
        <time>2017-09-24T06:52:01Z</time>
      </trkpt>
      <trkpt lat="48.99233" lon="1.36332">
        <ele>341</ele>
        <time>2017-09-24T06:52:06Z</time>
      </trkpt>
      <trkpt lat="48.99242" lon="1.36301">
        <ele>341</ele>
        <time>2017-09-24T06:52:11Z</time>
      </trkpt>
      <trkpt lat="48.99252" lon="1.36267">
        <ele>341</ele>
        <time>2017-09-24T06:52:16Z</time>
      </trkpt>
      <trkpt lat="48.99263" lon="1.36231">
        <ele>342</ele>
        <time>2017-09-24T06:52:21Z</time>
      </trkpt>
      <trkpt lat="48.99273" lon="1.36195">
        <ele>342</ele>
        <time>2017-09-24T06:52:26Z</time>
      </trkpt>
      <trkpt lat="48.99283" lon="1.36157">
        <ele>342</ele>
        <time>2017-09-24T06:52:31Z</time>
      </trkpt>
      <trkpt lat="48.99295" lon="1.36117">
        <ele>342</ele>
        <time>2017-09-24T06:52:36Z</time>
      </trkpt>
      <trkpt lat="48.99308" lon="1.36073">
        <ele>342</ele>
        <time>2017-09-24T06:52:41Z</time>
      </trkpt>
      <trkpt lat="48.9932" lon="1.36028">
        <ele>342</ele>
        <time>2017-09-24T06:52:46Z</time>
      </trkpt>
      <trkpt lat="48.99333" lon="1.35983">
        <ele>342</ele>
        <time>2017-09-24T06:52:51Z</time>
      </trkpt>
      <trkpt lat="48.99346" lon="1.3594">
        <ele>340</ele>
        <time>2017-09-24T06:52:56Z</time>
      </trkpt>
      <trkpt lat="48.9936" lon="1.35896">
        <ele>340</ele>
        <time>2017-09-24T06:53:01Z</time>
      </trkpt>
      <trkpt lat="48.99373" lon="1.35852">
        <ele>340</ele>
        <time>2017-09-24T06:53:06Z</time>
      </trkpt>
      <trkpt lat="48.99386" lon="1.35809">
        <ele>340</ele>
        <time>2017-09-24T06:53:11Z</time>
      </trkpt>
      <trkpt lat="48.99398" lon="1.35767">
        <ele>340</ele>
        <time>2017-09-24T06:53:16Z</time>
      </trkpt>
      <trkpt lat="48.99411" lon="1.35724">
        <ele>340</ele>
        <time>2017-09-24T06:53:21Z</time>
      </trkpt>
      <trkpt lat="48.99423" lon="1.35682">
        <ele>340</ele>
        <time>2017-09-24T06:53:26Z</time>
      </trkpt>
      <trkpt lat="48.99435" lon="1.3564">
        <ele>340</ele>
        <time>2017-09-24T06:53:31Z</time>
      </trkpt>
      <trkpt lat="48.99447" lon="1.35597">
        <ele>340</ele>
        <time>2017-09-24T06:53:36Z</time>
      </trkpt>
      <trkpt lat="48.99459" lon="1.35555">
        <ele>340</ele>
        <time>2017-09-24T06:53:41Z</time>
      </trkpt>
      <trkpt lat="48.9947" lon="1.35514">
        <ele>341</ele>
        <time>2017-09-24T06:53:46Z</time>
      </trkpt>
      <trkpt lat="48.99482" lon="1.35473">
        <ele>341</ele>
        <time>2017-09-24T06:53:51Z</time>
      </trkpt>
      <trkpt lat="48.99493" lon="1.35432">
        <ele>341</ele>
        <time>2017-09-24T06:53:56Z</time>
      </trkpt>
      <trkpt lat="48.99504" lon="1.35389">
        <ele>341</ele>
        <time>2017-09-24T06:54:01Z</time>
      </trkpt>
      <trkpt lat="48.99516" lon="1.35347">
        <ele>341</ele>
        <time>2017-09-24T06:54:06Z</time>
      </trkpt>
      <trkpt lat="48.99528" lon="1.35304">
        <ele>341</ele>
        <time>2017-09-24T06:54:11Z</time>
      </trkpt>
      <trkpt lat="48.99541" lon="1.3526">
        <ele>341</ele>
        <time>2017-09-24T06:54:16Z</time>
      </trkpt>
      <trkpt lat="48.99553" lon="1.35217">
        <ele>341</ele>
        <time>2017-09-24T06:54:21Z</time>
      </trkpt>
      <trkpt lat="48.99565" lon="1.35174">
        <ele>341</ele>
        <time>2017-09-24T06:54:26Z</time>
      </trkpt>
      <trkpt lat="48.99577" lon="1.35129">
        <ele>341</ele>
        <time>2017-09-24T06:54:31Z</time>
      </trkpt>
      <trkpt lat="48.99589" lon="1.35088">
        <ele>340</ele>
        <time>2017-09-24T06:54:36Z</time>
      </trkpt>
      <trkpt lat="48.99599" lon="1.35047">
        <ele>340</ele>
        <time>2017-09-24T06:54:41Z</time>
      </trkpt>
      <trkpt lat="48.99611" lon="1.35002">
        <ele>340</ele>
        <time>2017-09-24T06:54:46Z</time>
      </trkpt>
      <trkpt lat="48.99625" lon="1.34953">
        <ele>340</ele>
        <time>2017-09-24T06:54:51Z</time>
      </trkpt>
      <trkpt lat="48.99639" lon="1.34903">
        <ele>339</ele>
        <time>2017-09-24T06:54:56Z</time>
      </trkpt>
      <trkpt lat="48.99653" lon="1.34852">
        <ele>338</ele>
        <time>2017-09-24T06:55:01Z</time>
      </trkpt>
      <trkpt lat="48.99667" lon="1.348">
        <ele>337</ele>
        <time>2017-09-24T06:55:06Z</time>
      </trkpt>
      <trkpt lat="48.99681" lon="1.3475">
        <ele>337</ele>
        <time>2017-09-24T06:55:11Z</time>
      </trkpt>
      <trkpt lat="48.99695" lon="1.34701">
        <ele>337</ele>
        <time>2017-09-24T06:55:16Z</time>
      </trkpt>
      <trkpt lat="48.99708" lon="1.34653">
        <ele>337</ele>
        <time>2017-09-24T06:55:21Z</time>
      </trkpt>
      <trkpt lat="48.99721" lon="1.34607">
        <ele>337</ele>
        <time>2017-09-24T06:55:26Z</time>
      </trkpt>
      <trkpt lat="48.99732" lon="1.34565">
        <ele>337</ele>
        <time>2017-09-24T06:55:31Z</time>
      </trkpt>
      <trkpt lat="48.99744" lon="1.34527">
        <ele>336</ele>
        <time>2017-09-24T06:55:36Z</time>
      </trkpt>
      <trkpt lat="48.99756" lon="1.34484">
        <ele>336</ele>
        <time>2017-09-24T06:55:41Z</time>
      </trkpt>
      <trkpt lat="48.99767" lon="1.34444">
        <ele>336</ele>
        <time>2017-09-24T06:55:46Z</time>
      </trkpt>
      <trkpt lat="48.99778" lon="1.34405">
        <ele>336</ele>
        <time>2017-09-24T06:55:51Z</time>
      </trkpt>
      <trkpt lat="48.9979" lon="1.34366">
        <ele>337</ele>
        <time>2017-09-24T06:55:56Z</time>
      </trkpt>
      <trkpt lat="48.99801" lon="1.34327">
        <ele>337</ele>
        <time>2017-09-24T06:56:01Z</time>
      </trkpt>
      <trkpt lat="48.99812" lon="1.34287">
        <ele>338</ele>
        <time>2017-09-24T06:56:06Z</time>
      </trkpt>
      <trkpt lat="48.99823" lon="1.34248">
        <ele>338</ele>
        <time>2017-09-24T06:56:11Z</time>
      </trkpt>
      <trkpt lat="48.99834" lon="1.34208">
        <ele>338</ele>
        <time>2017-09-24T06:56:16Z</time>
      </trkpt>
      <trkpt lat="48.99845" lon="1.34168">
        <ele>338</ele>
        <time>2017-09-24T06:56:21Z</time>
      </trkpt>
      <trkpt lat="48.99856" lon="1.34127">
        <ele>338</ele>
        <time>2017-09-24T06:56:26Z</time>
      </trkpt>
      <trkpt lat="48.99868" lon="1.34088">
        <ele>338</ele>
        <time>2017-09-24T06:56:31Z</time>
      </trkpt>
      <trkpt lat="48.99878" lon="1.34048">
        <ele>338</ele>
        <time>2017-09-24T06:56:36Z</time>
      </trkpt>
      <trkpt lat="48.9989" lon="1.34008">
        <ele>338</ele>
        <time>2017-09-24T06:56:41Z</time>
      </trkpt>
      <trkpt lat="48.999" lon="1.33969">
        <ele>339</ele>
        <time>2017-09-24T06:56:46Z</time>
      </trkpt>
      <trkpt lat="48.99911" lon="1.3393">
        <ele>339</ele>
        <time>2017-09-24T06:56:51Z</time>
      </trkpt>
      <trkpt lat="48.99922" lon="1.33891">
        <ele>339</ele>
        <time>2017-09-24T06:56:56Z</time>
      </trkpt>
      <trkpt lat="48.99933" lon="1.33851">
        <ele>340</ele>
        <time>2017-09-24T06:57:01Z</time>
      </trkpt>
      <trkpt lat="48.99944" lon="1.33812">
        <ele>341</ele>
        <time>2017-09-24T06:57:06Z</time>
      </trkpt>
      <trkpt lat="48.99954" lon="1.33772">
        <ele>341</ele>
        <time>2017-09-24T06:57:11Z</time>
      </trkpt>
      <trkpt lat="48.99965" lon="1.33733">
        <ele>341</ele>
        <time>2017-09-24T06:57:16Z</time>
      </trkpt>
      <trkpt lat="48.99975" lon="1.33697">
        <ele>342</ele>
        <time>2017-09-24T06:57:21Z</time>
      </trkpt>
      <trkpt lat="48.99985" lon="1.33661">
        <ele>342</ele>
        <time>2017-09-24T06:57:26Z</time>
      </trkpt>
      <trkpt lat="48.99995" lon="1.33625">
        <ele>343</ele>
        <time>2017-09-24T06:57:31Z</time>
      </trkpt>
      <trkpt lat="49.00006" lon="1.33589">
        <ele>343</ele>
        <time>2017-09-24T06:57:36Z</time>
      </trkpt>
      <trkpt lat="49.00016" lon="1.33553">
        <ele>343</ele>
        <time>2017-09-24T06:57:41Z</time>
      </trkpt>
      <trkpt lat="49.00025" lon="1.33515">
        <ele>344</ele>
        <time>2017-09-24T06:57:46Z</time>
      </trkpt>
      <trkpt lat="49.00036" lon="1.33477">
        <ele>344</ele>
        <time>2017-09-24T06:57:51Z</time>
      </trkpt>
      <trkpt lat="49.00046" lon="1.33439">
        <ele>344</ele>
        <time>2017-09-24T06:57:56Z</time>
      </trkpt>
      <trkpt lat="49.00057" lon="1.334">
        <ele>344</ele>
        <time>2017-09-24T06:58:01Z</time>
      </trkpt>
      <trkpt lat="49.00067" lon="1.33361">
        <ele>344</ele>
        <time>2017-09-24T06:58:06Z</time>
      </trkpt>
      <trkpt lat="49.00078" lon="1.3332">
        <ele>345</ele>
        <time>2017-09-24T06:58:11Z</time>
      </trkpt>
      <trkpt lat="49.00089" lon="1.33279">
        <ele>345</ele>
        <time>2017-09-24T06:58:16Z</time>
      </trkpt>
      <trkpt lat="49.001" lon="1.33238">
        <ele>345</ele>
        <time>2017-09-24T06:58:21Z</time>
      </trkpt>
      <trkpt lat="49.00111" lon="1.33196">
        <ele>345</ele>
        <time>2017-09-24T06:58:26Z</time>
      </trkpt>
      <trkpt lat="49.00123" lon="1.33154">
        <ele>345</ele>
        <time>2017-09-24T06:58:31Z</time>
      </trkpt>
      <trkpt lat="49.00135" lon="1.33109">
        <ele>345</ele>
        <time>2017-09-24T06:58:36Z</time>
      </trkpt>
      <trkpt lat="49.00147" lon="1.33062">
        <ele>345</ele>
        <time>2017-09-24T06:58:41Z</time>
      </trkpt>
      <trkpt lat="49.0016" lon="1.33012">
        <ele>345</ele>
        <time>2017-09-24T06:58:46Z</time>
      </trkpt>
      <trkpt lat="49.00174" lon="1.32961">
        <ele>342</ele>
        <time>2017-09-24T06:58:51Z</time>
      </trkpt>
      <trkpt lat="49.00187" lon="1.32909">
        <ele>342</ele>
        <time>2017-09-24T06:58:56Z</time>
      </trkpt>
      <trkpt lat="49.00201" lon="1.32859">
        <ele>342</ele>
        <time>2017-09-24T06:59:01Z</time>
      </trkpt>
      <trkpt lat="49.00214" lon="1.32834">
        <ele>340</ele>
        <time>2017-09-24T06:59:06Z</time>
      </trkpt>
      <trkpt lat="49.00234" lon="1.32851">
        <ele>340</ele>
        <time>2017-09-24T06:59:11Z</time>
      </trkpt>
      <trkpt lat="49.0025" lon="1.32882">
        <ele>340</ele>
        <time>2017-09-24T06:59:16Z</time>
      </trkpt>
      <trkpt lat="49.00265" lon="1.32916">
        <ele>340</ele>
        <time>2017-09-24T06:59:21Z</time>
      </trkpt>
      <trkpt lat="49.00279" lon="1.32952">
        <ele>340</ele>
        <time>2017-09-24T06:59:26Z</time>
      </trkpt>
      <trkpt lat="49.00292" lon="1.32989">
        <ele>340</ele>
        <time>2017-09-24T06:59:31Z</time>
      </trkpt>
      <trkpt lat="49.00304" lon="1.33026">
        <ele>340</ele>
        <time>2017-09-24T06:59:36Z</time>
      </trkpt>
      <trkpt lat="49.00317" lon="1.33063">
        <ele>340</ele>
        <time>2017-09-24T06:59:41Z</time>
      </trkpt>
      <trkpt lat="49.0033" lon="1.331">
        <ele>340</ele>
        <time>2017-09-24T06:59:46Z</time>
      </trkpt>
      <trkpt lat="49.00343" lon="1.33138">
        <ele>340</ele>
        <time>2017-09-24T06:59:51Z</time>
      </trkpt>
      <trkpt lat="49.00355" lon="1.33176">
        <ele>340</ele>
        <time>2017-09-24T06:59:56Z</time>
      </trkpt>
      <trkpt lat="49.00369" lon="1.33214">
        <ele>340</ele>
        <time>2017-09-24T07:00:01Z</time>
      </trkpt>
      <trkpt lat="49.00386" lon="1.33254">
        <ele>338</ele>
        <time>2017-09-24T07:00:06Z</time>
      </trkpt>
      <trkpt lat="49.00401" lon="1.33295">
        <ele>336</ele>
        <time>2017-09-24T07:00:11Z</time>
      </trkpt>
      <trkpt lat="49.00416" lon="1.33337">
        <ele>336</ele>
        <time>2017-09-24T07:00:16Z</time>
      </trkpt>
      <trkpt lat="49.0043" lon="1.3338">
        <ele>336</ele>
        <time>2017-09-24T07:00:21Z</time>
      </trkpt>
      <trkpt lat="49.00441" lon="1.33425">
        <ele>336</ele>
        <time>2017-09-24T07:00:26Z</time>
      </trkpt>
      <trkpt lat="49.00453" lon="1.33469">
        <ele>335</ele>
        <time>2017-09-24T07:00:31Z</time>
      </trkpt>
      <trkpt lat="49.00468" lon="1.33514">
        <ele>332</ele>
        <time>2017-09-24T07:00:36Z</time>
      </trkpt>
      <trkpt lat="49.0048" lon="1.33559">
        <ele>332</ele>
        <time>2017-09-24T07:00:41Z</time>
      </trkpt>
      <trkpt lat="49.00497" lon="1.33605">
        <ele>330</ele>
        <time>2017-09-24T07:00:46Z</time>
      </trkpt>
      <trkpt lat="49.00516" lon="1.33648">
        <ele>330</ele>
        <time>2017-09-24T07:00:51Z</time>
      </trkpt>
      <trkpt lat="49.00536" lon="1.33691">
        <ele>330</ele>
        <time>2017-09-24T07:00:56Z</time>
      </trkpt>
      <trkpt lat="49.00555" lon="1.33731">
        <ele>330</ele>
        <time>2017-09-24T07:01:01Z</time>
      </trkpt>
      <trkpt lat="49.00573" lon="1.3377">
        <ele>330</ele>
        <time>2017-09-24T07:01:06Z</time>
      </trkpt>
      <trkpt lat="49.00592" lon="1.33809">
        <ele>330</ele>
        <time>2017-09-24T07:01:11Z</time>
      </trkpt>
      <trkpt lat="49.00612" lon="1.33845">
        <ele>329</ele>
        <time>2017-09-24T07:01:16Z</time>
      </trkpt>
      <trkpt lat="49.00635" lon="1.33881">
        <ele>328</ele>
        <time>2017-09-24T07:01:21Z</time>
      </trkpt>
      <trkpt lat="49.0066" lon="1.33917">
        <ele>327</ele>
        <time>2017-09-24T07:01:26Z</time>
      </trkpt>
      <trkpt lat="49.00683" lon="1.33953">
        <ele>327</ele>
        <time>2017-09-24T07:01:31Z</time>
      </trkpt>
      <trkpt lat="49.00706" lon="1.3399">
        <ele>326</ele>
        <time>2017-09-24T07:01:36Z</time>
      </trkpt>
      <trkpt lat="49.00725" lon="1.34028">
        <ele>325</ele>
        <time>2017-09-24T07:01:41Z</time>
      </trkpt>
      <trkpt lat="49.00743" lon="1.34067">
        <ele>325</ele>
        <time>2017-09-24T07:01:46Z</time>
      </trkpt>
      <trkpt lat="49.00757" lon="1.34107">
        <ele>325</ele>
        <time>2017-09-24T07:01:51Z</time>
      </trkpt>
      <trkpt lat="49.00769" lon="1.34145">
        <ele>325</ele>
        <time>2017-09-24T07:01:56Z</time>
      </trkpt>
      <trkpt lat="49.00781" lon="1.34184">
        <ele>325</ele>
        <time>2017-09-24T07:02:01Z</time>
      </trkpt>
      <trkpt lat="49.00794" lon="1.34223">
        <ele>325</ele>
        <time>2017-09-24T07:02:06Z</time>
      </trkpt>
      <trkpt lat="49.0081" lon="1.34263">
        <ele>325</ele>
        <time>2017-09-24T07:02:11Z</time>
      </trkpt>
      <trkpt lat="49.00831" lon="1.34299">
        <ele>324</ele>
        <time>2017-09-24T07:02:16Z</time>
      </trkpt>
      <trkpt lat="49.00852" lon="1.34327">
        <ele>324</ele>
        <time>2017-09-24T07:02:21Z</time>
      </trkpt>
      <trkpt lat="49.0087" lon="1.34355">
        <ele>324</ele>
        <time>2017-09-24T07:02:26Z</time>
      </trkpt>
      <trkpt lat="49.00887" lon="1.34385">
        <ele>324</ele>
        <time>2017-09-24T07:02:31Z</time>
      </trkpt>
      <trkpt lat="49.00904" lon="1.34416">
        <ele>324</ele>
        <time>2017-09-24T07:02:36Z</time>
      </trkpt>
      <trkpt lat="49.00921" lon="1.34449">
        <ele>324</ele>
        <time>2017-09-24T07:02:41Z</time>
      </trkpt>
      <trkpt lat="49.0094" lon="1.34483">
        <ele>323</ele>
        <time>2017-09-24T07:02:46Z</time>
      </trkpt>
      <trkpt lat="49.00958" lon="1.34517">
        <ele>321</ele>
        <time>2017-09-24T07:02:51Z</time>
      </trkpt>
      <trkpt lat="49.00978" lon="1.34554">
        <ele>321</ele>
        <time>2017-09-24T07:02:56Z</time>
      </trkpt>
      <trkpt lat="49.01006" lon="1.34587">
        <ele>321</ele>
        <time>2017-09-24T07:03:01Z</time>
      </trkpt>
      <trkpt lat="49.0104" lon="1.34615">
        <ele>317</ele>
        <time>2017-09-24T07:03:06Z</time>
      </trkpt>
      <trkpt lat="49.01068" lon="1.34641">
        <ele>315</ele>
        <time>2017-09-24T07:03:11Z</time>
      </trkpt>
      <trkpt lat="49.01086" lon="1.34621">
        <ele>311</ele>
        <time>2017-09-24T07:03:16Z</time>
      </trkpt>
      <trkpt lat="49.01086" lon="1.3458">
        <ele>309</ele>
        <time>2017-09-24T07:03:21Z</time>
      </trkpt>
      <trkpt lat="49.01087" lon="1.34554">
        <ele>304</ele>
        <time>2017-09-24T07:03:26Z</time>
      </trkpt>
      <trkpt lat="49.01087" lon="1.34546">
        <ele>304</ele>
        <time>2017-09-24T07:03:31Z</time>
      </trkpt>
      <trkpt lat="49.01087" lon="1.34546">
        <ele>304</ele>
        <time>2017-09-24T07:03:32Z</time>
      </trkpt>
      <trkpt lat="49.01091" lon="1.34518">
        <ele>303</ele>
        <time>2017-09-24T07:03:40Z</time>
      </trkpt>
      <trkpt lat="49.011" lon="1.3449">
        <ele>300</ele>
        <time>2017-09-24T07:03:45Z</time>
      </trkpt>
      <trkpt lat="49.01106" lon="1.34484">
        <ele>299</ele>
        <time>2017-09-24T07:03:50Z</time>
      </trkpt>
      <trkpt lat="49.01106" lon="1.34483">
        <ele>298</ele>
        <time>2017-09-24T07:03:55Z</time>
      </trkpt>
      <trkpt lat="49.01106" lon="1.34484">
        <ele>298</ele>
        <time>2017-09-24T07:04:02Z</time>
      </trkpt>
      <trkpt lat="49.01102" lon="1.34492">
        <ele>298</ele>
        <time>2017-09-24T07:04:13Z</time>
      </trkpt>
      <trkpt lat="49.01097" lon="1.34506">
        <ele>300</ele>
        <time>2017-09-24T07:04:18Z</time>
      </trkpt>
      <trkpt lat="49.01093" lon="1.34523">
        <ele>301</ele>
        <time>2017-09-24T07:04:23Z</time>
      </trkpt>
      <trkpt lat="49.0109" lon="1.3454">
        <ele>302</ele>
        <time>2017-09-24T07:04:28Z</time>
      </trkpt>
      <trkpt lat="49.01087" lon="1.34557">
        <ele>303</ele>
        <time>2017-09-24T07:04:33Z</time>
      </trkpt>
      <trkpt lat="49.01086" lon="1.34574">
        <ele>305</ele>
        <time>2017-09-24T07:04:38Z</time>
      </trkpt>
      <trkpt lat="49.01087" lon="1.3459">
        <ele>306</ele>
        <time>2017-09-24T07:04:43Z</time>
      </trkpt>
      <trkpt lat="49.01087" lon="1.34605">
        <ele>307</ele>
        <time>2017-09-24T07:04:48Z</time>
      </trkpt>
      <trkpt lat="49.01085" lon="1.3462">
        <ele>308</ele>
        <time>2017-09-24T07:04:53Z</time>
      </trkpt>
      <trkpt lat="49.01079" lon="1.34632">
        <ele>309</ele>
        <time>2017-09-24T07:04:58Z</time>
      </trkpt>
      <trkpt lat="49.0107" lon="1.34637">
        <ele>310</ele>
        <time>2017-09-24T07:05:03Z</time>
      </trkpt>
      <trkpt lat="49.01061" lon="1.34632">
        <ele>311</ele>
        <time>2017-09-24T07:05:08Z</time>
      </trkpt>
      <trkpt lat="49.01056" lon="1.34628">
        <ele>312</ele>
        <time>2017-09-24T07:05:13Z</time>
      </trkpt>
      <trkpt lat="49.01056" lon="1.34628">
        <ele>313</ele>
        <time>2017-09-24T07:05:15Z</time>
      </trkpt>
      <trkpt lat="49.01062" lon="1.34634">
        <ele>313</ele>
        <time>2017-09-24T07:05:33Z</time>
      </trkpt>
      <trkpt lat="49.01073" lon="1.34636">
        <ele>312</ele>
        <time>2017-09-24T07:05:38Z</time>
      </trkpt>
      <trkpt lat="49.01083" lon="1.34619">
        <ele>309</ele>
        <time>2017-09-24T07:05:43Z</time>
      </trkpt>
      <trkpt lat="49.01083" lon="1.34588">
        <ele>308</ele>
        <time>2017-09-24T07:05:48Z</time>
      </trkpt>
      <trkpt lat="49.01085" lon="1.34556">
        <ele>305</ele>
        <time>2017-09-24T07:05:53Z</time>
      </trkpt>
      <trkpt lat="49.0109" lon="1.3452">
        <ele>303</ele>
        <time>2017-09-24T07:05:58Z</time>
      </trkpt>
      <trkpt lat="49.01101" lon="1.34489">
        <ele>302</ele>
        <time>2017-09-24T07:06:03Z</time>
      </trkpt>
      <trkpt lat="49.0112" lon="1.34492">
        <ele>299</ele>
        <time>2017-09-24T07:06:08Z</time>
      </trkpt>
      <trkpt lat="49.01137" lon="1.34516">
        <ele>297</ele>
        <time>2017-09-24T07:06:13Z</time>
      </trkpt>
      <trkpt lat="49.01149" lon="1.3455">
        <ele>296</ele>
        <time>2017-09-24T07:06:18Z</time>
      </trkpt>
      <trkpt lat="49.01161" lon="1.34587">
        <ele>295</ele>
        <time>2017-09-24T07:06:23Z</time>
      </trkpt>
      <trkpt lat="49.01169" lon="1.34631">
        <ele>292</ele>
        <time>2017-09-24T07:06:28Z</time>
      </trkpt>
      <trkpt lat="49.01173" lon="1.34679">
        <ele>289</ele>
        <time>2017-09-24T07:06:33Z</time>
      </trkpt>
      <trkpt lat="49.01173" lon="1.34727">
        <ele>288</ele>
        <time>2017-09-24T07:06:38Z</time>
      </trkpt>
      <trkpt lat="49.01172" lon="1.34774">
        <ele>286</ele>
        <time>2017-09-24T07:06:43Z</time>
      </trkpt>
      <trkpt lat="49.01172" lon="1.34823">
        <ele>284</ele>
        <time>2017-09-24T07:06:48Z</time>
      </trkpt>
      <trkpt lat="49.01174" lon="1.34872">
        <ele>282</ele>
        <time>2017-09-24T07:06:53Z</time>
      </trkpt>
      <trkpt lat="49.01178" lon="1.34929">
        <ele>278</ele>
        <time>2017-09-24T07:06:58Z</time>
      </trkpt>
      <trkpt lat="49.01183" lon="1.34986">
        <ele>276</ele>
        <time>2017-09-24T07:07:03Z</time>
      </trkpt>
      <trkpt lat="49.01193" lon="1.3504">
        <ele>275</ele>
        <time>2017-09-24T07:07:08Z</time>
      </trkpt>
      <trkpt lat="49.01206" lon="1.35093">
        <ele>273</ele>
        <time>2017-09-24T07:07:13Z</time>
      </trkpt>
      <trkpt lat="49.01216" lon="1.35138">
        <ele>272</ele>
        <time>2017-09-24T07:07:18Z</time>
      </trkpt>
      <trkpt lat="49.01218" lon="1.35173">
        <ele>271</ele>
        <time>2017-09-24T07:07:23Z</time>
      </trkpt>
      <trkpt lat="49.01212" lon="1.35194">
        <ele>270</ele>
        <time>2017-09-24T07:07:28Z</time>
      </trkpt>
      <trkpt lat="49.01207" lon="1.35211">
        <ele>270</ele>
        <time>2017-09-24T07:07:33Z</time>
      </trkpt>
      <trkpt lat="49.01201" lon="1.35232">
        <ele>270</ele>
        <time>2017-09-24T07:07:38Z</time>
      </trkpt>
      <trkpt lat="49.01193" lon="1.35257">
        <ele>270</ele>
        <time>2017-09-24T07:07:43Z</time>
      </trkpt>
      <trkpt lat="49.01174" lon="1.35279">
        <ele>269</ele>
        <time>2017-09-24T07:07:48Z</time>
      </trkpt>
      <trkpt lat="49.01146" lon="1.35305">
        <ele>268</ele>
        <time>2017-09-24T07:07:53Z</time>
      </trkpt>
      <trkpt lat="49.01122" lon="1.35329">
        <ele>266</ele>
        <time>2017-09-24T07:07:58Z</time>
      </trkpt>
      <trkpt lat="49.01104" lon="1.35348">
        <ele>266</ele>
        <time>2017-09-24T07:08:03Z</time>
      </trkpt>
      <trkpt lat="49.01087" lon="1.35368">
        <ele>265</ele>
        <time>2017-09-24T07:08:08Z</time>
      </trkpt>
      <trkpt lat="49.01071" lon="1.35387">
        <ele>265</ele>
        <time>2017-09-24T07:08:13Z</time>
      </trkpt>
      <trkpt lat="49.01051" lon="1.354">
        <ele>265</ele>
        <time>2017-09-24T07:08:18Z</time>
      </trkpt>
      <trkpt lat="49.01033" lon="1.35387">
        <ele>265</ele>
        <time>2017-09-24T07:08:23Z</time>
      </trkpt>
      <trkpt lat="49.0102" lon="1.35365">
        <ele>267</ele>
        <time>2017-09-24T07:08:28Z</time>
      </trkpt>
      <trkpt lat="49.01009" lon="1.35345">
        <ele>267</ele>
        <time>2017-09-24T07:08:33Z</time>
      </trkpt>
      <trkpt lat="49.00995" lon="1.35327">
        <ele>268</ele>
        <time>2017-09-24T07:08:38Z</time>
      </trkpt>
      <trkpt lat="49.00981" lon="1.3532">
        <ele>271</ele>
        <time>2017-09-24T07:08:43Z</time>
      </trkpt>
      <trkpt lat="49.00984" lon="1.35335">
        <ele>271</ele>
        <time>2017-09-24T07:08:48Z</time>
      </trkpt>
      <trkpt lat="49.00998" lon="1.35357">
        <ele>271</ele>
        <time>2017-09-24T07:08:53Z</time>
      </trkpt>
      <trkpt lat="49.01015" lon="1.35395">
        <ele>271</ele>
        <time>2017-09-24T07:08:58Z</time>
      </trkpt>
      <trkpt lat="49.01034" lon="1.35444">
        <ele>269</ele>
        <time>2017-09-24T07:09:03Z</time>
      </trkpt>
      <trkpt lat="49.0105" lon="1.35498">
        <ele>267</ele>
        <time>2017-09-24T07:09:08Z</time>
      </trkpt>
      <trkpt lat="49.01065" lon="1.35551">
        <ele>265</ele>
        <time>2017-09-24T07:09:13Z</time>
      </trkpt>
      <trkpt lat="49.0108" lon="1.35605">
        <ele>264</ele>
        <time>2017-09-24T07:09:18Z</time>
      </trkpt>
      <trkpt lat="49.01095" lon="1.35656">
        <ele>262</ele>
        <time>2017-09-24T07:09:23Z</time>
      </trkpt>
      <trkpt lat="49.01111" lon="1.3571">
        <ele>262</ele>
        <time>2017-09-24T07:09:28Z</time>
      </trkpt>
      <trkpt lat="49.01127" lon="1.35762">
        <ele>261</ele>
        <time>2017-09-24T07:09:33Z</time>
      </trkpt>
      <trkpt lat="49.01142" lon="1.35816">
        <ele>259</ele>
        <time>2017-09-24T07:09:38Z</time>
      </trkpt>
      <trkpt lat="49.01154" lon="1.35872">
        <ele>259</ele>
        <time>2017-09-24T07:09:43Z</time>
      </trkpt>
      <trkpt lat="49.01155" lon="1.35925">
        <ele>258</ele>
        <time>2017-09-24T07:09:48Z</time>
      </trkpt>
      <trkpt lat="49.01159" lon="1.35962">
        <ele>255</ele>
        <time>2017-09-24T07:09:53Z</time>
      </trkpt>
      <trkpt lat="49.01176" lon="1.35959">
        <ele>255</ele>
        <time>2017-09-24T07:09:58Z</time>
      </trkpt>
      <trkpt lat="49.01191" lon="1.35952">
        <ele>255</ele>
        <time>2017-09-24T07:10:03Z</time>
      </trkpt>
      <trkpt lat="49.01212" lon="1.35938">
        <ele>255</ele>
        <time>2017-09-24T07:10:08Z</time>
      </trkpt>
      <trkpt lat="49.01217" lon="1.35914">
        <ele>255</ele>
        <time>2017-09-24T07:10:13Z</time>
      </trkpt>
      <trkpt lat="49.01222" lon="1.35903">
        <ele>255</ele>
        <time>2017-09-24T07:10:18Z</time>
      </trkpt>
      <trkpt lat="49.01226" lon="1.35899">
        <ele>257</ele>
        <time>2017-09-24T07:10:23Z</time>
      </trkpt>
      <trkpt lat="49.01227" lon="1.35899">
        <ele>257</ele>
        <time>2017-09-24T07:10:26Z</time>
      </trkpt>
      <trkpt lat="49.01228" lon="1.35898">
        <ele>257</ele>
        <time>2017-09-24T07:10:29Z</time>
      </trkpt>
      <trkpt lat="49.01231" lon="1.35892">
        <ele>257</ele>
        <time>2017-09-24T07:10:36Z</time>
      </trkpt>
      <trkpt lat="49.01237" lon="1.35885">
        <ele>260</ele>
        <time>2017-09-24T07:10:42Z</time>
      </trkpt>
      <trkpt lat="49.01243" lon="1.35877">
        <ele>260</ele>
        <time>2017-09-24T07:10:47Z</time>
      </trkpt>
      <trkpt lat="49.01248" lon="1.35869">
        <ele>261</ele>
        <time>2017-09-24T07:10:52Z</time>
      </trkpt>
      <trkpt lat="49.01253" lon="1.35858">
        <ele>263</ele>
        <time>2017-09-24T07:10:57Z</time>
      </trkpt>
      <trkpt lat="49.01256" lon="1.35846">
        <ele>264</ele>
        <time>2017-09-24T07:11:02Z</time>
      </trkpt>
      <trkpt lat="49.01257" lon="1.35836">
        <ele>265</ele>
        <time>2017-09-24T07:11:07Z</time>
      </trkpt>
      <trkpt lat="49.01258" lon="1.35824">
        <ele>267</ele>
        <time>2017-09-24T07:11:13Z</time>
      </trkpt>
      <trkpt lat="49.01258" lon="1.35814">
        <ele>269</ele>
        <time>2017-09-24T07:11:18Z</time>
      </trkpt>
      <trkpt lat="49.01256" lon="1.35804">
        <ele>270</ele>
        <time>2017-09-24T07:11:23Z</time>
      </trkpt>
      <trkpt lat="49.01254" lon="1.35795">
        <ele>272</ele>
        <time>2017-09-24T07:11:28Z</time>
      </trkpt>
      <trkpt lat="49.01252" lon="1.35788">
        <ele>272</ele>
        <time>2017-09-24T07:11:32Z</time>
      </trkpt>
      <trkpt lat="49.01247" lon="1.35777">
        <ele>274</ele>
        <time>2017-09-24T07:11:38Z</time>
      </trkpt>
      <trkpt lat="49.01241" lon="1.35766">
        <ele>275</ele>
        <time>2017-09-24T07:11:43Z</time>
      </trkpt>
      <trkpt lat="49.01237" lon="1.35755">
        <ele>276</ele>
        <time>2017-09-24T07:11:48Z</time>
      </trkpt>
      <trkpt lat="49.01233" lon="1.35742">
        <ele>277</ele>
        <time>2017-09-24T07:11:53Z</time>
      </trkpt>
      <trkpt lat="49.0123" lon="1.35729">
        <ele>278</ele>
        <time>2017-09-24T07:11:58Z</time>
      </trkpt>
      <trkpt lat="49.01228" lon="1.35715">
        <ele>278</ele>
        <time>2017-09-24T07:12:03Z</time>
      </trkpt>
      <trkpt lat="49.01226" lon="1.357">
        <ele>280</ele>
        <time>2017-09-24T07:12:08Z</time>
      </trkpt>
      <trkpt lat="49.01227" lon="1.35685">
        <ele>280</ele>
        <time>2017-09-24T07:12:13Z</time>
      </trkpt>
      <trkpt lat="49.01229" lon="1.3567">
        <ele>281</ele>
        <time>2017-09-24T07:12:18Z</time>
      </trkpt>
      <trkpt lat="49.01232" lon="1.35657">
        <ele>282</ele>
        <time>2017-09-24T07:12:23Z</time>
      </trkpt>
      <trkpt lat="49.01236" lon="1.35645">
        <ele>283</ele>
        <time>2017-09-24T07:12:28Z</time>
      </trkpt>
      <trkpt lat="49.01241" lon="1.35636">
        <ele>284</ele>
        <time>2017-09-24T07:12:33Z</time>
      </trkpt>
      <trkpt lat="49.01246" lon="1.35626">
        <ele>285</ele>
        <time>2017-09-24T07:12:38Z</time>
      </trkpt>
      <trkpt lat="49.0125" lon="1.35616">
        <ele>287</ele>
        <time>2017-09-24T07:12:43Z</time>
      </trkpt>
      <trkpt lat="49.01254" lon="1.35606">
        <ele>288</ele>
        <time>2017-09-24T07:12:48Z</time>
      </trkpt>
      <trkpt lat="49.01259" lon="1.35597">
        <ele>289</ele>
        <time>2017-09-24T07:12:53Z</time>
      </trkpt>
      <trkpt lat="49.01266" lon="1.35594">
        <ele>290</ele>
        <time>2017-09-24T07:12:57Z</time>
      </trkpt>
      <trkpt lat="49.01275" lon="1.35586">
        <ele>291</ele>
        <time>2017-09-24T07:13:03Z</time>
      </trkpt>
      <trkpt lat="49.0128" lon="1.35576">
        <ele>292</ele>
        <time>2017-09-24T07:13:08Z</time>
      </trkpt>
      <trkpt lat="49.01284" lon="1.35564">
        <ele>293</ele>
        <time>2017-09-24T07:13:13Z</time>
      </trkpt>
      <trkpt lat="49.01288" lon="1.3555">
        <ele>294</ele>
        <time>2017-09-24T07:13:19Z</time>
      </trkpt>
      <trkpt lat="49.01291" lon="1.35538">
        <ele>295</ele>
        <time>2017-09-24T07:13:24Z</time>
      </trkpt>
      <trkpt lat="49.01294" lon="1.35527">
        <ele>296</ele>
        <time>2017-09-24T07:13:29Z</time>
      </trkpt>
      <trkpt lat="49.01297" lon="1.35515">
        <ele>297</ele>
        <time>2017-09-24T07:13:34Z</time>
      </trkpt>
      <trkpt lat="49.013" lon="1.35502">
        <ele>298</ele>
        <time>2017-09-24T07:13:39Z</time>
      </trkpt>
      <trkpt lat="49.01302" lon="1.35488">
        <ele>299</ele>
        <time>2017-09-24T07:13:44Z</time>
      </trkpt>
      <trkpt lat="49.01306" lon="1.35472">
        <ele>300</ele>
        <time>2017-09-24T07:13:49Z</time>
      </trkpt>
      <trkpt lat="49.0131" lon="1.35456">
        <ele>301</ele>
        <time>2017-09-24T07:13:54Z</time>
      </trkpt>
      <trkpt lat="49.01313" lon="1.35439">
        <ele>302</ele>
        <time>2017-09-24T07:13:59Z</time>
      </trkpt>
      <trkpt lat="49.01318" lon="1.3542">
        <ele>303</ele>
        <time>2017-09-24T07:14:05Z</time>
      </trkpt>
      <trkpt lat="49.01322" lon="1.35404">
        <ele>304</ele>
        <time>2017-09-24T07:14:10Z</time>
      </trkpt>
      <trkpt lat="49.01327" lon="1.35387">
        <ele>305</ele>
        <time>2017-09-24T07:14:15Z</time>
      </trkpt>
      <trkpt lat="49.01332" lon="1.35367">
        <ele>305</ele>
        <time>2017-09-24T07:14:21Z</time>
      </trkpt>
      <trkpt lat="49.01337" lon="1.35348">
        <ele>306</ele>
        <time>2017-09-24T07:14:26Z</time>
      </trkpt>
      <trkpt lat="49.01341" lon="1.35333">
        <ele>307</ele>
        <time>2017-09-24T07:14:30Z</time>
      </trkpt>
      <trkpt lat="49.01348" lon="1.35311">
        <ele>308</ele>
        <time>2017-09-24T07:14:36Z</time>
      </trkpt>
      <trkpt lat="49.01353" lon="1.35292">
        <ele>308</ele>
        <time>2017-09-24T07:14:41Z</time>
      </trkpt>
      <trkpt lat="49.01359" lon="1.35272">
        <ele>309</ele>
        <time>2017-09-24T07:14:46Z</time>
      </trkpt>
      <trkpt lat="49.01366" lon="1.3525">
        <ele>310</ele>
        <time>2017-09-24T07:14:51Z</time>
      </trkpt>
      <trkpt lat="49.01372" lon="1.35228">
        <ele>310</ele>
        <time>2017-09-24T07:14:56Z</time>
      </trkpt>
      <trkpt lat="49.01378" lon="1.35211">
        <ele>311</ele>
        <time>2017-09-24T07:15:00Z</time>
      </trkpt>
      <trkpt lat="49.01386" lon="1.35186">
        <ele>312</ele>
        <time>2017-09-24T07:15:06Z</time>
      </trkpt>
      <trkpt lat="49.01393" lon="1.35165">
        <ele>313</ele>
        <time>2017-09-24T07:15:11Z</time>
      </trkpt>
      <trkpt lat="49.014" lon="1.35144">
        <ele>314</ele>
        <time>2017-09-24T07:15:16Z</time>
      </trkpt>
      <trkpt lat="49.01408" lon="1.35123">
        <ele>315</ele>
        <time>2017-09-24T07:15:21Z</time>
      </trkpt>
      <trkpt lat="49.01415" lon="1.35103">
        <ele>316</ele>
        <time>2017-09-24T07:15:26Z</time>
      </trkpt>
      <trkpt lat="49.01424" lon="1.35082">
        <ele>316</ele>
        <time>2017-09-24T07:15:31Z</time>
      </trkpt>
      <trkpt lat="49.01431" lon="1.3506">
        <ele>317</ele>
        <time>2017-09-24T07:15:36Z</time>
      </trkpt>
      <trkpt lat="49.01439" lon="1.35037">
        <ele>318</ele>
        <time>2017-09-24T07:15:41Z</time>
      </trkpt>
      <trkpt lat="49.01446" lon="1.35018">
        <ele>318</ele>
        <time>2017-09-24T07:15:45Z</time>
      </trkpt>
      <trkpt lat="49.01458" lon="1.34992">
        <ele>319</ele>
        <time>2017-09-24T07:15:51Z</time>
      </trkpt>
      <trkpt lat="49.01467" lon="1.34975">
        <ele>319</ele>
        <time>2017-09-24T07:15:55Z</time>
      </trkpt>
      <trkpt lat="49.01477" lon="1.34954">
        <ele>320</ele>
        <time>2017-09-24T07:16:00Z</time>
      </trkpt>
      <trkpt lat="49.0149" lon="1.34926">
        <ele>321</ele>
        <time>2017-09-24T07:16:06Z</time>
      </trkpt>
      <trkpt lat="49.01501" lon="1.34903">
        <ele>321</ele>
        <time>2017-09-24T07:16:10Z</time>
      </trkpt>
      <trkpt lat="49.01515" lon="1.34873">
        <ele>322</ele>
        <time>2017-09-24T07:16:15Z</time>
      </trkpt>
      <trkpt lat="49.01535" lon="1.34833">
        <ele>322</ele>
        <time>2017-09-24T07:16:21Z</time>
      </trkpt>
      <trkpt lat="49.01553" lon="1.34799">
        <ele>322</ele>
        <time>2017-09-24T07:16:26Z</time>
      </trkpt>
      <trkpt lat="49.01571" lon="1.34765">
        <ele>322</ele>
        <time>2017-09-24T07:16:31Z</time>
      </trkpt>
      <trkpt lat="49.01588" lon="1.3474">
        <ele>322</ele>
        <time>2017-09-24T07:16:35Z</time>
      </trkpt>
      <trkpt lat="49.01613" lon="1.34706">
        <ele>322</ele>
        <time>2017-09-24T07:16:41Z</time>
      </trkpt>
      <trkpt lat="49.01612" lon="1.34663">
        <ele>322</ele>
        <time>2017-09-24T07:16:46Z</time>
      </trkpt>
      <trkpt lat="49.01613" lon="1.34619">
        <ele>322</ele>
        <time>2017-09-24T07:16:51Z</time>
      </trkpt>
      <trkpt lat="49.01615" lon="1.34575">
        <ele>322</ele>
        <time>2017-09-24T07:16:56Z</time>
      </trkpt>
      <trkpt lat="49.01614" lon="1.34531">
        <ele>322</ele>
        <time>2017-09-24T07:17:01Z</time>
      </trkpt>
      <trkpt lat="49.01609" lon="1.34488">
        <ele>322</ele>
        <time>2017-09-24T07:17:06Z</time>
      </trkpt>
      <trkpt lat="49.01598" lon="1.34449">
        <ele>322</ele>
        <time>2017-09-24T07:17:11Z</time>
      </trkpt>
      <trkpt lat="49.01598" lon="1.34425">
        <ele>322</ele>
        <time>2017-09-24T07:17:15Z</time>
      </trkpt>
      <trkpt lat="49.0162" lon="1.34408">
        <ele>322</ele>
        <time>2017-09-24T07:17:20Z</time>
      </trkpt>
      <trkpt lat="49.01651" lon="1.34381">
        <ele>322</ele>
        <time>2017-09-24T07:17:26Z</time>
      </trkpt>
      <trkpt lat="49.0168" lon="1.34355">
        <ele>322</ele>
        <time>2017-09-24T07:17:31Z</time>
      </trkpt>
      <trkpt lat="49.0171" lon="1.34325">
        <ele>321</ele>
        <time>2017-09-24T07:17:36Z</time>
      </trkpt>
      <trkpt lat="49.01732" lon="1.34289">
        <ele>321</ele>
        <time>2017-09-24T07:17:41Z</time>
      </trkpt>
      <trkpt lat="49.01752" lon="1.34252">
        <ele>321</ele>
        <time>2017-09-24T07:17:46Z</time>
      </trkpt>
      <trkpt lat="49.01771" lon="1.34215">
        <ele>321</ele>
        <time>2017-09-24T07:17:51Z</time>
      </trkpt>
      <trkpt lat="49.0179" lon="1.34176">
        <ele>321</ele>
        <time>2017-09-24T07:17:56Z</time>
      </trkpt>
      <trkpt lat="49.0181" lon="1.34135">
        <ele>320</ele>
        <time>2017-09-24T07:18:01Z</time>
      </trkpt>
      <trkpt lat="49.01827" lon="1.34091">
        <ele>319</ele>
        <time>2017-09-24T07:18:06Z</time>
      </trkpt>
      <trkpt lat="49.01841" lon="1.34045">
        <ele>319</ele>
        <time>2017-09-24T07:18:11Z</time>
      </trkpt>
      <trkpt lat="49.01851" lon="1.34">
        <ele>319</ele>
        <time>2017-09-24T07:18:16Z</time>
      </trkpt>
      <trkpt lat="49.01856" lon="1.33956">
        <ele>319</ele>
        <time>2017-09-24T07:18:21Z</time>
      </trkpt>
      <trkpt lat="49.01857" lon="1.33911">
        <ele>319</ele>
        <time>2017-09-24T07:18:26Z</time>
      </trkpt>
      <trkpt lat="49.01855" lon="1.33859">
        <ele>317</ele>
        <time>2017-09-24T07:18:31Z</time>
      </trkpt>
      <trkpt lat="49.01852" lon="1.33817">
        <ele>317</ele>
        <time>2017-09-24T07:18:35Z</time>
      </trkpt>
      <trkpt lat="49.01849" lon="1.3376">
        <ele>317</ele>
        <time>2017-09-24T07:18:41Z</time>
      </trkpt>
      <trkpt lat="49.01853" lon="1.33715">
        <ele>317</ele>
        <time>2017-09-24T07:18:46Z</time>
      </trkpt>
      <trkpt lat="49.01866" lon="1.33672">
        <ele>317</ele>
        <time>2017-09-24T07:18:51Z</time>
      </trkpt>
      <trkpt lat="49.01883" lon="1.33632">
        <ele>317</ele>
        <time>2017-09-24T07:18:56Z</time>
      </trkpt>
      <trkpt lat="49.01901" lon="1.33591">
        <ele>317</ele>
        <time>2017-09-24T07:19:01Z</time>
      </trkpt>
      <trkpt lat="49.01914" lon="1.33555">
        <ele>315</ele>
        <time>2017-09-24T07:19:06Z</time>
      </trkpt>
      <trkpt lat="49.0192" lon="1.33537">
        <ele>314</ele>
        <time>2017-09-24T07:19:10Z</time>
      </trkpt>
      <trkpt lat="49.01936" lon="1.33512">
        <ele>314</ele>
        <time>2017-09-24T07:19:16Z</time>
      </trkpt>
      <trkpt lat="49.01949" lon="1.33487">
        <ele>314</ele>
        <time>2017-09-24T07:19:21Z</time>
      </trkpt>
      <trkpt lat="49.01962" lon="1.33461">
        <ele>315</ele>
        <time>2017-09-24T07:19:26Z</time>
      </trkpt>
      <trkpt lat="49.01973" lon="1.33433">
        <ele>315</ele>
        <time>2017-09-24T07:19:31Z</time>
      </trkpt>
      <trkpt lat="49.01982" lon="1.33404">
        <ele>316</ele>
        <time>2017-09-24T07:19:36Z</time>
      </trkpt>
      <trkpt lat="49.0199" lon="1.33373">
        <ele>317</ele>
        <time>2017-09-24T07:19:41Z</time>
      </trkpt>
      <trkpt lat="49.01997" lon="1.33342">
        <ele>318</ele>
        <time>2017-09-24T07:19:46Z</time>
      </trkpt>
      <trkpt lat="49.02003" lon="1.33311">
        <ele>319</ele>
        <time>2017-09-24T07:19:51Z</time>
      </trkpt>
      <trkpt lat="49.02008" lon="1.33279">
        <ele>320</ele>
        <time>2017-09-24T07:19:56Z</time>
      </trkpt>
      <trkpt lat="49.0201" lon="1.33246">
        <ele>320</ele>
        <time>2017-09-24T07:20:01Z</time>
      </trkpt>
      <trkpt lat="49.02012" lon="1.33219">
        <ele>321</ele>
        <time>2017-09-24T07:20:05Z</time>
      </trkpt>
      <trkpt lat="49.02013" lon="1.33179">
        <ele>321</ele>
        <time>2017-09-24T07:20:11Z</time>
      </trkpt>
      <trkpt lat="49.02015" lon="1.33146">
        <ele>322</ele>
        <time>2017-09-24T07:20:16Z</time>
      </trkpt>
      <trkpt lat="49.02015" lon="1.33113">
        <ele>323</ele>
        <time>2017-09-24T07:20:21Z</time>
      </trkpt>
      <trkpt lat="49.02012" lon="1.3308">
        <ele>323</ele>
        <time>2017-09-24T07:20:26Z</time>
      </trkpt>
      <trkpt lat="49.02006" lon="1.33048">
        <ele>324</ele>
        <time>2017-09-24T07:20:31Z</time>
      </trkpt>
      <trkpt lat="49.01996" lon="1.33009">
        <ele>325</ele>
        <time>2017-09-24T07:20:37Z</time>
      </trkpt>
      <trkpt lat="49.01995" lon="1.32975">
        <ele>325</ele>
        <time>2017-09-24T07:20:42Z</time>
      </trkpt>
      <trkpt lat="49.02003" lon="1.32944">
        <ele>325</ele>
        <time>2017-09-24T07:20:47Z</time>
      </trkpt>
      <trkpt lat="49.0202" lon="1.32927">
        <ele>326</ele>
        <time>2017-09-24T07:20:52Z</time>
      </trkpt>
      <trkpt lat="49.02038" lon="1.32911">
        <ele>327</ele>
        <time>2017-09-24T07:20:57Z</time>
      </trkpt>
      <trkpt lat="49.02057" lon="1.32895">
        <ele>327</ele>
        <time>2017-09-24T07:21:02Z</time>
      </trkpt>
      <trkpt lat="49.02075" lon="1.32879">
        <ele>327</ele>
        <time>2017-09-24T07:21:07Z</time>
      </trkpt>
      <trkpt lat="49.02081" lon="1.32859">
        <ele>328</ele>
        <time>2017-09-24T07:21:12Z</time>
      </trkpt>
      <trkpt lat="49.02069" lon="1.32832">
        <ele>329</ele>
        <time>2017-09-24T07:21:17Z</time>
      </trkpt>
      <trkpt lat="49.02054" lon="1.32803">
        <ele>330</ele>
        <time>2017-09-24T07:21:22Z</time>
      </trkpt>
      <trkpt lat="49.02039" lon="1.32774">
        <ele>330</ele>
        <time>2017-09-24T07:21:27Z</time>
      </trkpt>
      <trkpt lat="49.02024" lon="1.32746">
        <ele>330</ele>
        <time>2017-09-24T07:21:32Z</time>
      </trkpt>
      <trkpt lat="49.02008" lon="1.32715">
        <ele>331</ele>
        <time>2017-09-24T07:21:37Z</time>
      </trkpt>
      <trkpt lat="49.01992" lon="1.32685">
        <ele>331</ele>
        <time>2017-09-24T07:21:42Z</time>
      </trkpt>
      <trkpt lat="49.01975" lon="1.32655">
        <ele>331</ele>
        <time>2017-09-24T07:21:47Z</time>
      </trkpt>
      <trkpt lat="49.01957" lon="1.32626">
        <ele>331</ele>
        <time>2017-09-24T07:21:52Z</time>
      </trkpt>
      <trkpt lat="49.01939" lon="1.32595">
        <ele>332</ele>
        <time>2017-09-24T07:21:57Z</time>
      </trkpt>
      <trkpt lat="49.01921" lon="1.32565">
        <ele>332</ele>
        <time>2017-09-24T07:22:02Z</time>
      </trkpt>
      <trkpt lat="49.01903" lon="1.32534">
        <ele>332</ele>
        <time>2017-09-24T07:22:07Z</time>
      </trkpt>
      <trkpt lat="49.01884" lon="1.32503">
        <ele>332</ele>
        <time>2017-09-24T07:22:12Z</time>
      </trkpt>
      <trkpt lat="49.01865" lon="1.32472">
        <ele>332</ele>
        <time>2017-09-24T07:22:17Z</time>
      </trkpt>
      <trkpt lat="49.01847" lon="1.32442">
        <ele>332</ele>
        <time>2017-09-24T07:22:22Z</time>
      </trkpt>
      <trkpt lat="49.01829" lon="1.32413">
        <ele>332</ele>
        <time>2017-09-24T07:22:27Z</time>
      </trkpt>
      <trkpt lat="49.01811" lon="1.32384">
        <ele>332</ele>
        <time>2017-09-24T07:22:32Z</time>
      </trkpt>
      <trkpt lat="49.01794" lon="1.32357">
        <ele>333</ele>
        <time>2017-09-24T07:22:37Z</time>
      </trkpt>
      <trkpt lat="49.0179" lon="1.32332">
        <ele>333</ele>
        <time>2017-09-24T07:22:42Z</time>
      </trkpt>
      <trkpt lat="49.01791" lon="1.323">
        <ele>333</ele>
        <time>2017-09-24T07:22:47Z</time>
      </trkpt>
      <trkpt lat="49.01791" lon="1.32276">
        <ele>333</ele>
        <time>2017-09-24T07:22:52Z</time>
      </trkpt>
      <trkpt lat="49.01792" lon="1.32252">
        <ele>333</ele>
        <time>2017-09-24T07:22:57Z</time>
      </trkpt>
      <trkpt lat="49.01794" lon="1.32228">
        <ele>334</ele>
        <time>2017-09-24T07:23:02Z</time>
      </trkpt>
      <trkpt lat="49.01794" lon="1.32212">
        <ele>335</ele>
        <time>2017-09-24T07:23:07Z</time>
      </trkpt>
      <trkpt lat="49.01796" lon="1.32191">
        <ele>335</ele>
        <time>2017-09-24T07:23:12Z</time>
      </trkpt>
      <trkpt lat="49.01795" lon="1.32171">
        <ele>335</ele>
        <time>2017-09-24T07:23:17Z</time>
      </trkpt>
      <trkpt lat="49.01795" lon="1.3215">
        <ele>335</ele>
        <time>2017-09-24T07:23:22Z</time>
      </trkpt>
      <trkpt lat="49.01795" lon="1.32124">
        <ele>335</ele>
        <time>2017-09-24T07:23:27Z</time>
      </trkpt>
      <trkpt lat="49.01796" lon="1.32096">
        <ele>335</ele>
        <time>2017-09-24T07:23:32Z</time>
      </trkpt>
      <trkpt lat="49.01796" lon="1.32067">
        <ele>336</ele>
        <time>2017-09-24T07:23:37Z</time>
      </trkpt>
      <trkpt lat="49.01797" lon="1.3204">
        <ele>336</ele>
        <time>2017-09-24T07:23:42Z</time>
      </trkpt>
      <trkpt lat="49.01799" lon="1.32012">
        <ele>336</ele>
        <time>2017-09-24T07:23:47Z</time>
      </trkpt>
      <trkpt lat="49.018" lon="1.3198">
        <ele>336</ele>
        <time>2017-09-24T07:23:52Z</time>
      </trkpt>
      <trkpt lat="49.018" lon="1.31947">
        <ele>336</ele>
        <time>2017-09-24T07:23:57Z</time>
      </trkpt>
      <trkpt lat="49.01802" lon="1.31911">
        <ele>336</ele>
        <time>2017-09-24T07:24:02Z</time>
      </trkpt>
      <trkpt lat="49.01806" lon="1.31875">
        <ele>335</ele>
        <time>2017-09-24T07:24:07Z</time>
      </trkpt>
      <trkpt lat="49.01808" lon="1.31839">
        <ele>335</ele>
        <time>2017-09-24T07:24:12Z</time>
      </trkpt>
      <trkpt lat="49.0181" lon="1.31801">
        <ele>335</ele>
        <time>2017-09-24T07:24:17Z</time>
      </trkpt>
      <trkpt lat="49.01811" lon="1.31757">
        <ele>335</ele>
        <time>2017-09-24T07:24:22Z</time>
      </trkpt>
      <trkpt lat="49.01813" lon="1.31713">
        <ele>334</ele>
        <time>2017-09-24T07:24:27Z</time>
      </trkpt>
      <trkpt lat="49.01816" lon="1.31668">
        <ele>333</ele>
        <time>2017-09-24T07:24:32Z</time>
      </trkpt>
      <trkpt lat="49.01818" lon="1.31623">
        <ele>333</ele>
        <time>2017-09-24T07:24:37Z</time>
      </trkpt>
      <trkpt lat="49.01821" lon="1.31579">
        <ele>333</ele>
        <time>2017-09-24T07:24:42Z</time>
      </trkpt>
      <trkpt lat="49.01823" lon="1.31535">
        <ele>333</ele>
        <time>2017-09-24T07:24:47Z</time>
      </trkpt>
      <trkpt lat="49.01827" lon="1.31493">
        <ele>333</ele>
        <time>2017-09-24T07:24:52Z</time>
      </trkpt>
      <trkpt lat="49.01841" lon="1.31456">
        <ele>333</ele>
        <time>2017-09-24T07:24:57Z</time>
      </trkpt>
      <trkpt lat="49.01862" lon="1.31423">
        <ele>333</ele>
        <time>2017-09-24T07:25:02Z</time>
      </trkpt>
      <trkpt lat="49.01883" lon="1.31389">
        <ele>331</ele>
        <time>2017-09-24T07:25:07Z</time>
      </trkpt>
      <trkpt lat="49.01898" lon="1.31364">
        <ele>330</ele>
        <time>2017-09-24T07:25:12Z</time>
      </trkpt>
      <trkpt lat="49.01884" lon="1.31341">
        <ele>329</ele>
        <time>2017-09-24T07:25:17Z</time>
      </trkpt>
      <trkpt lat="49.0186" lon="1.31318">
        <ele>329</ele>
        <time>2017-09-24T07:25:22Z</time>
      </trkpt>
      <trkpt lat="49.0184" lon="1.3129">
        <ele>329</ele>
        <time>2017-09-24T07:25:27Z</time>
      </trkpt>
      <trkpt lat="49.01839" lon="1.31244">
        <ele>329</ele>
        <time>2017-09-24T07:25:32Z</time>
      </trkpt>
      <trkpt lat="49.01835" lon="1.31194">
        <ele>329</ele>
        <time>2017-09-24T07:25:37Z</time>
      </trkpt>
      <trkpt lat="49.01826" lon="1.31144">
        <ele>329</ele>
        <time>2017-09-24T07:25:42Z</time>
      </trkpt>
      <trkpt lat="49.01816" lon="1.31097">
        <ele>329</ele>
        <time>2017-09-24T07:25:47Z</time>
      </trkpt>
      <trkpt lat="49.01806" lon="1.31047">
        <ele>329</ele>
        <time>2017-09-24T07:25:52Z</time>
      </trkpt>
      <trkpt lat="49.01796" lon="1.30999">
        <ele>329</ele>
        <time>2017-09-24T07:25:57Z</time>
      </trkpt>
      <trkpt lat="49.01797" lon="1.30953">
        <ele>329</ele>
        <time>2017-09-24T07:26:02Z</time>
      </trkpt>
      <trkpt lat="49.01819" lon="1.30908">
        <ele>328</ele>
        <time>2017-09-24T07:26:07Z</time>
      </trkpt>
      <trkpt lat="49.01849" lon="1.30867">
        <ele>327</ele>
        <time>2017-09-24T07:26:12Z</time>
      </trkpt>
      <trkpt lat="49.01882" lon="1.30822">
        <ele>324</ele>
        <time>2017-09-24T07:26:17Z</time>
      </trkpt>
      <trkpt lat="49.01914" lon="1.30781">
        <ele>321</ele>
        <time>2017-09-24T07:26:22Z</time>
      </trkpt>
      <trkpt lat="49.0193" lon="1.30755">
        <ele>317</ele>
        <time>2017-09-24T07:26:27Z</time>
      </trkpt>
      <trkpt lat="49.0195" lon="1.30776">
        <ele>316</ele>
        <time>2017-09-24T07:26:32Z</time>
      </trkpt>
      <trkpt lat="49.01983" lon="1.30787">
        <ele>313</ele>
        <time>2017-09-24T07:26:37Z</time>
      </trkpt>
      <trkpt lat="49.02005" lon="1.30817">
        <ele>309</ele>
        <time>2017-09-24T07:26:42Z</time>
      </trkpt>
      <trkpt lat="49.02016" lon="1.30852">
        <ele>307</ele>
        <time>2017-09-24T07:26:47Z</time>
      </trkpt>
      <trkpt lat="49.0202" lon="1.30882">
        <ele>305</ele>
        <time>2017-09-24T07:26:52Z</time>
      </trkpt>
      <trkpt lat="49.02019" lon="1.30904">
        <ele>303</ele>
        <time>2017-09-24T07:26:57Z</time>
      </trkpt>
      <trkpt lat="49.02021" lon="1.30934">
        <ele>302</ele>
        <time>2017-09-24T07:27:02Z</time>
      </trkpt>
      <trkpt lat="49.02026" lon="1.30965">
        <ele>302</ele>
        <time>2017-09-24T07:27:07Z</time>
      </trkpt>
      <trkpt lat="49.0203" lon="1.30993">
        <ele>301</ele>
        <time>2017-09-24T07:27:12Z</time>
      </trkpt>
      <trkpt lat="49.02037" lon="1.31022">
        <ele>301</ele>
        <time>2017-09-24T07:27:17Z</time>
      </trkpt>
      <trkpt lat="49.02048" lon="1.31051">
        <ele>301</ele>
        <time>2017-09-24T07:27:22Z</time>
      </trkpt>
      <trkpt lat="49.02061" lon="1.31082">
        <ele>301</ele>
        <time>2017-09-24T07:27:27Z</time>
      </trkpt>
      <trkpt lat="49.02067" lon="1.31108">
        <ele>301</ele>
        <time>2017-09-24T07:27:32Z</time>
      </trkpt>
      <trkpt lat="49.02076" lon="1.31134">
        <ele>301</ele>
        <time>2017-09-24T07:27:37Z</time>
      </trkpt>
      <trkpt lat="49.0209" lon="1.31159">
        <ele>301</ele>
        <time>2017-09-24T07:27:42Z</time>
      </trkpt>
      <trkpt lat="49.02109" lon="1.31183">
        <ele>300</ele>
        <time>2017-09-24T07:27:47Z</time>
      </trkpt>
      <trkpt lat="49.02127" lon="1.31209">
        <ele>298</ele>
        <time>2017-09-24T07:27:52Z</time>
      </trkpt>
      <trkpt lat="49.0214" lon="1.31225">
        <ele>297</ele>
        <time>2017-09-24T07:27:57Z</time>
      </trkpt>
      <trkpt lat="49.02159" lon="1.31245">
        <ele>297</ele>
        <time>2017-09-24T07:28:02Z</time>
      </trkpt>
      <trkpt lat="49.02176" lon="1.31264">
        <ele>294</ele>
        <time>2017-09-24T07:28:07Z</time>
      </trkpt>
      <trkpt lat="49.02192" lon="1.31283">
        <ele>294</ele>
        <time>2017-09-24T07:28:12Z</time>
      </trkpt>
      <trkpt lat="49.0221" lon="1.31303">
        <ele>294</ele>
        <time>2017-09-24T07:28:17Z</time>
      </trkpt>
      <trkpt lat="49.02228" lon="1.31328">
        <ele>293</ele>
        <time>2017-09-24T07:28:22Z</time>
      </trkpt>
      <trkpt lat="49.02246" lon="1.31358">
        <ele>292</ele>
        <time>2017-09-24T07:28:27Z</time>
      </trkpt>
      <trkpt lat="49.02262" lon="1.31382">
        <ele>292</ele>
        <time>2017-09-24T07:28:32Z</time>
      </trkpt>
      <trkpt lat="49.02278" lon="1.31402">
        <ele>292</ele>
        <time>2017-09-24T07:28:37Z</time>
      </trkpt>
      <trkpt lat="49.02301" lon="1.31421">
        <ele>290</ele>
        <time>2017-09-24T07:28:42Z</time>
      </trkpt>
      <trkpt lat="49.02331" lon="1.3144">
        <ele>289</ele>
        <time>2017-09-24T07:28:47Z</time>
      </trkpt>
      <trkpt lat="49.02364" lon="1.3146">
        <ele>288</ele>
        <time>2017-09-24T07:28:52Z</time>
      </trkpt>
      <trkpt lat="49.02397" lon="1.31475">
        <ele>287</ele>
        <time>2017-09-24T07:28:57Z</time>
      </trkpt>
      <trkpt lat="49.02429" lon="1.31492">
        <ele>285</ele>
        <time>2017-09-24T07:29:02Z</time>
      </trkpt>
      <trkpt lat="49.02462" lon="1.31511">
        <ele>285</ele>
        <time>2017-09-24T07:29:07Z</time>
      </trkpt>
      <trkpt lat="49.02495" lon="1.31527">
        <ele>283</ele>
        <time>2017-09-24T07:29:12Z</time>
      </trkpt>
      <trkpt lat="49.02537" lon="1.31541">
        <ele>283</ele>
        <time>2017-09-24T07:29:17Z</time>
      </trkpt>
      <trkpt lat="49.02573" lon="1.31546">
        <ele>282</ele>
        <time>2017-09-24T07:29:22Z</time>
      </trkpt>
      <trkpt lat="49.02607" lon="1.31541">
        <ele>282</ele>
        <time>2017-09-24T07:29:27Z</time>
      </trkpt>
      <trkpt lat="49.02636" lon="1.3153">
        <ele>282</ele>
        <time>2017-09-24T07:29:32Z</time>
      </trkpt>
      <trkpt lat="49.02668" lon="1.31519">
        <ele>280</ele>
        <time>2017-09-24T07:29:37Z</time>
      </trkpt>
      <trkpt lat="49.027" lon="1.31512">
        <ele>280</ele>
        <time>2017-09-24T07:29:42Z</time>
      </trkpt>
      <trkpt lat="49.02737" lon="1.31505">
        <ele>280</ele>
        <time>2017-09-24T07:29:47Z</time>
      </trkpt>
      <trkpt lat="49.0278" lon="1.31508">
        <ele>278</ele>
        <time>2017-09-24T07:29:52Z</time>
      </trkpt>
      <trkpt lat="49.02822" lon="1.31508">
        <ele>276</ele>
        <time>2017-09-24T07:29:57Z</time>
      </trkpt>
      <trkpt lat="49.02861" lon="1.31514">
        <ele>275</ele>
        <time>2017-09-24T07:30:02Z</time>
      </trkpt>
      <trkpt lat="49.02892" lon="1.31534">
        <ele>274</ele>
        <time>2017-09-24T07:30:07Z</time>
      </trkpt>
      <trkpt lat="49.02919" lon="1.31553">
        <ele>274</ele>
        <time>2017-09-24T07:30:12Z</time>
      </trkpt>
      <trkpt lat="49.02949" lon="1.3158">
        <ele>273</ele>
        <time>2017-09-24T07:30:17Z</time>
      </trkpt>
      <trkpt lat="49.02973" lon="1.31613">
        <ele>273</ele>
        <time>2017-09-24T07:30:22Z</time>
      </trkpt>
      <trkpt lat="49.03005" lon="1.31648">
        <ele>273</ele>
        <time>2017-09-24T07:30:27Z</time>
      </trkpt>
      <trkpt lat="49.0303" lon="1.31675">
        <ele>272</ele>
        <time>2017-09-24T07:30:32Z</time>
      </trkpt>
      <trkpt lat="49.03051" lon="1.31719">
        <ele>272</ele>
        <time>2017-09-24T07:30:37Z</time>
      </trkpt>
      <trkpt lat="49.03073" lon="1.31774">
        <ele>272</ele>
        <time>2017-09-24T07:30:42Z</time>
      </trkpt>
      <trkpt lat="49.03088" lon="1.31835">
        <ele>271</ele>
        <time>2017-09-24T07:30:47Z</time>
      </trkpt>
      <trkpt lat="49.03096" lon="1.319">
        <ele>269</ele>
        <time>2017-09-24T07:30:52Z</time>
      </trkpt>
      <trkpt lat="49.03101" lon="1.31963">
        <ele>268</ele>
        <time>2017-09-24T07:30:57Z</time>
      </trkpt>
      <trkpt lat="49.03106" lon="1.32024">
        <ele>267</ele>
        <time>2017-09-24T07:31:02Z</time>
      </trkpt>
      <trkpt lat="49.03108" lon="1.32083">
        <ele>266</ele>
        <time>2017-09-24T07:31:07Z</time>
      </trkpt>
      <trkpt lat="49.03111" lon="1.32137">
        <ele>266</ele>
        <time>2017-09-24T07:31:12Z</time>
      </trkpt>
      <trkpt lat="49.03118" lon="1.32191">
        <ele>266</ele>
        <time>2017-09-24T07:31:17Z</time>
      </trkpt>
      <trkpt lat="49.03134" lon="1.32242">
        <ele>266</ele>
        <time>2017-09-24T07:31:22Z</time>
      </trkpt>
      <trkpt lat="49.03154" lon="1.32292">
        <ele>265</ele>
        <time>2017-09-24T07:31:27Z</time>
      </trkpt>
      <trkpt lat="49.03176" lon="1.32338">
        <ele>264</ele>
        <time>2017-09-24T07:31:32Z</time>
      </trkpt>
      <trkpt lat="49.03202" lon="1.32378">
        <ele>264</ele>
        <time>2017-09-24T07:31:37Z</time>
      </trkpt>
      <trkpt lat="49.03232" lon="1.32406">
        <ele>263</ele>
        <time>2017-09-24T07:31:42Z</time>
      </trkpt>
      <trkpt lat="49.03265" lon="1.32423">
        <ele>262</ele>
        <time>2017-09-24T07:31:47Z</time>
      </trkpt>
      <trkpt lat="49.03299" lon="1.32434">
        <ele>262</ele>
        <time>2017-09-24T07:31:52Z</time>
      </trkpt>
      <trkpt lat="49.03332" lon="1.32441">
        <ele>262</ele>
        <time>2017-09-24T07:31:57Z</time>
      </trkpt>
      <trkpt lat="49.03365" lon="1.32445">
        <ele>260</ele>
        <time>2017-09-24T07:32:02Z</time>
      </trkpt>
      <trkpt lat="49.03398" lon="1.32462">
        <ele>259</ele>
        <time>2017-09-24T07:32:07Z</time>
      </trkpt>
      <trkpt lat="49.03427" lon="1.32494">
        <ele>258</ele>
        <time>2017-09-24T07:32:12Z</time>
      </trkpt>
      <trkpt lat="49.03448" lon="1.32529">
        <ele>256</ele>
        <time>2017-09-24T07:32:17Z</time>
      </trkpt>
      <trkpt lat="49.03462" lon="1.32555">
        <ele>256</ele>
        <time>2017-09-24T07:32:22Z</time>
      </trkpt>
      <trkpt lat="49.03473" lon="1.32569">
        <ele>255</ele>
        <time>2017-09-24T07:32:27Z</time>
      </trkpt>
      <trkpt lat="49.03475" lon="1.32555">
        <ele>255</ele>
        <time>2017-09-24T07:32:32Z</time>
      </trkpt>
      <trkpt lat="49.0347" lon="1.32531">
        <ele>255</ele>
        <time>2017-09-24T07:32:37Z</time>
      </trkpt>
      <trkpt lat="49.03466" lon="1.32507">
        <ele>255</ele>
        <time>2017-09-24T07:32:42Z</time>
      </trkpt>
      <trkpt lat="49.03463" lon="1.32482">
        <ele>256</ele>
        <time>2017-09-24T07:32:47Z</time>
      </trkpt>
      <trkpt lat="49.03461" lon="1.32457">
        <ele>257</ele>
        <time>2017-09-24T07:32:52Z</time>
      </trkpt>
      <trkpt lat="49.03461" lon="1.32432">
        <ele>257</ele>
        <time>2017-09-24T07:32:57Z</time>
      </trkpt>
      <trkpt lat="49.03461" lon="1.32414">
        <ele>258</ele>
        <time>2017-09-24T07:33:02Z</time>
      </trkpt>
      <trkpt lat="49.03462" lon="1.324">
        <ele>259</ele>
        <time>2017-09-24T07:33:07Z</time>
      </trkpt>
      <trkpt lat="49.03463" lon="1.32386">
        <ele>260</ele>
        <time>2017-09-24T07:33:12Z</time>
      </trkpt>
      <trkpt lat="49.03465" lon="1.32371">
        <ele>261</ele>
        <time>2017-09-24T07:33:17Z</time>
      </trkpt>
      <trkpt lat="49.03465" lon="1.32358">
        <ele>262</ele>
        <time>2017-09-24T07:33:22Z</time>
      </trkpt>
      <trkpt lat="49.03464" lon="1.32344">
        <ele>264</ele>
        <time>2017-09-24T07:33:27Z</time>
      </trkpt>
      <trkpt lat="49.03463" lon="1.32331">
        <ele>264</ele>
        <time>2017-09-24T07:33:32Z</time>
      </trkpt>
      <trkpt lat="49.03461" lon="1.32317">
        <ele>265</ele>
        <time>2017-09-24T07:33:37Z</time>
      </trkpt>
      <trkpt lat="49.03459" lon="1.32304">
        <ele>266</ele>
        <time>2017-09-24T07:33:42Z</time>
      </trkpt>
      <trkpt lat="49.03459" lon="1.32291">
        <ele>268</ele>
        <time>2017-09-24T07:33:47Z</time>
      </trkpt>
      <trkpt lat="49.03458" lon="1.32278">
        <ele>268</ele>
        <time>2017-09-24T07:33:52Z</time>
      </trkpt>
      <trkpt lat="49.03458" lon="1.32265">
        <ele>269</ele>
        <time>2017-09-24T07:33:57Z</time>
      </trkpt>
      <trkpt lat="49.03458" lon="1.32251">
        <ele>269</ele>
        <time>2017-09-24T07:34:02Z</time>
      </trkpt>
      <trkpt lat="49.03457" lon="1.32239">
        <ele>271</ele>
        <time>2017-09-24T07:34:07Z</time>
      </trkpt>
      <trkpt lat="49.03458" lon="1.32226">
        <ele>272</ele>
        <time>2017-09-24T07:34:12Z</time>
      </trkpt>
      <trkpt lat="49.03458" lon="1.32214">
        <ele>273</ele>
        <time>2017-09-24T07:34:17Z</time>
      </trkpt>
      <trkpt lat="49.03459" lon="1.32202">
        <ele>274</ele>
        <time>2017-09-24T07:34:22Z</time>
      </trkpt>
      <trkpt lat="49.0346" lon="1.32189">
        <ele>275</ele>
        <time>2017-09-24T07:34:27Z</time>
      </trkpt>
      <trkpt lat="49.0346" lon="1.32176">
        <ele>275</ele>
        <time>2017-09-24T07:34:32Z</time>
      </trkpt>
      <trkpt lat="49.03459" lon="1.32163">
        <ele>277</ele>
        <time>2017-09-24T07:34:37Z</time>
      </trkpt>
      <trkpt lat="49.03458" lon="1.3215">
        <ele>278</ele>
        <time>2017-09-24T07:34:42Z</time>
      </trkpt>
      <trkpt lat="49.03458" lon="1.32137">
        <ele>279</ele>
        <time>2017-09-24T07:34:47Z</time>
      </trkpt>
      <trkpt lat="49.03458" lon="1.32123">
        <ele>280</ele>
        <time>2017-09-24T07:34:52Z</time>
      </trkpt>
      <trkpt lat="49.03457" lon="1.32112">
        <ele>281</ele>
        <time>2017-09-24T07:34:57Z</time>
      </trkpt>
      <trkpt lat="49.03456" lon="1.32099">
        <ele>282</ele>
        <time>2017-09-24T07:35:02Z</time>
      </trkpt>
      <trkpt lat="49.03455" lon="1.32085">
        <ele>283</ele>
        <time>2017-09-24T07:35:07Z</time>
      </trkpt>
      <trkpt lat="49.03454" lon="1.32072">
        <ele>284</ele>
        <time>2017-09-24T07:35:12Z</time>
      </trkpt>
      <trkpt lat="49.03452" lon="1.32059">
        <ele>285</ele>
        <time>2017-09-24T07:35:17Z</time>
      </trkpt>
      <trkpt lat="49.0345" lon="1.32048">
        <ele>287</ele>
        <time>2017-09-24T07:35:22Z</time>
      </trkpt>
      <trkpt lat="49.03448" lon="1.32036">
        <ele>288</ele>
        <time>2017-09-24T07:35:27Z</time>
      </trkpt>
      <trkpt lat="49.03445" lon="1.32023">
        <ele>289</ele>
        <time>2017-09-24T07:35:32Z</time>
      </trkpt>
      <trkpt lat="49.03443" lon="1.32011">
        <ele>290</ele>
        <time>2017-09-24T07:35:37Z</time>
      </trkpt>
      <trkpt lat="49.0344" lon="1.31998">
        <ele>291</ele>
        <time>2017-09-24T07:35:42Z</time>
      </trkpt>
      <trkpt lat="49.03437" lon="1.31986">
        <ele>292</ele>
        <time>2017-09-24T07:35:47Z</time>
      </trkpt>
      <trkpt lat="49.03434" lon="1.31975">
        <ele>293</ele>
        <time>2017-09-24T07:35:52Z</time>
      </trkpt>
      <trkpt lat="49.03429" lon="1.31966">
        <ele>294</ele>
        <time>2017-09-24T07:35:57Z</time>
      </trkpt>
      <trkpt lat="49.03423" lon="1.31957">
        <ele>296</ele>
        <time>2017-09-24T07:36:02Z</time>
      </trkpt>
      <trkpt lat="49.03416" lon="1.31949">
        <ele>297</ele>
        <time>2017-09-24T07:36:07Z</time>
      </trkpt>
      <trkpt lat="49.03409" lon="1.3194">
        <ele>298</ele>
        <time>2017-09-24T07:36:12Z</time>
      </trkpt>
      <trkpt lat="49.03403" lon="1.31931">
        <ele>299</ele>
        <time>2017-09-24T07:36:17Z</time>
      </trkpt>
      <trkpt lat="49.03396" lon="1.31922">
        <ele>300</ele>
        <time>2017-09-24T07:36:22Z</time>
      </trkpt>
      <trkpt lat="49.0339" lon="1.31912">
        <ele>301</ele>
        <time>2017-09-24T07:36:27Z</time>
      </trkpt>
      <trkpt lat="49.03383" lon="1.31903">
        <ele>302</ele>
        <time>2017-09-24T07:36:32Z</time>
      </trkpt>
      <trkpt lat="49.03377" lon="1.31894">
        <ele>303</ele>
        <time>2017-09-24T07:36:37Z</time>
      </trkpt>
      <trkpt lat="49.03371" lon="1.31883">
        <ele>304</ele>
        <time>2017-09-24T07:36:42Z</time>
      </trkpt>
      <trkpt lat="49.03365" lon="1.31872">
        <ele>304</ele>
        <time>2017-09-24T07:36:47Z</time>
      </trkpt>
      <trkpt lat="49.03359" lon="1.31862">
        <ele>305</ele>
        <time>2017-09-24T07:36:52Z</time>
      </trkpt>
      <trkpt lat="49.0335" lon="1.31854">
        <ele>306</ele>
        <time>2017-09-24T07:36:57Z</time>
      </trkpt>
      <trkpt lat="49.0334" lon="1.31846">
        <ele>306</ele>
        <time>2017-09-24T07:37:02Z</time>
      </trkpt>
      <trkpt lat="49.03333" lon="1.31832">
        <ele>307</ele>
        <time>2017-09-24T07:37:07Z</time>
      </trkpt>
      <trkpt lat="49.03326" lon="1.31815">
        <ele>307</ele>
        <time>2017-09-24T07:37:12Z</time>
      </trkpt>
      <trkpt lat="49.03318" lon="1.31796">
        <ele>308</ele>
        <time>2017-09-24T07:37:17Z</time>
      </trkpt>
      <trkpt lat="49.03308" lon="1.31774">
        <ele>308</ele>
        <time>2017-09-24T07:37:22Z</time>
      </trkpt>
      <trkpt lat="49.03297" lon="1.31746">
        <ele>308</ele>
        <time>2017-09-24T07:37:27Z</time>
      </trkpt>
      <trkpt lat="49.03288" lon="1.31716">
        <ele>308</ele>
        <time>2017-09-24T07:37:32Z</time>
      </trkpt>
      <trkpt lat="49.03283" lon="1.31689">
        <ele>308</ele>
        <time>2017-09-24T07:37:37Z</time>
      </trkpt>
      <trkpt lat="49.03273" lon="1.31662">
        <ele>309</ele>
        <time>2017-09-24T07:37:42Z</time>
      </trkpt>
      <trkpt lat="49.03264" lon="1.31636">
        <ele>309</ele>
        <time>2017-09-24T07:37:47Z</time>
      </trkpt>
      <trkpt lat="49.03255" lon="1.31608">
        <ele>309</ele>
        <time>2017-09-24T07:37:52Z</time>
      </trkpt>
      <trkpt lat="49.03247" lon="1.31583">
        <ele>310</ele>
        <time>2017-09-24T07:37:57Z</time>
      </trkpt>
      <trkpt lat="49.0324" lon="1.31557">
        <ele>310</ele>
        <time>2017-09-24T07:38:02Z</time>
      </trkpt>
      <trkpt lat="49.03231" lon="1.31535">
        <ele>310</ele>
        <time>2017-09-24T07:38:07Z</time>
      </trkpt>
      <trkpt lat="49.03218" lon="1.31511">
        <ele>310</ele>
        <time>2017-09-24T07:38:12Z</time>
      </trkpt>
      <trkpt lat="49.03205" lon="1.31486">
        <ele>312</ele>
        <time>2017-09-24T07:38:17Z</time>
      </trkpt>
      <trkpt lat="49.03192" lon="1.31462">
        <ele>312</ele>
        <time>2017-09-24T07:38:22Z</time>
      </trkpt>
      <trkpt lat="49.03176" lon="1.31436">
        <ele>312</ele>
        <time>2017-09-24T07:38:27Z</time>
      </trkpt>
      <trkpt lat="49.03158" lon="1.31407">
        <ele>313</ele>
        <time>2017-09-24T07:38:32Z</time>
      </trkpt>
      <trkpt lat="49.03141" lon="1.31384">
        <ele>314</ele>
        <time>2017-09-24T07:38:37Z</time>
      </trkpt>
      <trkpt lat="49.03127" lon="1.3136">
        <ele>316</ele>
        <time>2017-09-24T07:38:42Z</time>
      </trkpt>
      <trkpt lat="49.03115" lon="1.31341">
        <ele>317</ele>
        <time>2017-09-24T07:38:47Z</time>
      </trkpt>
      <trkpt lat="49.03103" lon="1.31323">
        <ele>318</ele>
        <time>2017-09-24T07:38:52Z</time>
      </trkpt>
      <trkpt lat="49.03092" lon="1.31305">
        <ele>318</ele>
        <time>2017-09-24T07:38:57Z</time>
      </trkpt>
      <trkpt lat="49.03081" lon="1.31284">
        <ele>319</ele>
        <time>2017-09-24T07:39:02Z</time>
      </trkpt>
      <trkpt lat="49.0307" lon="1.31268">
        <ele>320</ele>
        <time>2017-09-24T07:39:07Z</time>
      </trkpt>
      <trkpt lat="49.03061" lon="1.31251">
        <ele>320</ele>
        <time>2017-09-24T07:39:12Z</time>
      </trkpt>
      <trkpt lat="49.03054" lon="1.31233">
        <ele>320</ele>
        <time>2017-09-24T07:39:17Z</time>
      </trkpt>
      <trkpt lat="49.03047" lon="1.31217">
        <ele>320</ele>
        <time>2017-09-24T07:39:22Z</time>
      </trkpt>
      <trkpt lat="49.03036" lon="1.31194">
        <ele>322</ele>
        <time>2017-09-24T07:39:27Z</time>
      </trkpt>
      <trkpt lat="49.03021" lon="1.31171">
        <ele>323</ele>
        <time>2017-09-24T07:39:32Z</time>
      </trkpt>
      <trkpt lat="49.03012" lon="1.31149">
        <ele>324</ele>
        <time>2017-09-24T07:39:37Z</time>
      </trkpt>
      <trkpt lat="49.03002" lon="1.3113">
        <ele>325</ele>
        <time>2017-09-24T07:39:42Z</time>
      </trkpt>
      <trkpt lat="49.0299" lon="1.3111">
        <ele>325</ele>
        <time>2017-09-24T07:39:47Z</time>
      </trkpt>
      <trkpt lat="49.02979" lon="1.31091">
        <ele>326</ele>
        <time>2017-09-24T07:39:52Z</time>
      </trkpt>
      <trkpt lat="49.02969" lon="1.31074">
        <ele>327</ele>
        <time>2017-09-24T07:39:57Z</time>
      </trkpt>
      <trkpt lat="49.02959" lon="1.31054">
        <ele>328</ele>
        <time>2017-09-24T07:40:02Z</time>
      </trkpt>
      <trkpt lat="49.02953" lon="1.31031">
        <ele>328</ele>
        <time>2017-09-24T07:40:07Z</time>
      </trkpt>
      <trkpt lat="49.0295" lon="1.31008">
        <ele>328</ele>
        <time>2017-09-24T07:40:12Z</time>
      </trkpt>
      <trkpt lat="49.02947" lon="1.30984">
        <ele>329</ele>
        <time>2017-09-24T07:40:17Z</time>
      </trkpt>
      <trkpt lat="49.02946" lon="1.30963">
        <ele>329</ele>
        <time>2017-09-24T07:40:22Z</time>
      </trkpt>
      <trkpt lat="49.02944" lon="1.30942">
        <ele>329</ele>
        <time>2017-09-24T07:40:27Z</time>
      </trkpt>
      <trkpt lat="49.02942" lon="1.30922">
        <ele>330</ele>
        <time>2017-09-24T07:40:32Z</time>
      </trkpt>
      <trkpt lat="49.02939" lon="1.30903">
        <ele>330</ele>
        <time>2017-09-24T07:40:37Z</time>
      </trkpt>
      <trkpt lat="49.02934" lon="1.30892">
        <ele>330</ele>
        <time>2017-09-24T07:40:42Z</time>
      </trkpt>
      <trkpt lat="49.02924" lon="1.30879">
        <ele>330</ele>
        <time>2017-09-24T07:40:47Z</time>
      </trkpt>
      <trkpt lat="49.02911" lon="1.30858">
        <ele>331</ele>
        <time>2017-09-24T07:40:52Z</time>
      </trkpt>
      <trkpt lat="49.02913" lon="1.30833">
        <ele>331</ele>
        <time>2017-09-24T07:40:57Z</time>
      </trkpt>
      <trkpt lat="49.02921" lon="1.30806">
        <ele>331</ele>
        <time>2017-09-24T07:41:02Z</time>
      </trkpt>
      <trkpt lat="49.02932" lon="1.30777">
        <ele>331</ele>
        <time>2017-09-24T07:41:07Z</time>
      </trkpt>
      <trkpt lat="49.02945" lon="1.30744">
        <ele>331</ele>
        <time>2017-09-24T07:41:12Z</time>
      </trkpt>
      <trkpt lat="49.0296" lon="1.30708">
        <ele>331</ele>
        <time>2017-09-24T07:41:17Z</time>
      </trkpt>
      <trkpt lat="49.02974" lon="1.30675">
        <ele>331</ele>
        <time>2017-09-24T07:41:22Z</time>
      </trkpt>
      <trkpt lat="49.02989" lon="1.30641">
        <ele>330</ele>
        <time>2017-09-24T07:41:27Z</time>
      </trkpt>
      <trkpt lat="49.03004" lon="1.30606">
        <ele>330</ele>
        <time>2017-09-24T07:41:32Z</time>
      </trkpt>
      <trkpt lat="49.03028" lon="1.30569">
        <ele>329</ele>
        <time>2017-09-24T07:41:37Z</time>
      </trkpt>
      <trkpt lat="49.03055" lon="1.30536">
        <ele>329</ele>
        <time>2017-09-24T07:41:42Z</time>
      </trkpt>
      <trkpt lat="49.03083" lon="1.30504">
        <ele>329</ele>
        <time>2017-09-24T07:41:47Z</time>
      </trkpt>
      <trkpt lat="49.03109" lon="1.30469">
        <ele>327</ele>
        <time>2017-09-24T07:41:52Z</time>
      </trkpt>
      <trkpt lat="49.03137" lon="1.30437">
        <ele>326</ele>
        <time>2017-09-24T07:41:57Z</time>
      </trkpt>
      <trkpt lat="49.03159" lon="1.30399">
        <ele>324</ele>
        <time>2017-09-24T07:42:02Z</time>
      </trkpt>
      <trkpt lat="49.03164" lon="1.30356">
        <ele>323</ele>
        <time>2017-09-24T07:42:07Z</time>
      </trkpt>
      <trkpt lat="49.03167" lon="1.30311">
        <ele>323</ele>
        <time>2017-09-24T07:42:12Z</time>
      </trkpt>
      <trkpt lat="49.03173" lon="1.30267">
        <ele>323</ele>
        <time>2017-09-24T07:42:17Z</time>
      </trkpt>
      <trkpt lat="49.03177" lon="1.30224">
        <ele>323</ele>
        <time>2017-09-24T07:42:22Z</time>
      </trkpt>
      <trkpt lat="49.03177" lon="1.30183">
        <ele>324</ele>
        <time>2017-09-24T07:42:27Z</time>
      </trkpt>
      <trkpt lat="49.03183" lon="1.30143">
        <ele>325</ele>
        <time>2017-09-24T07:42:32Z</time>
      </trkpt>
      <trkpt lat="49.03194" lon="1.30109">
        <ele>325</ele>
        <time>2017-09-24T07:42:37Z</time>
      </trkpt>
      <trkpt lat="49.03207" lon="1.30077">
        <ele>326</ele>
        <time>2017-09-24T07:42:42Z</time>
      </trkpt>
      <trkpt lat="49.03218" lon="1.30043">
        <ele>326</ele>
        <time>2017-09-24T07:42:47Z</time>
      </trkpt>
      <trkpt lat="49.03229" lon="1.30029">
        <ele>326</ele>
        <time>2017-09-24T07:42:52Z</time>
      </trkpt>
      <trkpt lat="49.03241" lon="1.30037">
        <ele>326</ele>
        <time>2017-09-24T07:42:57Z</time>
      </trkpt>
      <trkpt lat="49.03254" lon="1.30059">
        <ele>324</ele>
        <time>2017-09-24T07:43:02Z</time>
      </trkpt>
      <trkpt lat="49.03269" lon="1.30087">
        <ele>322</ele>
        <time>2017-09-24T07:43:07Z</time>
      </trkpt>
      <trkpt lat="49.03288" lon="1.30125">
        <ele>322</ele>
        <time>2017-09-24T07:43:12Z</time>
      </trkpt>
      <trkpt lat="49.03311" lon="1.30163">
        <ele>320</ele>
        <time>2017-09-24T07:43:17Z</time>
      </trkpt>
      <trkpt lat="49.03333" lon="1.30194">
        <ele>318</ele>
        <time>2017-09-24T07:43:22Z</time>
      </trkpt>
      <trkpt lat="49.03349" lon="1.30221">
        <ele>315</ele>
        <time>2017-09-24T07:43:27Z</time>
      </trkpt>
      <trkpt lat="49.03365" lon="1.30255">
        <ele>313</ele>
        <time>2017-09-24T07:43:32Z</time>
      </trkpt>
      <trkpt lat="49.03381" lon="1.30296">
        <ele>309</ele>
        <time>2017-09-24T07:43:37Z</time>
      </trkpt>
      <trkpt lat="49.03384" lon="1.30347">
        <ele>307</ele>
        <time>2017-09-24T07:43:42Z</time>
      </trkpt>
      <trkpt lat="49.03399" lon="1.30394">
        <ele>305</ele>
        <time>2017-09-24T07:43:47Z</time>
      </trkpt>
      <trkpt lat="49.03413" lon="1.30433">
        <ele>301</ele>
        <time>2017-09-24T07:43:52Z</time>
      </trkpt>
      <trkpt lat="49.03431" lon="1.30466">
        <ele>296</ele>
        <time>2017-09-24T07:43:57Z</time>
      </trkpt>
      <trkpt lat="49.03446" lon="1.30499">
        <ele>293</ele>
        <time>2017-09-24T07:44:02Z</time>
      </trkpt>
      <trkpt lat="49.0346" lon="1.30528">
        <ele>287</ele>
        <time>2017-09-24T07:44:07Z</time>
      </trkpt>
      <trkpt lat="49.03479" lon="1.30562">
        <ele>285</ele>
        <time>2017-09-24T07:44:12Z</time>
      </trkpt>
      <trkpt lat="49.03492" lon="1.3061">
        <ele>283</ele>
        <time>2017-09-24T07:44:17Z</time>
      </trkpt>
      <trkpt lat="49.03511" lon="1.30642">
        <ele>280</ele>
        <time>2017-09-24T07:44:22Z</time>
      </trkpt>
      <trkpt lat="49.03535" lon="1.30685">
        <ele>279</ele>
        <time>2017-09-24T07:44:27Z</time>
      </trkpt>
      <trkpt lat="49.03562" lon="1.30729">
        <ele>277</ele>
        <time>2017-09-24T07:44:32Z</time>
      </trkpt>
      <trkpt lat="49.03592" lon="1.30772">
        <ele>275</ele>
        <time>2017-09-24T07:44:37Z</time>
      </trkpt>
      <trkpt lat="49.03622" lon="1.30815">
        <ele>275</ele>
        <time>2017-09-24T07:44:42Z</time>
      </trkpt>
      <trkpt lat="49.03652" lon="1.30857">
        <ele>274</ele>
        <time>2017-09-24T07:44:47Z</time>
      </trkpt>
      <trkpt lat="49.03681" lon="1.30897">
        <ele>272</ele>
        <time>2017-09-24T07:44:52Z</time>
      </trkpt>
      <trkpt lat="49.03709" lon="1.30935">
        <ele>271</ele>
        <time>2017-09-24T07:44:57Z</time>
      </trkpt>
      <trkpt lat="49.03736" lon="1.30968">
        <ele>270</ele>
        <time>2017-09-24T07:45:02Z</time>
      </trkpt>
      <trkpt lat="49.03756" lon="1.30985">
        <ele>268</ele>
        <time>2017-09-24T07:45:07Z</time>
      </trkpt>
      <trkpt lat="49.03763" lon="1.30969">
        <ele>268</ele>
        <time>2017-09-24T07:45:12Z</time>
      </trkpt>
      <trkpt lat="49.03761" lon="1.30941">
        <ele>268</ele>
        <time>2017-09-24T07:45:17Z</time>
      </trkpt>
      <trkpt lat="49.03754" lon="1.30908">
        <ele>268</ele>
        <time>2017-09-24T07:45:22Z</time>
      </trkpt>
      <trkpt lat="49.03747" lon="1.30876">
        <ele>269</ele>
        <time>2017-09-24T07:45:27Z</time>
      </trkpt>
      <trkpt lat="49.03738" lon="1.30836">
        <ele>269</ele>
        <time>2017-09-24T07:45:32Z</time>
      </trkpt>
      <trkpt lat="49.03734" lon="1.30789">
        <ele>270</ele>
        <time>2017-09-24T07:45:37Z</time>
      </trkpt>
      <trkpt lat="49.03735" lon="1.30742">
        <ele>270</ele>
        <time>2017-09-24T07:45:42Z</time>
      </trkpt>
      <trkpt lat="49.03738" lon="1.30697">
        <ele>270</ele>
        <time>2017-09-24T07:45:47Z</time>
      </trkpt>
      <trkpt lat="49.03743" lon="1.30655">
        <ele>270</ele>
        <time>2017-09-24T07:45:52Z</time>
      </trkpt>
      <trkpt lat="49.03762" lon="1.30624">
        <ele>270</ele>
        <time>2017-09-24T07:45:57Z</time>
      </trkpt>
      <trkpt lat="49.0378" lon="1.30585">
        <ele>270</ele>
        <time>2017-09-24T07:46:02Z</time>
      </trkpt>
      <trkpt lat="49.03802" lon="1.30547">
        <ele>270</ele>
        <time>2017-09-24T07:46:07Z</time>
      </trkpt>
      <trkpt lat="49.03824" lon="1.30515">
        <ele>270</ele>
        <time>2017-09-24T07:46:12Z</time>
      </trkpt>
      <trkpt lat="49.03844" lon="1.30485">
        <ele>270</ele>
        <time>2017-09-24T07:46:17Z</time>
      </trkpt>
      <trkpt lat="49.03856" lon="1.30448">
        <ele>270</ele>
        <time>2017-09-24T07:46:22Z</time>
      </trkpt>
      <trkpt lat="49.03858" lon="1.30408">
        <ele>270</ele>
        <time>2017-09-24T07:46:27Z</time>
      </trkpt>
      <trkpt lat="49.03863" lon="1.30368">
        <ele>270</ele>
        <time>2017-09-24T07:46:32Z</time>
      </trkpt>
      <trkpt lat="49.03881" lon="1.30334">
        <ele>270</ele>
        <time>2017-09-24T07:46:37Z</time>
      </trkpt>
      <trkpt lat="49.03905" lon="1.30311">
        <ele>270</ele>
        <time>2017-09-24T07:46:42Z</time>
      </trkpt>
      <trkpt lat="49.0393" lon="1.30298">
        <ele>269</ele>
        <time>2017-09-24T07:46:47Z</time>
      </trkpt>
      <trkpt lat="49.03951" lon="1.3028">
        <ele>269</ele>
        <time>2017-09-24T07:46:52Z</time>
      </trkpt>
      <trkpt lat="49.03966" lon="1.30262">
        <ele>268</ele>
        <time>2017-09-24T07:46:57Z</time>
      </trkpt>
      <trkpt lat="49.03982" lon="1.30235">
        <ele>268</ele>
        <time>2017-09-24T07:47:02Z</time>
      </trkpt>
      <trkpt lat="49.04004" lon="1.30203">
        <ele>268</ele>
        <time>2017-09-24T07:47:07Z</time>
      </trkpt>
      <trkpt lat="49.04027" lon="1.30174">
        <ele>267</ele>
        <time>2017-09-24T07:47:12Z</time>
      </trkpt>
      <trkpt lat="49.0405" lon="1.30145">
        <ele>267</ele>
        <time>2017-09-24T07:47:17Z</time>
      </trkpt>
      <trkpt lat="49.04072" lon="1.30116">
        <ele>268</ele>
        <time>2017-09-24T07:47:22Z</time>
      </trkpt>
      <trkpt lat="49.04095" lon="1.30085">
        <ele>268</ele>
        <time>2017-09-24T07:47:27Z</time>
      </trkpt>
      <trkpt lat="49.04119" lon="1.30053">
        <ele>268</ele>
        <time>2017-09-24T07:47:32Z</time>
      </trkpt>
      <trkpt lat="49.04143" lon="1.30019">
        <ele>268</ele>
        <time>2017-09-24T07:47:37Z</time>
      </trkpt>
      <trkpt lat="49.04166" lon="1.29987">
        <ele>268</ele>
        <time>2017-09-24T07:47:42Z</time>
      </trkpt>
      <trkpt lat="49.04188" lon="1.29953">
        <ele>268</ele>
        <time>2017-09-24T07:47:47Z</time>
      </trkpt>
      <trkpt lat="49.04212" lon="1.2992">
        <ele>268</ele>
        <time>2017-09-24T07:47:52Z</time>
      </trkpt>
      <trkpt lat="49.04235" lon="1.29885">
        <ele>268</ele>
        <time>2017-09-24T07:47:57Z</time>
      </trkpt>
      <trkpt lat="49.04259" lon="1.29852">
        <ele>268</ele>
        <time>2017-09-24T07:48:02Z</time>
      </trkpt>
      <trkpt lat="49.04284" lon="1.2982">
        <ele>268</ele>
        <time>2017-09-24T07:48:07Z</time>
      </trkpt>
      <trkpt lat="49.04307" lon="1.29788">
        <ele>268</ele>
        <time>2017-09-24T07:48:12Z</time>
      </trkpt>
      <trkpt lat="49.04331" lon="1.29757">
        <ele>268</ele>
        <time>2017-09-24T07:48:17Z</time>
      </trkpt>
      <trkpt lat="49.04354" lon="1.29725">
        <ele>268</ele>
        <time>2017-09-24T07:48:22Z</time>
      </trkpt>
      <trkpt lat="49.04384" lon="1.29702">
        <ele>268</ele>
        <time>2017-09-24T07:48:27Z</time>
      </trkpt>
      <trkpt lat="49.04412" lon="1.29685">
        <ele>268</ele>
        <time>2017-09-24T07:48:32Z</time>
      </trkpt>
      <trkpt lat="49.0442" lon="1.29644">
        <ele>266</ele>
        <time>2017-09-24T07:48:37Z</time>
      </trkpt>
      <trkpt lat="49.04421" lon="1.29599">
        <ele>266</ele>
        <time>2017-09-24T07:48:42Z</time>
      </trkpt>
      <trkpt lat="49.0441" lon="1.29558">
        <ele>266</ele>
        <time>2017-09-24T07:48:47Z</time>
      </trkpt>
      <trkpt lat="49.04397" lon="1.29526">
        <ele>266</ele>
        <time>2017-09-24T07:48:52Z</time>
      </trkpt>
      <trkpt lat="49.04384" lon="1.29494">
        <ele>267</ele>
        <time>2017-09-24T07:48:57Z</time>
      </trkpt>
      <trkpt lat="49.04371" lon="1.29462">
        <ele>268</ele>
        <time>2017-09-24T07:49:02Z</time>
      </trkpt>
      <trkpt lat="49.04358" lon="1.29431">
        <ele>269</ele>
        <time>2017-09-24T07:49:07Z</time>
      </trkpt>
      <trkpt lat="49.04346" lon="1.294">
        <ele>269</ele>
        <time>2017-09-24T07:49:12Z</time>
      </trkpt>
      <trkpt lat="49.04333" lon="1.29369">
        <ele>269</ele>
        <time>2017-09-24T07:49:17Z</time>
      </trkpt>
      <trkpt lat="49.04319" lon="1.29339">
        <ele>269</ele>
        <time>2017-09-24T07:49:22Z</time>
      </trkpt>
      <trkpt lat="49.04307" lon="1.29309">
        <ele>269</ele>
        <time>2017-09-24T07:49:27Z</time>
      </trkpt>
      <trkpt lat="49.04295" lon="1.29281">
        <ele>270</ele>
        <time>2017-09-24T07:49:32Z</time>
      </trkpt>
      <trkpt lat="49.04283" lon="1.29254">
        <ele>270</ele>
        <time>2017-09-24T07:49:37Z</time>
      </trkpt>
      <trkpt lat="49.04272" lon="1.29227">
        <ele>271</ele>
        <time>2017-09-24T07:49:42Z</time>
      </trkpt>
      <trkpt lat="49.04261" lon="1.29201">
        <ele>271</ele>
        <time>2017-09-24T07:49:47Z</time>
      </trkpt>
      <trkpt lat="49.04249" lon="1.29177">
        <ele>271</ele>
        <time>2017-09-24T07:49:52Z</time>
      </trkpt>
      <trkpt lat="49.04239" lon="1.29153">
        <ele>273</ele>
        <time>2017-09-24T07:49:57Z</time>
      </trkpt>
      <trkpt lat="49.04229" lon="1.29129">
        <ele>273</ele>
        <time>2017-09-24T07:50:02Z</time>
      </trkpt>
      <trkpt lat="49.04219" lon="1.29107">
        <ele>273</ele>
        <time>2017-09-24T07:50:07Z</time>
      </trkpt>
      <trkpt lat="49.04211" lon="1.29089">
        <ele>274</ele>
        <time>2017-09-24T07:50:12Z</time>
      </trkpt>
      <trkpt lat="49.04203" lon="1.29071">
        <ele>274</ele>
        <time>2017-09-24T07:50:17Z</time>
      </trkpt>
      <trkpt lat="49.04196" lon="1.29054">
        <ele>275</ele>
        <time>2017-09-24T07:50:22Z</time>
      </trkpt>
      <trkpt lat="49.04188" lon="1.29037">
        <ele>276</ele>
        <time>2017-09-24T07:50:27Z</time>
      </trkpt>
      <trkpt lat="49.04181" lon="1.29022">
        <ele>277</ele>
        <time>2017-09-24T07:50:32Z</time>
      </trkpt>
      <trkpt lat="49.04173" lon="1.29007">
        <ele>278</ele>
        <time>2017-09-24T07:50:37Z</time>
      </trkpt>
      <trkpt lat="49.04167" lon="1.28994">
        <ele>279</ele>
        <time>2017-09-24T07:50:42Z</time>
      </trkpt>
      <trkpt lat="49.0416" lon="1.28982">
        <ele>280</ele>
        <time>2017-09-24T07:50:47Z</time>
      </trkpt>
      <trkpt lat="49.04154" lon="1.28971">
        <ele>282</ele>
        <time>2017-09-24T07:50:52Z</time>
      </trkpt>
      <trkpt lat="49.04148" lon="1.28961">
        <ele>283</ele>
        <time>2017-09-24T07:50:57Z</time>
      </trkpt>
      <trkpt lat="49.04141" lon="1.28951">
        <ele>284</ele>
        <time>2017-09-24T07:51:02Z</time>
      </trkpt>
      <trkpt lat="49.04134" lon="1.2894">
        <ele>285</ele>
        <time>2017-09-24T07:51:07Z</time>
      </trkpt>
      <trkpt lat="49.04126" lon="1.28927">
        <ele>286</ele>
        <time>2017-09-24T07:51:12Z</time>
      </trkpt>
      <trkpt lat="49.04117" lon="1.28915">
        <ele>287</ele>
        <time>2017-09-24T07:51:17Z</time>
      </trkpt>
      <trkpt lat="49.04107" lon="1.28903">
        <ele>288</ele>
        <time>2017-09-24T07:51:22Z</time>
      </trkpt>
      <trkpt lat="49.04095" lon="1.28891">
        <ele>289</ele>
        <time>2017-09-24T07:51:27Z</time>
      </trkpt>
      <trkpt lat="49.04081" lon="1.28879">
        <ele>290</ele>
        <time>2017-09-24T07:51:32Z</time>
      </trkpt>
      <trkpt lat="49.04065" lon="1.28865">
        <ele>290</ele>
        <time>2017-09-24T07:51:37Z</time>
      </trkpt>
      <trkpt lat="49.04059" lon="1.28841">
        <ele>289</ele>
        <time>2017-09-24T07:51:42Z</time>
      </trkpt>
      <trkpt lat="49.04079" lon="1.28827">
        <ele>285</ele>
        <time>2017-09-24T07:51:47Z</time>
      </trkpt>
      <trkpt lat="49.04111" lon="1.28812">
        <ele>283</ele>
        <time>2017-09-24T07:51:52Z</time>
      </trkpt>
      <trkpt lat="49.04149" lon="1.28793">
        <ele>281</ele>
        <time>2017-09-24T07:51:57Z</time>
      </trkpt>
      <trkpt lat="49.04188" lon="1.28777">
        <ele>280</ele>
        <time>2017-09-24T07:52:02Z</time>
      </trkpt>
      <trkpt lat="49.04213" lon="1.28767">
        <ele>278</ele>
        <time>2017-09-24T07:52:07Z</time>
      </trkpt>
      <trkpt lat="49.04208" lon="1.28741">
        <ele>277</ele>
        <time>2017-09-24T07:52:12Z</time>
      </trkpt>
      <trkpt lat="49.04198" lon="1.28709">
        <ele>277</ele>
        <time>2017-09-24T07:52:17Z</time>
      </trkpt>
      <trkpt lat="49.04191" lon="1.28679">
        <ele>277</ele>
        <time>2017-09-24T07:52:22Z</time>
      </trkpt>
      <trkpt lat="49.04183" lon="1.28651">
        <ele>277</ele>
        <time>2017-09-24T07:52:27Z</time>
      </trkpt>
      <trkpt lat="49.04177" lon="1.28624">
        <ele>278</ele>
        <time>2017-09-24T07:52:32Z</time>
      </trkpt>
      <trkpt lat="49.04171" lon="1.28597">
        <ele>279</ele>
        <time>2017-09-24T07:52:37Z</time>
      </trkpt>
      <trkpt lat="49.04167" lon="1.28574">
        <ele>280</ele>
        <time>2017-09-24T07:52:42Z</time>
      </trkpt>
      <trkpt lat="49.04162" lon="1.28555">
        <ele>281</ele>
        <time>2017-09-24T07:52:47Z</time>
      </trkpt>
      <trkpt lat="49.04154" lon="1.28538">
        <ele>282</ele>
        <time>2017-09-24T07:52:52Z</time>
      </trkpt>
      <trkpt lat="49.04145" lon="1.28526">
        <ele>284</ele>
        <time>2017-09-24T07:52:57Z</time>
      </trkpt>
      <trkpt lat="49.04135" lon="1.28517">
        <ele>285</ele>
        <time>2017-09-24T07:53:02Z</time>
      </trkpt>
      <trkpt lat="49.04126" lon="1.28511">
        <ele>286</ele>
        <time>2017-09-24T07:53:07Z</time>
      </trkpt>
      <trkpt lat="49.04118" lon="1.28502">
        <ele>287</ele>
        <time>2017-09-24T07:53:12Z</time>
      </trkpt>
      <trkpt lat="49.0411" lon="1.28494">
        <ele>288</ele>
        <time>2017-09-24T07:53:17Z</time>
      </trkpt>
      <trkpt lat="49.04102" lon="1.28486">
        <ele>289</ele>
        <time>2017-09-24T07:53:22Z</time>
      </trkpt>
      <trkpt lat="49.04094" lon="1.28478">
        <ele>290</ele>
        <time>2017-09-24T07:53:27Z</time>
      </trkpt>
      <trkpt lat="49.04086" lon="1.28469">
        <ele>290</ele>
        <time>2017-09-24T07:53:32Z</time>
      </trkpt>
      <trkpt lat="49.04079" lon="1.28461">
        <ele>292</ele>
        <time>2017-09-24T07:53:37Z</time>
      </trkpt>
      <trkpt lat="49.04072" lon="1.28454">
        <ele>293</ele>
        <time>2017-09-24T07:53:42Z</time>
      </trkpt>
      <trkpt lat="49.04064" lon="1.28446">
        <ele>294</ele>
        <time>2017-09-24T07:53:47Z</time>
      </trkpt>
      <trkpt lat="49.04057" lon="1.28439">
        <ele>296</ele>
        <time>2017-09-24T07:53:52Z</time>
      </trkpt>
      <trkpt lat="49.04049" lon="1.28433">
        <ele>298</ele>
        <time>2017-09-24T07:53:57Z</time>
      </trkpt>
      <trkpt lat="49.0404" lon="1.28427">
        <ele>299</ele>
        <time>2017-09-24T07:54:02Z</time>
      </trkpt>
      <trkpt lat="49.04032" lon="1.28421">
        <ele>300</ele>
        <time>2017-09-24T07:54:07Z</time>
      </trkpt>
      <trkpt lat="49.04024" lon="1.28414">
        <ele>301</ele>
        <time>2017-09-24T07:54:12Z</time>
      </trkpt>
      <trkpt lat="49.04016" lon="1.28409">
        <ele>303</ele>
        <time>2017-09-24T07:54:17Z</time>
      </trkpt>
      <trkpt lat="49.0401" lon="1.284">
        <ele>304</ele>
        <time>2017-09-24T07:54:22Z</time>
      </trkpt>
      <trkpt lat="49.04013" lon="1.28388">
        <ele>304</ele>
        <time>2017-09-24T07:54:27Z</time>
      </trkpt>
      <trkpt lat="49.04024" lon="1.28373">
        <ele>304</ele>
        <time>2017-09-24T07:54:32Z</time>
      </trkpt>
      <trkpt lat="49.04039" lon="1.28354">
        <ele>304</ele>
        <time>2017-09-24T07:54:37Z</time>
      </trkpt>
      <trkpt lat="49.04058" lon="1.28329">
        <ele>303</ele>
        <time>2017-09-24T07:54:42Z</time>
      </trkpt>
      <trkpt lat="49.04087" lon="1.28299">
        <ele>301</ele>
        <time>2017-09-24T07:54:47Z</time>
      </trkpt>
      <trkpt lat="49.04109" lon="1.28281">
        <ele>301</ele>
        <time>2017-09-24T07:54:52Z</time>
      </trkpt>
      <trkpt lat="49.04123" lon="1.28268">
        <ele>301</ele>
        <time>2017-09-24T07:54:57Z</time>
      </trkpt>
      <trkpt lat="49.04136" lon="1.28256">
        <ele>302</ele>
        <time>2017-09-24T07:55:02Z</time>
      </trkpt>
      <trkpt lat="49.04146" lon="1.28236">
        <ele>303</ele>
        <time>2017-09-24T07:55:07Z</time>
      </trkpt>
      <trkpt lat="49.04145" lon="1.28215">
        <ele>304</ele>
        <time>2017-09-24T07:55:12Z</time>
      </trkpt>
      <trkpt lat="49.04144" lon="1.28196">
        <ele>305</ele>
        <time>2017-09-24T07:55:17Z</time>
      </trkpt>
      <trkpt lat="49.04139" lon="1.28176">
        <ele>306</ele>
        <time>2017-09-24T07:55:22Z</time>
      </trkpt>
      <trkpt lat="49.04135" lon="1.28156">
        <ele>307</ele>
        <time>2017-09-24T07:55:27Z</time>
      </trkpt>
      <trkpt lat="49.0413" lon="1.28136">
        <ele>308</ele>
        <time>2017-09-24T07:55:32Z</time>
      </trkpt>
      <trkpt lat="49.04124" lon="1.28116">
        <ele>309</ele>
        <time>2017-09-24T07:55:37Z</time>
      </trkpt>
      <trkpt lat="49.04119" lon="1.28097">
        <ele>310</ele>
        <time>2017-09-24T07:55:42Z</time>
      </trkpt>
      <trkpt lat="49.04114" lon="1.28076">
        <ele>311</ele>
        <time>2017-09-24T07:55:47Z</time>
      </trkpt>
      <trkpt lat="49.04109" lon="1.28056">
        <ele>312</ele>
        <time>2017-09-24T07:55:52Z</time>
      </trkpt>
      <trkpt lat="49.04103" lon="1.28036">
        <ele>313</ele>
        <time>2017-09-24T07:55:57Z</time>
      </trkpt>
      <trkpt lat="49.04098" lon="1.28014">
        <ele>314</ele>
        <time>2017-09-24T07:56:02Z</time>
      </trkpt>
      <trkpt lat="49.04092" lon="1.27991">
        <ele>315</ele>
        <time>2017-09-24T07:56:07Z</time>
      </trkpt>
      <trkpt lat="49.04087" lon="1.27967">
        <ele>315</ele>
        <time>2017-09-24T07:56:12Z</time>
      </trkpt>
      <trkpt lat="49.0408" lon="1.27941">
        <ele>316</ele>
        <time>2017-09-24T07:56:17Z</time>
      </trkpt>
      <trkpt lat="49.04073" lon="1.27916">
        <ele>317</ele>
        <time>2017-09-24T07:56:22Z</time>
      </trkpt>
      <trkpt lat="49.04066" lon="1.27892">
        <ele>317</ele>
        <time>2017-09-24T07:56:27Z</time>
      </trkpt>
      <trkpt lat="49.04058" lon="1.27866">
        <ele>318</ele>
        <time>2017-09-24T07:56:32Z</time>
      </trkpt>
      <trkpt lat="49.04049" lon="1.27837">
        <ele>319</ele>
        <time>2017-09-24T07:56:37Z</time>
      </trkpt>
      <trkpt lat="49.04042" lon="1.27809">
        <ele>320</ele>
        <time>2017-09-24T07:56:42Z</time>
      </trkpt>
      <trkpt lat="49.04033" lon="1.27779">
        <ele>320</ele>
        <time>2017-09-24T07:56:47Z</time>
      </trkpt>
      <trkpt lat="49.04023" lon="1.27751">
        <ele>321</ele>
        <time>2017-09-24T07:56:52Z</time>
      </trkpt>
      <trkpt lat="49.04014" lon="1.27721">
        <ele>321</ele>
        <time>2017-09-24T07:56:57Z</time>
      </trkpt>
      <trkpt lat="49.04006" lon="1.2769">
        <ele>322</ele>
        <time>2017-09-24T07:57:02Z</time>
      </trkpt>
      <trkpt lat="49.03994" lon="1.27651">
        <ele>322</ele>
        <time>2017-09-24T07:57:07Z</time>
      </trkpt>
      <trkpt lat="49.0398" lon="1.2761">
        <ele>322</ele>
        <time>2017-09-24T07:57:12Z</time>
      </trkpt>
      <trkpt lat="49.0397" lon="1.2759">
        <ele>321</ele>
        <time>2017-09-24T07:57:17Z</time>
      </trkpt>
      <trkpt lat="49.0398" lon="1.27572">
        <ele>320</ele>
        <time>2017-09-24T07:57:22Z</time>
      </trkpt>
      <trkpt lat="49.04003" lon="1.2756">
        <ele>318</ele>
        <time>2017-09-24T07:57:27Z</time>
      </trkpt>
      <trkpt lat="49.04028" lon="1.27553">
        <ele>317</ele>
        <time>2017-09-24T07:57:32Z</time>
      </trkpt>
      <trkpt lat="49.04052" lon="1.27544">
        <ele>317</ele>
        <time>2017-09-24T07:57:37Z</time>
      </trkpt>
      <trkpt lat="49.04074" lon="1.27536">
        <ele>317</ele>
        <time>2017-09-24T07:57:42Z</time>
      </trkpt>
      <trkpt lat="49.04098" lon="1.27525">
        <ele>317</ele>
        <time>2017-09-24T07:57:47Z</time>
      </trkpt>
      <trkpt lat="49.04122" lon="1.27516">
        <ele>317</ele>
        <time>2017-09-24T07:57:52Z</time>
      </trkpt>
      <trkpt lat="49.04146" lon="1.27506">
        <ele>317</ele>
        <time>2017-09-24T07:57:57Z</time>
      </trkpt>
      <trkpt lat="49.04169" lon="1.27498">
        <ele>318</ele>
        <time>2017-09-24T07:58:02Z</time>
      </trkpt>
      <trkpt lat="49.04195" lon="1.27483">
        <ele>318</ele>
        <time>2017-09-24T07:58:07Z</time>
      </trkpt>
      <trkpt lat="49.0422" lon="1.27468">
        <ele>316</ele>
        <time>2017-09-24T07:58:12Z</time>
      </trkpt>
      <trkpt lat="49.04229" lon="1.2746">
        <ele>312</ele>
        <time>2017-09-24T07:58:17Z</time>
      </trkpt>
      <trkpt lat="49.04236" lon="1.27462">
        <ele>311</ele>
        <time>2017-09-24T07:58:22Z</time>
      </trkpt>
      <trkpt lat="49.04253" lon="1.27464">
        <ele>311</ele>
        <time>2017-09-24T07:58:27Z</time>
      </trkpt>
      <trkpt lat="49.0427" lon="1.27478">
        <ele>309</ele>
        <time>2017-09-24T07:58:32Z</time>
      </trkpt>
      <trkpt lat="49.04287" lon="1.27485">
        <ele>308</ele>
        <time>2017-09-24T07:58:37Z</time>
      </trkpt>
      <trkpt lat="49.04304" lon="1.27478">
        <ele>306</ele>
        <time>2017-09-24T07:58:42Z</time>
      </trkpt>
      <trkpt lat="49.04321" lon="1.27462">
        <ele>301</ele>
        <time>2017-09-24T07:58:47Z</time>
      </trkpt>
      <trkpt lat="49.04338" lon="1.27459">
        <ele>297</ele>
        <time>2017-09-24T07:58:52Z</time>
      </trkpt>
      <trkpt lat="49.04353" lon="1.27464">
        <ele>295</ele>
        <time>2017-09-24T07:58:57Z</time>
      </trkpt>
      <trkpt lat="49.04373" lon="1.2747">
        <ele>295</ele>
        <time>2017-09-24T07:59:02Z</time>
      </trkpt>
      <trkpt lat="49.0439" lon="1.27483">
        <ele>293</ele>
        <time>2017-09-24T07:59:07Z</time>
      </trkpt>
      <trkpt lat="49.0441" lon="1.27487">
        <ele>293</ele>
        <time>2017-09-24T07:59:12Z</time>
      </trkpt>
      <trkpt lat="49.04429" lon="1.27499">
        <ele>293</ele>
        <time>2017-09-24T07:59:17Z</time>
      </trkpt>
      <trkpt lat="49.04446" lon="1.275">
        <ele>293</ele>
        <time>2017-09-24T07:59:22Z</time>
      </trkpt>
      <trkpt lat="49.04466" lon="1.27493">
        <ele>291</ele>
        <time>2017-09-24T07:59:27Z</time>
      </trkpt>
      <trkpt lat="49.04483" lon="1.27468">
        <ele>288</ele>
        <time>2017-09-24T07:59:32Z</time>
      </trkpt>
      <trkpt lat="49.04501" lon="1.27441">
        <ele>284</ele>
        <time>2017-09-24T07:59:37Z</time>
      </trkpt>
      <trkpt lat="49.04525" lon="1.27414">
        <ele>278</ele>
        <time>2017-09-24T07:59:42Z</time>
      </trkpt>
      <trkpt lat="49.04549" lon="1.2741">
        <ele>275</ele>
        <time>2017-09-24T07:59:47Z</time>
      </trkpt>
      <trkpt lat="49.04574" lon="1.27418">
        <ele>273</ele>
        <time>2017-09-24T07:59:52Z</time>
      </trkpt>
      <trkpt lat="49.04602" lon="1.27428">
        <ele>273</ele>
        <time>2017-09-24T07:59:57Z</time>
      </trkpt>
      <trkpt lat="49.04629" lon="1.2744">
        <ele>272</ele>
        <time>2017-09-24T08:00:02Z</time>
      </trkpt>
      <trkpt lat="49.04652" lon="1.2745">
        <ele>272</ele>
        <time>2017-09-24T08:00:07Z</time>
      </trkpt>
      <trkpt lat="49.04662" lon="1.27454">
        <ele>271</ele>
        <time>2017-09-24T08:00:12Z</time>
      </trkpt>
      <trkpt lat="49.04667" lon="1.27454">
        <ele>271</ele>
        <time>2017-09-24T08:00:17Z</time>
      </trkpt>
      <trkpt lat="49.04668" lon="1.27454">
        <ele>271</ele>
        <time>2017-09-24T08:00:20Z</time>
      </trkpt>
      <trkpt lat="49.04694" lon="1.27479">
        <ele>270</ele>
        <time>2017-09-24T08:05:40Z</time>
      </trkpt>
      <trkpt lat="49.04723" lon="1.27496">
        <ele>270</ele>
        <time>2017-09-24T08:05:45Z</time>
      </trkpt>
      <trkpt lat="49.04757" lon="1.27502">
        <ele>270</ele>
        <time>2017-09-24T08:05:50Z</time>
      </trkpt>
      <trkpt lat="49.04784" lon="1.27526">
        <ele>268</ele>
        <time>2017-09-24T08:05:55Z</time>
      </trkpt>
      <trkpt lat="49.04812" lon="1.27553">
        <ele>267</ele>
        <time>2017-09-24T08:06:00Z</time>
      </trkpt>
      <trkpt lat="49.04845" lon="1.27549">
        <ele>266</ele>
        <time>2017-09-24T08:06:05Z</time>
      </trkpt>
      <trkpt lat="49.04868" lon="1.2753">
        <ele>266</ele>
        <time>2017-09-24T08:06:10Z</time>
      </trkpt>
      <trkpt lat="49.04872" lon="1.27508">
        <ele>266</ele>
        <time>2017-09-24T08:06:15Z</time>
      </trkpt>
      <trkpt lat="49.04867" lon="1.27474">
        <ele>266</ele>
        <time>2017-09-24T08:06:20Z</time>
      </trkpt>
      <trkpt lat="49.04859" lon="1.27439">
        <ele>266</ele>
        <time>2017-09-24T08:06:25Z</time>
      </trkpt>
      <trkpt lat="49.04848" lon="1.27406">
        <ele>267</ele>
        <time>2017-09-24T08:06:30Z</time>
      </trkpt>
      <trkpt lat="49.04839" lon="1.27377">
        <ele>268</ele>
        <time>2017-09-24T08:06:35Z</time>
      </trkpt>
      <trkpt lat="49.04832" lon="1.27352">
        <ele>268</ele>
        <time>2017-09-24T08:06:40Z</time>
      </trkpt>
      <trkpt lat="49.04828" lon="1.27331">
        <ele>270</ele>
        <time>2017-09-24T08:06:45Z</time>
      </trkpt>
      <trkpt lat="49.04826" lon="1.27314">
        <ele>271</ele>
        <time>2017-09-24T08:06:50Z</time>
      </trkpt>
      <trkpt lat="49.04822" lon="1.27297">
        <ele>271</ele>
        <time>2017-09-24T08:06:55Z</time>
      </trkpt>
      <trkpt lat="49.0482" lon="1.2728">
        <ele>272</ele>
        <time>2017-09-24T08:07:00Z</time>
      </trkpt>
      <trkpt lat="49.04818" lon="1.27262">
        <ele>274</ele>
        <time>2017-09-24T08:07:05Z</time>
      </trkpt>
      <trkpt lat="49.04817" lon="1.27243">
        <ele>274</ele>
        <time>2017-09-24T08:07:10Z</time>
      </trkpt>
      <trkpt lat="49.04816" lon="1.27224">
        <ele>275</ele>
        <time>2017-09-24T08:07:15Z</time>
      </trkpt>
      <trkpt lat="49.04817" lon="1.27206">
        <ele>276</ele>
        <time>2017-09-24T08:07:20Z</time>
      </trkpt>
      <trkpt lat="49.04818" lon="1.27189">
        <ele>277</ele>
        <time>2017-09-24T08:07:25Z</time>
      </trkpt>
      <trkpt lat="49.04819" lon="1.27173">
        <ele>278</ele>
        <time>2017-09-24T08:07:30Z</time>
      </trkpt>
      <trkpt lat="49.04819" lon="1.27158">
        <ele>279</ele>
        <time>2017-09-24T08:07:35Z</time>
      </trkpt>
      <trkpt lat="49.04819" lon="1.27144">
        <ele>279</ele>
        <time>2017-09-24T08:07:40Z</time>
      </trkpt>
      <trkpt lat="49.04818" lon="1.2713">
        <ele>280</ele>
        <time>2017-09-24T08:07:45Z</time>
      </trkpt>
      <trkpt lat="49.04817" lon="1.27116">
        <ele>281</ele>
        <time>2017-09-24T08:07:50Z</time>
      </trkpt>
      <trkpt lat="49.04815" lon="1.27102">
        <ele>281</ele>
        <time>2017-09-24T08:07:55Z</time>
      </trkpt>
      <trkpt lat="49.04814" lon="1.27088">
        <ele>282</ele>
        <time>2017-09-24T08:08:00Z</time>
      </trkpt>
      <trkpt lat="49.04813" lon="1.27075">
        <ele>283</ele>
        <time>2017-09-24T08:08:05Z</time>
      </trkpt>
      <trkpt lat="49.04811" lon="1.27062">
        <ele>284</ele>
        <time>2017-09-24T08:08:10Z</time>
      </trkpt>
      <trkpt lat="49.0481" lon="1.27049">
        <ele>285</ele>
        <time>2017-09-24T08:08:15Z</time>
      </trkpt>
      <trkpt lat="49.04809" lon="1.27036">
        <ele>286</ele>
        <time>2017-09-24T08:08:20Z</time>
      </trkpt>
      <trkpt lat="49.04807" lon="1.27024">
        <ele>287</ele>
        <time>2017-09-24T08:08:25Z</time>
      </trkpt>
      <trkpt lat="49.04807" lon="1.27011">
        <ele>288</ele>
        <time>2017-09-24T08:08:30Z</time>
      </trkpt>
      <trkpt lat="49.04805" lon="1.26999">
        <ele>290</ele>
        <time>2017-09-24T08:08:35Z</time>
      </trkpt>
      <trkpt lat="49.04804" lon="1.26987">
        <ele>291</ele>
        <time>2017-09-24T08:08:40Z</time>
      </trkpt>
      <trkpt lat="49.04801" lon="1.26975">
        <ele>292</ele>
        <time>2017-09-24T08:08:45Z</time>
      </trkpt>
      <trkpt lat="49.048" lon="1.26962">
        <ele>293</ele>
        <time>2017-09-24T08:08:50Z</time>
      </trkpt>
      <trkpt lat="49.04798" lon="1.2695">
        <ele>294</ele>
        <time>2017-09-24T08:08:55Z</time>
      </trkpt>
      <trkpt lat="49.04797" lon="1.26938">
        <ele>296</ele>
        <time>2017-09-24T08:09:00Z</time>
      </trkpt>
      <trkpt lat="49.04795" lon="1.26926">
        <ele>297</ele>
        <time>2017-09-24T08:09:05Z</time>
      </trkpt>
      <trkpt lat="49.04794" lon="1.26913">
        <ele>298</ele>
        <time>2017-09-24T08:09:10Z</time>
      </trkpt>
      <trkpt lat="49.04793" lon="1.26901">
        <ele>299</ele>
        <time>2017-09-24T08:09:15Z</time>
      </trkpt>
      <trkpt lat="49.04791" lon="1.26888">
        <ele>300</ele>
        <time>2017-09-24T08:09:20Z</time>
      </trkpt>
      <trkpt lat="49.0479" lon="1.26876">
        <ele>301</ele>
        <time>2017-09-24T08:09:25Z</time>
      </trkpt>
      <trkpt lat="49.04789" lon="1.26863">
        <ele>302</ele>
        <time>2017-09-24T08:09:30Z</time>
      </trkpt>
      <trkpt lat="49.04788" lon="1.2685">
        <ele>303</ele>
        <time>2017-09-24T08:09:35Z</time>
      </trkpt>
      <trkpt lat="49.04787" lon="1.26838">
        <ele>304</ele>
        <time>2017-09-24T08:09:40Z</time>
      </trkpt>
      <trkpt lat="49.04785" lon="1.26825">
        <ele>305</ele>
        <time>2017-09-24T08:09:45Z</time>
      </trkpt>
      <trkpt lat="49.04784" lon="1.26812">
        <ele>306</ele>
        <time>2017-09-24T08:09:50Z</time>
      </trkpt>
      <trkpt lat="49.04783" lon="1.26798">
        <ele>307</ele>
        <time>2017-09-24T08:09:55Z</time>
      </trkpt>
      <trkpt lat="49.04783" lon="1.26785">
        <ele>308</ele>
        <time>2017-09-24T08:10:00Z</time>
      </trkpt>
      <trkpt lat="49.04781" lon="1.26771">
        <ele>308</ele>
        <time>2017-09-24T08:10:05Z</time>
      </trkpt>
      <trkpt lat="49.04778" lon="1.26756">
        <ele>309</ele>
        <time>2017-09-24T08:10:10Z</time>
      </trkpt>
      <trkpt lat="49.04776" lon="1.26741">
        <ele>310</ele>
        <time>2017-09-24T08:10:15Z</time>
      </trkpt>
      <trkpt lat="49.04773" lon="1.26727">
        <ele>310</ele>
        <time>2017-09-24T08:10:20Z</time>
      </trkpt>
      <trkpt lat="49.04771" lon="1.26711">
        <ele>311</ele>
        <time>2017-09-24T08:10:25Z</time>
      </trkpt>
      <trkpt lat="49.04769" lon="1.26695">
        <ele>312</ele>
        <time>2017-09-24T08:10:30Z</time>
      </trkpt>
      <trkpt lat="49.04766" lon="1.2668">
        <ele>312</ele>
        <time>2017-09-24T08:10:35Z</time>
      </trkpt>
      <trkpt lat="49.04765" lon="1.26664">
        <ele>313</ele>
        <time>2017-09-24T08:10:40Z</time>
      </trkpt>
      <trkpt lat="49.04763" lon="1.26648">
        <ele>313</ele>
        <time>2017-09-24T08:10:45Z</time>
      </trkpt>
      <trkpt lat="49.04761" lon="1.26632">
        <ele>314</ele>
        <time>2017-09-24T08:10:50Z</time>
      </trkpt>
      <trkpt lat="49.04759" lon="1.26614">
        <ele>315</ele>
        <time>2017-09-24T08:10:55Z</time>
      </trkpt>
      <trkpt lat="49.04757" lon="1.26596">
        <ele>315</ele>
        <time>2017-09-24T08:11:00Z</time>
      </trkpt>
      <trkpt lat="49.04756" lon="1.26578">
        <ele>316</ele>
        <time>2017-09-24T08:11:05Z</time>
      </trkpt>
      <trkpt lat="49.04756" lon="1.26559">
        <ele>316</ele>
        <time>2017-09-24T08:11:10Z</time>
      </trkpt>
      <trkpt lat="49.04755" lon="1.26541">
        <ele>317</ele>
        <time>2017-09-24T08:11:15Z</time>
      </trkpt>
      <trkpt lat="49.04755" lon="1.26522">
        <ele>317</ele>
        <time>2017-09-24T08:11:20Z</time>
      </trkpt>
      <trkpt lat="49.04756" lon="1.26504">
        <ele>318</ele>
        <time>2017-09-24T08:11:25Z</time>
      </trkpt>
      <trkpt lat="49.04756" lon="1.26485">
        <ele>318</ele>
        <time>2017-09-24T08:11:30Z</time>
      </trkpt>
      <trkpt lat="49.04757" lon="1.26463">
        <ele>319</ele>
        <time>2017-09-24T08:11:35Z</time>
      </trkpt>
      <trkpt lat="49.04757" lon="1.26442">
        <ele>319</ele>
        <time>2017-09-24T08:11:40Z</time>
      </trkpt>
      <trkpt lat="49.04759" lon="1.26419">
        <ele>320</ele>
        <time>2017-09-24T08:11:45Z</time>
      </trkpt>
      <trkpt lat="49.04762" lon="1.26395">
        <ele>322</ele>
        <time>2017-09-24T08:11:50Z</time>
      </trkpt>
      <trkpt lat="49.04766" lon="1.26371">
        <ele>322</ele>
        <time>2017-09-24T08:11:55Z</time>
      </trkpt>
      <trkpt lat="49.04769" lon="1.26348">
        <ele>323</ele>
        <time>2017-09-24T08:12:00Z</time>
      </trkpt>
      <trkpt lat="49.04774" lon="1.26324">
        <ele>323</ele>
        <time>2017-09-24T08:12:05Z</time>
      </trkpt>
      <trkpt lat="49.04779" lon="1.26301">
        <ele>324</ele>
        <time>2017-09-24T08:12:10Z</time>
      </trkpt>
      <trkpt lat="49.04785" lon="1.26278">
        <ele>324</ele>
        <time>2017-09-24T08:12:15Z</time>
      </trkpt>
      <trkpt lat="49.0479" lon="1.26255">
        <ele>325</ele>
        <time>2017-09-24T08:12:20Z</time>
      </trkpt>
      <trkpt lat="49.04795" lon="1.26232">
        <ele>325</ele>
        <time>2017-09-24T08:12:25Z</time>
      </trkpt>
      <trkpt lat="49.048" lon="1.26208">
        <ele>325</ele>
        <time>2017-09-24T08:12:30Z</time>
      </trkpt>
      <trkpt lat="49.04802" lon="1.26183">
        <ele>326</ele>
        <time>2017-09-24T08:12:35Z</time>
      </trkpt>
      <trkpt lat="49.04813" lon="1.26164">
        <ele>327</ele>
        <time>2017-09-24T08:12:40Z</time>
      </trkpt>
      <trkpt lat="49.04832" lon="1.26157">
        <ele>328</ele>
        <time>2017-09-24T08:12:45Z</time>
      </trkpt>
      <trkpt lat="49.04857" lon="1.26159">
        <ele>328</ele>
        <time>2017-09-24T08:12:50Z</time>
      </trkpt>
      <trkpt lat="49.0488" lon="1.26166">
        <ele>328</ele>
        <time>2017-09-24T08:12:55Z</time>
      </trkpt>
      <trkpt lat="49.049" lon="1.26161">
        <ele>328</ele>
        <time>2017-09-24T08:13:00Z</time>
      </trkpt>
      <trkpt lat="49.04923" lon="1.26154">
        <ele>328</ele>
        <time>2017-09-24T08:13:05Z</time>
      </trkpt>
      <trkpt lat="49.04947" lon="1.26147">
        <ele>328</ele>
        <time>2017-09-24T08:13:10Z</time>
      </trkpt>
      <trkpt lat="49.04973" lon="1.26141">
        <ele>328</ele>
        <time>2017-09-24T08:13:15Z</time>
      </trkpt>
      <trkpt lat="49.05" lon="1.26134">
        <ele>329</ele>
        <time>2017-09-24T08:13:20Z</time>
      </trkpt>
      <trkpt lat="49.05029" lon="1.26126">
        <ele>329</ele>
        <time>2017-09-24T08:13:25Z</time>
      </trkpt>
      <trkpt lat="49.05057" lon="1.26118">
        <ele>329</ele>
        <time>2017-09-24T08:13:30Z</time>
      </trkpt>
      <trkpt lat="49.05084" lon="1.26109">
        <ele>329</ele>
        <time>2017-09-24T08:13:35Z</time>
      </trkpt>
      <trkpt lat="49.05108" lon="1.2612">
        <ele>329</ele>
        <time>2017-09-24T08:13:40Z</time>
      </trkpt>
      <trkpt lat="49.05114" lon="1.26161">
        <ele>329</ele>
        <time>2017-09-24T08:13:45Z</time>
      </trkpt>
      <trkpt lat="49.05119" lon="1.26204">
        <ele>328</ele>
        <time>2017-09-24T08:13:50Z</time>
      </trkpt>
      <trkpt lat="49.05131" lon="1.26245">
        <ele>328</ele>
        <time>2017-09-24T08:13:55Z</time>
      </trkpt>
      <trkpt lat="49.05147" lon="1.26284">
        <ele>328</ele>
        <time>2017-09-24T08:14:00Z</time>
      </trkpt>
      <trkpt lat="49.05164" lon="1.26322">
        <ele>327</ele>
        <time>2017-09-24T08:14:05Z</time>
      </trkpt>
      <trkpt lat="49.05182" lon="1.26362">
        <ele>326</ele>
        <time>2017-09-24T08:14:10Z</time>
      </trkpt>
      <trkpt lat="49.05199" lon="1.26405">
        <ele>325</ele>
        <time>2017-09-24T08:14:15Z</time>
      </trkpt>
      <trkpt lat="49.05217" lon="1.26449">
        <ele>323</ele>
        <time>2017-09-24T08:14:20Z</time>
      </trkpt>
      <trkpt lat="49.05234" lon="1.26493">
        <ele>320</ele>
        <time>2017-09-24T08:14:25Z</time>
      </trkpt>
      <trkpt lat="49.05233" lon="1.26524">
        <ele>319</ele>
        <time>2017-09-24T08:14:30Z</time>
      </trkpt>
      <trkpt lat="49.05211" lon="1.26554">
        <ele>318</ele>
        <time>2017-09-24T08:14:35Z</time>
      </trkpt>
      <trkpt lat="49.05181" lon="1.26583">
        <ele>317</ele>
        <time>2017-09-24T08:14:40Z</time>
      </trkpt>
      <trkpt lat="49.05153" lon="1.2662">
        <ele>316</ele>
        <time>2017-09-24T08:14:45Z</time>
      </trkpt>
      <trkpt lat="49.05126" lon="1.26661">
        <ele>314</ele>
        <time>2017-09-24T08:14:50Z</time>
      </trkpt>
      <trkpt lat="49.05102" lon="1.26698">
        <ele>312</ele>
        <time>2017-09-24T08:14:55Z</time>
      </trkpt>
      <trkpt lat="49.05078" lon="1.26728">
        <ele>310</ele>
        <time>2017-09-24T08:15:00Z</time>
      </trkpt>
      <trkpt lat="49.05053" lon="1.26754">
        <ele>307</ele>
        <time>2017-09-24T08:15:05Z</time>
      </trkpt>
      <trkpt lat="49.05028" lon="1.26766">
        <ele>307</ele>
        <time>2017-09-24T08:15:10Z</time>
      </trkpt>
      <trkpt lat="49.05018" lon="1.26742">
        <ele>306</ele>
        <time>2017-09-24T08:15:15Z</time>
      </trkpt>
      <trkpt lat="49.05002" lon="1.26732">
        <ele>306</ele>
        <time>2017-09-24T08:15:20Z</time>
      </trkpt>
      <trkpt lat="49.0498" lon="1.26768">
        <ele>304</ele>
        <time>2017-09-24T08:15:25Z</time>
      </trkpt>
      <trkpt lat="49.04983" lon="1.26841">
        <ele>301</ele>
        <time>2017-09-24T08:15:30Z</time>
      </trkpt>
      <trkpt lat="49.04991" lon="1.26919">
        <ele>295</ele>
        <time>2017-09-24T08:15:35Z</time>
      </trkpt>
      <trkpt lat="49.05001" lon="1.26996">
        <ele>290</ele>
        <time>2017-09-24T08:15:40Z</time>
      </trkpt>
      <trkpt lat="49.05013" lon="1.2708">
        <ele>286</ele>
        <time>2017-09-24T08:15:45Z</time>
      </trkpt>
      <trkpt lat="49.05032" lon="1.27158">
        <ele>280</ele>
        <time>2017-09-24T08:15:50Z</time>
      </trkpt>
      <trkpt lat="49.05034" lon="1.27217">
        <ele>274</ele>
        <time>2017-09-24T08:15:55Z</time>
      </trkpt>
      <trkpt lat="49.05019" lon="1.2727">
        <ele>272</ele>
        <time>2017-09-24T08:16:00Z</time>
      </trkpt>
      <trkpt lat="49.04999" lon="1.27309">
        <ele>271</ele>
        <time>2017-09-24T08:16:05Z</time>
      </trkpt>
      <trkpt lat="49.04975" lon="1.27343">
        <ele>271</ele>
        <time>2017-09-24T08:16:10Z</time>
      </trkpt>
      <trkpt lat="49.04951" lon="1.27376">
        <ele>271</ele>
        <time>2017-09-24T08:16:15Z</time>
      </trkpt>
      <trkpt lat="49.04927" lon="1.27405">
        <ele>270</ele>
        <time>2017-09-24T08:16:20Z</time>
      </trkpt>
      <trkpt lat="49.04905" lon="1.27434">
        <ele>270</ele>
        <time>2017-09-24T08:16:25Z</time>
      </trkpt>
      <trkpt lat="49.049" lon="1.27449">
        <ele>269</ele>
        <time>2017-09-24T08:16:30Z</time>
      </trkpt>
      <trkpt lat="49.04898" lon="1.27459">
        <ele>269</ele>
        <time>2017-09-24T08:16:35Z</time>
      </trkpt>
      <trkpt lat="49.04901" lon="1.27466">
        <ele>271</ele>
        <time>2017-09-24T08:16:40Z</time>
      </trkpt>
      <trkpt lat="49.04904" lon="1.27472">
        <ele>272</ele>
        <time>2017-09-24T08:16:45Z</time>
      </trkpt>
      <trkpt lat="49.04909" lon="1.27475">
        <ele>274</ele>
        <time>2017-09-24T08:16:50Z</time>
      </trkpt>
      <trkpt lat="49.04913" lon="1.27476">
        <ele>275</ele>
        <time>2017-09-24T08:16:55Z</time>
      </trkpt>
      <trkpt lat="49.04919" lon="1.27474">
        <ele>276</ele>
        <time>2017-09-24T08:16:59Z</time>
      </trkpt>
      <trkpt lat="49.04926" lon="1.27473">
        <ele>277</ele>
        <time>2017-09-24T08:17:05Z</time>
      </trkpt>
      <trkpt lat="49.04932" lon="1.27475">
        <ele>279</ele>
        <time>2017-09-24T08:17:10Z</time>
      </trkpt>
      <trkpt lat="49.04939" lon="1.27475">
        <ele>280</ele>
        <time>2017-09-24T08:17:15Z</time>
      </trkpt>
      <trkpt lat="49.04947" lon="1.27476">
        <ele>282</ele>
        <time>2017-09-24T08:17:20Z</time>
      </trkpt>
      <trkpt lat="49.04953" lon="1.27478">
        <ele>283</ele>
        <time>2017-09-24T08:17:25Z</time>
      </trkpt>
      <trkpt lat="49.04959" lon="1.27481">
        <ele>285</ele>
        <time>2017-09-24T08:17:30Z</time>
      </trkpt>
      <trkpt lat="49.04965" lon="1.27485">
        <ele>286</ele>
        <time>2017-09-24T08:17:35Z</time>
      </trkpt>
      <trkpt lat="49.04971" lon="1.27489">
        <ele>287</ele>
        <time>2017-09-24T08:17:40Z</time>
      </trkpt>
      <trkpt lat="49.04976" lon="1.27494">
        <ele>289</ele>
        <time>2017-09-24T08:17:45Z</time>
      </trkpt>
      <trkpt lat="49.04981" lon="1.275">
        <ele>290</ele>
        <time>2017-09-24T08:17:50Z</time>
      </trkpt>
      <trkpt lat="49.04984" lon="1.2751">
        <ele>291</ele>
        <time>2017-09-24T08:17:54Z</time>
      </trkpt>
      <trkpt lat="49.04988" lon="1.27518">
        <ele>291</ele>
        <time>2017-09-24T08:18:00Z</time>
      </trkpt>
      <trkpt lat="49.04993" lon="1.27525">
        <ele>292</ele>
        <time>2017-09-24T08:18:04Z</time>
      </trkpt>
      <trkpt lat="49.04995" lon="1.27525">
        <ele>293</ele>
        <time>2017-09-24T08:18:09Z</time>
      </trkpt>
      <trkpt lat="49.04997" lon="1.27525">
        <ele>293</ele>
        <time>2017-09-24T08:18:12Z</time>
      </trkpt>
      <trkpt lat="49.05001" lon="1.27523">
        <ele>294</ele>
        <time>2017-09-24T08:18:26Z</time>
      </trkpt>
      <trkpt lat="49.05001" lon="1.27523">
        <ele>294</ele>
        <time>2017-09-24T08:18:35Z</time>
      </trkpt>
      <trkpt lat="49.05005" lon="1.27525">
        <ele>295</ele>
        <time>2017-09-24T08:18:39Z</time>
      </trkpt>
      <trkpt lat="49.0501" lon="1.27533">
        <ele>296</ele>
        <time>2017-09-24T08:18:51Z</time>
      </trkpt>
      <trkpt lat="49.05015" lon="1.2754">
        <ele>297</ele>
        <time>2017-09-24T08:18:56Z</time>
      </trkpt>
      <trkpt lat="49.05021" lon="1.27547">
        <ele>298</ele>
        <time>2017-09-24T08:19:01Z</time>
      </trkpt>
      <trkpt lat="49.05027" lon="1.27554">
        <ele>300</ele>
        <time>2017-09-24T08:19:06Z</time>
      </trkpt>
      <trkpt lat="49.05032" lon="1.27559">
        <ele>301</ele>
        <time>2017-09-24T08:19:11Z</time>
      </trkpt>
      <trkpt lat="49.05038" lon="1.27564">
        <ele>302</ele>
        <time>2017-09-24T08:19:16Z</time>
      </trkpt>
      <trkpt lat="49.05045" lon="1.27569">
        <ele>304</ele>
        <time>2017-09-24T08:19:21Z</time>
      </trkpt>
      <trkpt lat="49.05052" lon="1.27573">
        <ele>305</ele>
        <time>2017-09-24T08:19:26Z</time>
      </trkpt>
      <trkpt lat="49.05059" lon="1.27576">
        <ele>306</ele>
        <time>2017-09-24T08:19:31Z</time>
      </trkpt>
      <trkpt lat="49.05065" lon="1.27579">
        <ele>307</ele>
        <time>2017-09-24T08:19:36Z</time>
      </trkpt>
      <trkpt lat="49.05071" lon="1.2758">
        <ele>308</ele>
        <time>2017-09-24T08:19:41Z</time>
      </trkpt>
      <trkpt lat="49.05076" lon="1.27582">
        <ele>309</ele>
        <time>2017-09-24T08:19:46Z</time>
      </trkpt>
      <trkpt lat="49.05083" lon="1.27586">
        <ele>309</ele>
        <time>2017-09-24T08:19:51Z</time>
      </trkpt>
      <trkpt lat="49.0509" lon="1.2759">
        <ele>311</ele>
        <time>2017-09-24T08:19:56Z</time>
      </trkpt>
      <trkpt lat="49.05098" lon="1.27595">
        <ele>312</ele>
        <time>2017-09-24T08:20:01Z</time>
      </trkpt>
      <trkpt lat="49.05105" lon="1.27601">
        <ele>313</ele>
        <time>2017-09-24T08:20:06Z</time>
      </trkpt>
      <trkpt lat="49.0511" lon="1.27605">
        <ele>314</ele>
        <time>2017-09-24T08:20:11Z</time>
      </trkpt>
      <trkpt lat="49.05116" lon="1.27611">
        <ele>315</ele>
        <time>2017-09-24T08:20:16Z</time>
      </trkpt>
      <trkpt lat="49.05124" lon="1.27617">
        <ele>317</ele>
        <time>2017-09-24T08:20:21Z</time>
      </trkpt>
      <trkpt lat="49.0513" lon="1.27622">
        <ele>318</ele>
        <time>2017-09-24T08:20:26Z</time>
      </trkpt>
      <trkpt lat="49.05136" lon="1.27628">
        <ele>319</ele>
        <time>2017-09-24T08:20:31Z</time>
      </trkpt>
      <trkpt lat="49.05142" lon="1.27634">
        <ele>321</ele>
        <time>2017-09-24T08:20:36Z</time>
      </trkpt>
      <trkpt lat="49.05149" lon="1.2764">
        <ele>322</ele>
        <time>2017-09-24T08:20:41Z</time>
      </trkpt>
      <trkpt lat="49.05156" lon="1.27647">
        <ele>323</ele>
        <time>2017-09-24T08:20:46Z</time>
      </trkpt>
      <trkpt lat="49.05164" lon="1.27653">
        <ele>324</ele>
        <time>2017-09-24T08:20:51Z</time>
      </trkpt>
      <trkpt lat="49.05173" lon="1.27659">
        <ele>325</ele>
        <time>2017-09-24T08:20:56Z</time>
      </trkpt>
      <trkpt lat="49.0518" lon="1.27668">
        <ele>326</ele>
        <time>2017-09-24T08:21:01Z</time>
      </trkpt>
      <trkpt lat="49.05186" lon="1.27679">
        <ele>327</ele>
        <time>2017-09-24T08:21:06Z</time>
      </trkpt>
      <trkpt lat="49.05188" lon="1.27693">
        <ele>327</ele>
        <time>2017-09-24T08:21:11Z</time>
      </trkpt>
      <trkpt lat="49.05189" lon="1.27712">
        <ele>328</ele>
        <time>2017-09-24T08:21:16Z</time>
      </trkpt>
      <trkpt lat="49.05188" lon="1.27737">
        <ele>328</ele>
        <time>2017-09-24T08:21:21Z</time>
      </trkpt>
      <trkpt lat="49.05186" lon="1.27767">
        <ele>328</ele>
        <time>2017-09-24T08:21:26Z</time>
      </trkpt>
      <trkpt lat="49.05182" lon="1.27801">
        <ele>328</ele>
        <time>2017-09-24T08:21:31Z</time>
      </trkpt>
      <trkpt lat="49.05179" lon="1.2783">
        <ele>328</ele>
        <time>2017-09-24T08:21:36Z</time>
      </trkpt>
      <trkpt lat="49.05176" lon="1.27857">
        <ele>328</ele>
        <time>2017-09-24T08:21:41Z</time>
      </trkpt>
      <trkpt lat="49.05173" lon="1.27886">
        <ele>328</ele>
        <time>2017-09-24T08:21:46Z</time>
      </trkpt>
      <trkpt lat="49.05171" lon="1.27915">
        <ele>328</ele>
        <time>2017-09-24T08:21:51Z</time>
      </trkpt>
      <trkpt lat="49.05165" lon="1.27956">
        <ele>328</ele>
        <time>2017-09-24T08:21:56Z</time>
      </trkpt>
      <trkpt lat="49.05159" lon="1.28003">
        <ele>325</ele>
        <time>2017-09-24T08:22:01Z</time>
      </trkpt>
      <trkpt lat="49.05152" lon="1.2805">
        <ele>325</ele>
        <time>2017-09-24T08:22:06Z</time>
      </trkpt>
      <trkpt lat="49.05146" lon="1.28094">
        <ele>325</ele>
        <time>2017-09-24T08:22:11Z</time>
      </trkpt>
      <trkpt lat="49.05138" lon="1.28138">
        <ele>325</ele>
        <time>2017-09-24T08:22:16Z</time>
      </trkpt>
      <trkpt lat="49.05129" lon="1.28182">
        <ele>325</ele>
        <time>2017-09-24T08:22:21Z</time>
      </trkpt>
      <trkpt lat="49.05121" lon="1.28226">
        <ele>326</ele>
        <time>2017-09-24T08:22:26Z</time>
      </trkpt>
      <trkpt lat="49.05116" lon="1.28272">
        <ele>326</ele>
        <time>2017-09-24T08:22:31Z</time>
      </trkpt>
      <trkpt lat="49.05109" lon="1.2832">
        <ele>326</ele>
        <time>2017-09-24T08:22:36Z</time>
      </trkpt>
      <trkpt lat="49.05121" lon="1.28364">
        <ele>326</ele>
        <time>2017-09-24T08:22:41Z</time>
      </trkpt>
      <trkpt lat="49.0514" lon="1.284">
        <ele>326</ele>
        <time>2017-09-24T08:22:46Z</time>
      </trkpt>
      <trkpt lat="49.05165" lon="1.28433">
        <ele>324</ele>
        <time>2017-09-24T08:22:51Z</time>
      </trkpt>
      <trkpt lat="49.05187" lon="1.28464">
        <ele>324</ele>
        <time>2017-09-24T08:22:56Z</time>
      </trkpt>
      <trkpt lat="49.05208" lon="1.28494">
        <ele>324</ele>
        <time>2017-09-24T08:23:01Z</time>
      </trkpt>
      <trkpt lat="49.05229" lon="1.28525">
        <ele>324</ele>
        <time>2017-09-24T08:23:06Z</time>
      </trkpt>
      <trkpt lat="49.05255" lon="1.28559">
        <ele>324</ele>
        <time>2017-09-24T08:23:11Z</time>
      </trkpt>
      <trkpt lat="49.05281" lon="1.2859">
        <ele>324</ele>
        <time>2017-09-24T08:23:16Z</time>
      </trkpt>
      <trkpt lat="49.05304" lon="1.28622">
        <ele>323</ele>
        <time>2017-09-24T08:23:21Z</time>
      </trkpt>
      <trkpt lat="49.05326" lon="1.28649">
        <ele>323</ele>
        <time>2017-09-24T08:23:26Z</time>
      </trkpt>
      <trkpt lat="49.05356" lon="1.28672">
        <ele>321</ele>
        <time>2017-09-24T08:23:31Z</time>
      </trkpt>
      <trkpt lat="49.05385" lon="1.28686">
        <ele>319</ele>
        <time>2017-09-24T08:23:36Z</time>
      </trkpt>
      <trkpt lat="49.05413" lon="1.28669">
        <ele>317</ele>
        <time>2017-09-24T08:23:41Z</time>
      </trkpt>
      <trkpt lat="49.05436" lon="1.28643">
        <ele>316</ele>
        <time>2017-09-24T08:23:46Z</time>
      </trkpt>
      <trkpt lat="49.05465" lon="1.28615">
        <ele>315</ele>
        <time>2017-09-24T08:23:51Z</time>
      </trkpt>
      <trkpt lat="49.05482" lon="1.28606">
        <ele>314</ele>
        <time>2017-09-24T08:23:56Z</time>
      </trkpt>
      <trkpt lat="49.05493" lon="1.28608">
        <ele>312</ele>
        <time>2017-09-24T08:24:01Z</time>
      </trkpt>
      <trkpt lat="49.05499" lon="1.2861">
        <ele>312</ele>
        <time>2017-09-24T08:24:05Z</time>
      </trkpt>
      <trkpt lat="49.0551" lon="1.28632">
        <ele>312</ele>
        <time>2017-09-24T08:24:50Z</time>
      </trkpt>
      <trkpt lat="49.0551" lon="1.28632">
        <ele>312</ele>
        <time>2017-09-24T08:25:01Z</time>
      </trkpt>
      <trkpt lat="49.05503" lon="1.2865">
        <ele>312</ele>
        <time>2017-09-24T08:25:05Z</time>
      </trkpt>
      <trkpt lat="49.05496" lon="1.28679">
        <ele>310</ele>
        <time>2017-09-24T08:25:10Z</time>
      </trkpt>
      <trkpt lat="49.05486" lon="1.28713">
        <ele>308</ele>
        <time>2017-09-24T08:25:15Z</time>
      </trkpt>
      <trkpt lat="49.05469" lon="1.28754">
        <ele>305</ele>
        <time>2017-09-24T08:25:20Z</time>
      </trkpt>
      <trkpt lat="49.05457" lon="1.28804">
        <ele>303</ele>
        <time>2017-09-24T08:25:25Z</time>
      </trkpt>
      <trkpt lat="49.05446" lon="1.28854">
        <ele>299</ele>
        <time>2017-09-24T08:25:30Z</time>
      </trkpt>
      <trkpt lat="49.05439" lon="1.2891">
        <ele>294</ele>
        <time>2017-09-24T08:25:35Z</time>
      </trkpt>
      <trkpt lat="49.05438" lon="1.28959">
        <ele>291</ele>
        <time>2017-09-24T08:25:40Z</time>
      </trkpt>
      <trkpt lat="49.05429" lon="1.29014">
        <ele>287</ele>
        <time>2017-09-24T08:25:45Z</time>
      </trkpt>
      <trkpt lat="49.0542" lon="1.29071">
        <ele>285</ele>
        <time>2017-09-24T08:25:50Z</time>
      </trkpt>
      <trkpt lat="49.05413" lon="1.29117">
        <ele>282</ele>
        <time>2017-09-24T08:25:55Z</time>
      </trkpt>
      <trkpt lat="49.05413" lon="1.29164">
        <ele>280</ele>
        <time>2017-09-24T08:26:00Z</time>
      </trkpt>
      <trkpt lat="49.05418" lon="1.29225">
        <ele>278</ele>
        <time>2017-09-24T08:26:05Z</time>
      </trkpt>
      <trkpt lat="49.05417" lon="1.29291">
        <ele>275</ele>
        <time>2017-09-24T08:26:10Z</time>
      </trkpt>
      <trkpt lat="49.05414" lon="1.29356">
        <ele>273</ele>
        <time>2017-09-24T08:26:15Z</time>
      </trkpt>
      <trkpt lat="49.05409" lon="1.29413">
        <ele>271</ele>
        <time>2017-09-24T08:26:20Z</time>
      </trkpt>
      <trkpt lat="49.05399" lon="1.29465">
        <ele>269</ele>
        <time>2017-09-24T08:26:25Z</time>
      </trkpt>
      <trkpt lat="49.05394" lon="1.29499">
        <ele>268</ele>
        <time>2017-09-24T08:26:30Z</time>
      </trkpt>
      <trkpt lat="49.054" lon="1.2951">
        <ele>266</ele>
        <time>2017-09-24T08:26:35Z</time>
      </trkpt>
      <trkpt lat="49.05406" lon="1.29513">
        <ele>266</ele>
        <time>2017-09-24T08:26:40Z</time>
      </trkpt>
      <trkpt lat="49.05406" lon="1.29514">
        <ele>266</ele>
        <time>2017-09-24T08:26:43Z</time>
      </trkpt>
      <trkpt lat="49.05401" lon="1.29512">
        <ele>266</ele>
        <time>2017-09-24T08:28:34Z</time>
      </trkpt>
      <trkpt lat="49.054" lon="1.29511">
        <ele>266</ele>
        <time>2017-09-24T08:32:31Z</time>
      </trkpt>
      <trkpt lat="49.05394" lon="1.29509">
        <ele>266</ele>
        <time>2017-09-24T08:32:42Z</time>
      </trkpt>
      <trkpt lat="49.05389" lon="1.29504">
        <ele>266</ele>
        <time>2017-09-24T08:32:47Z</time>
      </trkpt>
      <trkpt lat="49.05388" lon="1.295">
        <ele>266</ele>
        <time>2017-09-24T08:32:52Z</time>
      </trkpt>
      <trkpt lat="49.0539" lon="1.29494">
        <ele>267</ele>
        <time>2017-09-24T08:32:57Z</time>
      </trkpt>
      <trkpt lat="49.0539" lon="1.29487">
        <ele>267</ele>
        <time>2017-09-24T08:33:02Z</time>
      </trkpt>
      <trkpt lat="49.05392" lon="1.29477">
        <ele>267</ele>
        <time>2017-09-24T08:33:07Z</time>
      </trkpt>
      <trkpt lat="49.05394" lon="1.29464">
        <ele>267</ele>
        <time>2017-09-24T08:33:12Z</time>
      </trkpt>
      <trkpt lat="49.05397" lon="1.29449">
        <ele>268</ele>
        <time>2017-09-24T08:33:17Z</time>
      </trkpt>
      <trkpt lat="49.05401" lon="1.29432">
        <ele>269</ele>
        <time>2017-09-24T08:33:22Z</time>
      </trkpt>
      <trkpt lat="49.05404" lon="1.29415">
        <ele>269</ele>
        <time>2017-09-24T08:33:27Z</time>
      </trkpt>
      <trkpt lat="49.05407" lon="1.29398">
        <ele>270</ele>
        <time>2017-09-24T08:33:32Z</time>
      </trkpt>
      <trkpt lat="49.05408" lon="1.29382">
        <ele>270</ele>
        <time>2017-09-24T08:33:37Z</time>
      </trkpt>
      <trkpt lat="49.05408" lon="1.29369">
        <ele>270</ele>
        <time>2017-09-24T08:33:42Z</time>
      </trkpt>
      <trkpt lat="49.05408" lon="1.29369">
        <ele>270</ele>
        <time>2017-09-24T08:33:45Z</time>
      </trkpt>
      <trkpt lat="49.05409" lon="1.29357">
        <ele>271</ele>
        <time>2017-09-24T08:35:18Z</time>
      </trkpt>
      <trkpt lat="49.05409" lon="1.29341">
        <ele>271</ele>
        <time>2017-09-24T08:35:23Z</time>
      </trkpt>
      <trkpt lat="49.0541" lon="1.29324">
        <ele>273</ele>
        <time>2017-09-24T08:35:28Z</time>
      </trkpt>
      <trkpt lat="49.0541" lon="1.29308">
        <ele>273</ele>
        <time>2017-09-24T08:35:33Z</time>
      </trkpt>
      <trkpt lat="49.05411" lon="1.29291">
        <ele>273</ele>
        <time>2017-09-24T08:35:38Z</time>
      </trkpt>
      <trkpt lat="49.05411" lon="1.29274">
        <ele>274</ele>
        <time>2017-09-24T08:35:43Z</time>
      </trkpt>
      <trkpt lat="49.05411" lon="1.29258">
        <ele>275</ele>
        <time>2017-09-24T08:35:48Z</time>
      </trkpt>
      <trkpt lat="49.05411" lon="1.29241">
        <ele>275</ele>
        <time>2017-09-24T08:35:53Z</time>
      </trkpt>
      <trkpt lat="49.0541" lon="1.29225">
        <ele>276</ele>
        <time>2017-09-24T08:35:58Z</time>
      </trkpt>
      <trkpt lat="49.05408" lon="1.2921">
        <ele>277</ele>
        <time>2017-09-24T08:36:03Z</time>
      </trkpt>
      <trkpt lat="49.05406" lon="1.29194">
        <ele>277</ele>
        <time>2017-09-24T08:36:08Z</time>
      </trkpt>
      <trkpt lat="49.05405" lon="1.29178">
        <ele>278</ele>
        <time>2017-09-24T08:36:13Z</time>
      </trkpt>
      <trkpt lat="49.05405" lon="1.29162">
        <ele>279</ele>
        <time>2017-09-24T08:36:18Z</time>
      </trkpt>
      <trkpt lat="49.05405" lon="1.29148">
        <ele>280</ele>
        <time>2017-09-24T08:36:23Z</time>
      </trkpt>
      <trkpt lat="49.05407" lon="1.29136">
        <ele>281</ele>
        <time>2017-09-24T08:36:28Z</time>
      </trkpt>
      <trkpt lat="49.05409" lon="1.29124">
        <ele>282</ele>
        <time>2017-09-24T08:36:33Z</time>
      </trkpt>
      <trkpt lat="49.05412" lon="1.29112">
        <ele>283</ele>
        <time>2017-09-24T08:36:38Z</time>
      </trkpt>
      <trkpt lat="49.05415" lon="1.29098">
        <ele>284</ele>
        <time>2017-09-24T08:36:43Z</time>
      </trkpt>
      <trkpt lat="49.05417" lon="1.29083">
        <ele>284</ele>
        <time>2017-09-24T08:36:48Z</time>
      </trkpt>
      <trkpt lat="49.05419" lon="1.29069">
        <ele>285</ele>
        <time>2017-09-24T08:36:53Z</time>
      </trkpt>
      <trkpt lat="49.05421" lon="1.29053">
        <ele>286</ele>
        <time>2017-09-24T08:36:58Z</time>
      </trkpt>
      <trkpt lat="49.05423" lon="1.29037">
        <ele>286</ele>
        <time>2017-09-24T08:37:03Z</time>
      </trkpt>
      <trkpt lat="49.05425" lon="1.29022">
        <ele>287</ele>
        <time>2017-09-24T08:37:08Z</time>
      </trkpt>
      <trkpt lat="49.05427" lon="1.29007">
        <ele>288</ele>
        <time>2017-09-24T08:37:13Z</time>
      </trkpt>
      <trkpt lat="49.05429" lon="1.28992">
        <ele>289</ele>
        <time>2017-09-24T08:37:18Z</time>
      </trkpt>
      <trkpt lat="49.0543" lon="1.28977">
        <ele>290</ele>
        <time>2017-09-24T08:37:23Z</time>
      </trkpt>
      <trkpt lat="49.05431" lon="1.28962">
        <ele>291</ele>
        <time>2017-09-24T08:37:28Z</time>
      </trkpt>
      <trkpt lat="49.05433" lon="1.28948">
        <ele>292</ele>
        <time>2017-09-24T08:37:33Z</time>
      </trkpt>
      <trkpt lat="49.05436" lon="1.28933">
        <ele>293</ele>
        <time>2017-09-24T08:37:38Z</time>
      </trkpt>
      <trkpt lat="49.05438" lon="1.2892">
        <ele>293</ele>
        <time>2017-09-24T08:37:43Z</time>
      </trkpt>
      <trkpt lat="49.05441" lon="1.28906">
        <ele>294</ele>
        <time>2017-09-24T08:37:48Z</time>
      </trkpt>
      <trkpt lat="49.05444" lon="1.28891">
        <ele>296</ele>
        <time>2017-09-24T08:37:53Z</time>
      </trkpt>
      <trkpt lat="49.05446" lon="1.28874">
        <ele>297</ele>
        <time>2017-09-24T08:37:58Z</time>
      </trkpt>
      <trkpt lat="49.0545" lon="1.2886">
        <ele>298</ele>
        <time>2017-09-24T08:38:03Z</time>
      </trkpt>
      <trkpt lat="49.05452" lon="1.28846">
        <ele>299</ele>
        <time>2017-09-24T08:38:08Z</time>
      </trkpt>
      <trkpt lat="49.05453" lon="1.28831">
        <ele>300</ele>
        <time>2017-09-24T08:38:13Z</time>
      </trkpt>
      <trkpt lat="49.05455" lon="1.28817">
        <ele>301</ele>
        <time>2017-09-24T08:38:18Z</time>
      </trkpt>
      <trkpt lat="49.05456" lon="1.28803">
        <ele>302</ele>
        <time>2017-09-24T08:38:23Z</time>
      </trkpt>
      <trkpt lat="49.05458" lon="1.2879">
        <ele>303</ele>
        <time>2017-09-24T08:38:28Z</time>
      </trkpt>
      <trkpt lat="49.0546" lon="1.28776">
        <ele>304</ele>
        <time>2017-09-24T08:38:33Z</time>
      </trkpt>
      <trkpt lat="49.05466" lon="1.28763">
        <ele>304</ele>
        <time>2017-09-24T08:38:38Z</time>
      </trkpt>
      <trkpt lat="49.05471" lon="1.28751">
        <ele>305</ele>
        <time>2017-09-24T08:38:43Z</time>
      </trkpt>
      <trkpt lat="49.05477" lon="1.2874">
        <ele>306</ele>
        <time>2017-09-24T08:38:48Z</time>
      </trkpt>
      <trkpt lat="49.0548" lon="1.28729">
        <ele>307</ele>
        <time>2017-09-24T08:38:53Z</time>
      </trkpt>
      <trkpt lat="49.05483" lon="1.28717">
        <ele>308</ele>
        <time>2017-09-24T08:38:58Z</time>
      </trkpt>
      <trkpt lat="49.05486" lon="1.28703">
        <ele>308</ele>
        <time>2017-09-24T08:39:03Z</time>
      </trkpt>
      <trkpt lat="49.0549" lon="1.2869">
        <ele>309</ele>
        <time>2017-09-24T08:39:08Z</time>
      </trkpt>
      <trkpt lat="49.05494" lon="1.28677">
        <ele>310</ele>
        <time>2017-09-24T08:39:13Z</time>
      </trkpt>
      <trkpt lat="49.05497" lon="1.28663">
        <ele>311</ele>
        <time>2017-09-24T08:39:18Z</time>
      </trkpt>
      <trkpt lat="49.05499" lon="1.28649">
        <ele>311</ele>
        <time>2017-09-24T08:39:23Z</time>
      </trkpt>
      <trkpt lat="49.05501" lon="1.28638">
        <ele>312</ele>
        <time>2017-09-24T08:39:28Z</time>
      </trkpt>
      <trkpt lat="49.05503" lon="1.28631">
        <ele>313</ele>
        <time>2017-09-24T08:39:33Z</time>
      </trkpt>
      <trkpt lat="49.05503" lon="1.28624">
        <ele>313</ele>
        <time>2017-09-24T08:39:38Z</time>
      </trkpt>
      <trkpt lat="49.05501" lon="1.28624">
        <ele>313</ele>
        <time>2017-09-24T08:39:43Z</time>
      </trkpt>
      <trkpt lat="49.05496" lon="1.28625">
        <ele>313</ele>
        <time>2017-09-24T08:39:48Z</time>
      </trkpt>
      <trkpt lat="49.05489" lon="1.2863">
        <ele>313</ele>
        <time>2017-09-24T08:39:53Z</time>
      </trkpt>
      <trkpt lat="49.05482" lon="1.28636">
        <ele>314</ele>
        <time>2017-09-24T08:39:58Z</time>
      </trkpt>
      <trkpt lat="49.05473" lon="1.28645">
        <ele>315</ele>
        <time>2017-09-24T08:40:03Z</time>
      </trkpt>
      <trkpt lat="49.05463" lon="1.28653">
        <ele>315</ele>
        <time>2017-09-24T08:40:08Z</time>
      </trkpt>
      <trkpt lat="49.05451" lon="1.28663">
        <ele>315</ele>
        <time>2017-09-24T08:40:13Z</time>
      </trkpt>
      <trkpt lat="49.0544" lon="1.28675">
        <ele>315</ele>
        <time>2017-09-24T08:40:18Z</time>
      </trkpt>
      <trkpt lat="49.05426" lon="1.28687">
        <ele>316</ele>
        <time>2017-09-24T08:40:23Z</time>
      </trkpt>
      <trkpt lat="49.05412" lon="1.2869">
        <ele>317</ele>
        <time>2017-09-24T08:40:28Z</time>
      </trkpt>
      <trkpt lat="49.05397" lon="1.2869">
        <ele>318</ele>
        <time>2017-09-24T08:40:33Z</time>
      </trkpt>
      <trkpt lat="49.05382" lon="1.28687">
        <ele>319</ele>
        <time>2017-09-24T08:40:38Z</time>
      </trkpt>
      <trkpt lat="49.05368" lon="1.28683">
        <ele>320</ele>
        <time>2017-09-24T08:40:43Z</time>
      </trkpt>
      <trkpt lat="49.05354" lon="1.28678">
        <ele>321</ele>
        <time>2017-09-24T08:40:48Z</time>
      </trkpt>
      <trkpt lat="49.05341" lon="1.28673">
        <ele>321</ele>
        <time>2017-09-24T08:40:53Z</time>
      </trkpt>
      <trkpt lat="49.05329" lon="1.28666">
        <ele>322</ele>
        <time>2017-09-24T08:40:58Z</time>
      </trkpt>
      <trkpt lat="49.0532" lon="1.28655">
        <ele>323</ele>
        <time>2017-09-24T08:41:03Z</time>
      </trkpt>
      <trkpt lat="49.0531" lon="1.28645">
        <ele>323</ele>
        <time>2017-09-24T08:41:08Z</time>
      </trkpt>
      <trkpt lat="49.05307" lon="1.2864">
        <ele>323</ele>
        <time>2017-09-24T08:41:12Z</time>
      </trkpt>
      <trkpt lat="49.05302" lon="1.28633">
        <ele>323</ele>
        <time>2017-09-24T08:41:24Z</time>
      </trkpt>
      <trkpt lat="49.05309" lon="1.28639">
        <ele>323</ele>
        <time>2017-09-24T08:42:27Z</time>
      </trkpt>
      <trkpt lat="49.05321" lon="1.28657">
        <ele>323</ele>
        <time>2017-09-24T08:42:32Z</time>
      </trkpt>
      <trkpt lat="49.05344" lon="1.28674">
        <ele>323</ele>
        <time>2017-09-24T08:42:37Z</time>
      </trkpt>
      <trkpt lat="49.05368" lon="1.28688">
        <ele>321</ele>
        <time>2017-09-24T08:42:42Z</time>
      </trkpt>
      <trkpt lat="49.05396" lon="1.28699">
        <ele>320</ele>
        <time>2017-09-24T08:42:47Z</time>
      </trkpt>
      <trkpt lat="49.05425" lon="1.28679">
        <ele>318</ele>
        <time>2017-09-24T08:42:52Z</time>
      </trkpt>
      <trkpt lat="49.05446" lon="1.28657">
        <ele>317</ele>
        <time>2017-09-24T08:42:57Z</time>
      </trkpt>
      <trkpt lat="49.05468" lon="1.28632">
        <ele>316</ele>
        <time>2017-09-24T08:43:02Z</time>
      </trkpt>
      <trkpt lat="49.05493" lon="1.2862">
        <ele>315</ele>
        <time>2017-09-24T08:43:07Z</time>
      </trkpt>
      <trkpt lat="49.05507" lon="1.28637">
        <ele>314</ele>
        <time>2017-09-24T08:43:12Z</time>
      </trkpt>
      <trkpt lat="49.05515" lon="1.28656">
        <ele>314</ele>
        <time>2017-09-24T08:43:17Z</time>
      </trkpt>
      <trkpt lat="49.05524" lon="1.2868">
        <ele>314</ele>
        <time>2017-09-24T08:43:22Z</time>
      </trkpt>
      <trkpt lat="49.05531" lon="1.28705">
        <ele>314</ele>
        <time>2017-09-24T08:43:27Z</time>
      </trkpt>
      <trkpt lat="49.05539" lon="1.2873">
        <ele>315</ele>
        <time>2017-09-24T08:43:32Z</time>
      </trkpt>
      <trkpt lat="49.05549" lon="1.28751">
        <ele>315</ele>
        <time>2017-09-24T08:43:37Z</time>
      </trkpt>
      <trkpt lat="49.05559" lon="1.28763">
        <ele>317</ele>
        <time>2017-09-24T08:43:42Z</time>
      </trkpt>
      <trkpt lat="49.05566" lon="1.28772">
        <ele>318</ele>
        <time>2017-09-24T08:43:47Z</time>
      </trkpt>
      <trkpt lat="49.05574" lon="1.28779">
        <ele>319</ele>
        <time>2017-09-24T08:43:52Z</time>
      </trkpt>
      <trkpt lat="49.05584" lon="1.28787">
        <ele>321</ele>
        <time>2017-09-24T08:43:57Z</time>
      </trkpt>
      <trkpt lat="49.05593" lon="1.28794">
        <ele>321</ele>
        <time>2017-09-24T08:44:02Z</time>
      </trkpt>
      <trkpt lat="49.05601" lon="1.28799">
        <ele>323</ele>
        <time>2017-09-24T08:44:07Z</time>
      </trkpt>
      <trkpt lat="49.05614" lon="1.28808">
        <ele>323</ele>
        <time>2017-09-24T08:44:12Z</time>
      </trkpt>
      <trkpt lat="49.05632" lon="1.28821">
        <ele>323</ele>
        <time>2017-09-24T08:44:17Z</time>
      </trkpt>
      <trkpt lat="49.05653" lon="1.28832">
        <ele>323</ele>
        <time>2017-09-24T08:44:22Z</time>
      </trkpt>
      <trkpt lat="49.05672" lon="1.28842">
        <ele>323</ele>
        <time>2017-09-24T08:44:27Z</time>
      </trkpt>
      <trkpt lat="49.05695" lon="1.28854">
        <ele>323</ele>
        <time>2017-09-24T08:44:32Z</time>
      </trkpt>
      <trkpt lat="49.05721" lon="1.28866">
        <ele>323</ele>
        <time>2017-09-24T08:44:37Z</time>
      </trkpt>
      <trkpt lat="49.05749" lon="1.28878">
        <ele>323</ele>
        <time>2017-09-24T08:44:42Z</time>
      </trkpt>
      <trkpt lat="49.05777" lon="1.28892">
        <ele>322</ele>
        <time>2017-09-24T08:44:47Z</time>
      </trkpt>
      <trkpt lat="49.05804" lon="1.289">
        <ele>322</ele>
        <time>2017-09-24T08:44:52Z</time>
      </trkpt>
      <trkpt lat="49.05825" lon="1.2889">
        <ele>322</ele>
        <time>2017-09-24T08:44:57Z</time>
      </trkpt>
      <trkpt lat="49.0584" lon="1.28882">
        <ele>322</ele>
        <time>2017-09-24T08:45:02Z</time>
      </trkpt>
      <trkpt lat="49.05855" lon="1.28872">
        <ele>323</ele>
        <time>2017-09-24T08:45:07Z</time>
      </trkpt>
      <trkpt lat="49.05868" lon="1.28861">
        <ele>324</ele>
        <time>2017-09-24T08:45:12Z</time>
      </trkpt>
      <trkpt lat="49.05884" lon="1.28849">
        <ele>325</ele>
        <time>2017-09-24T08:45:17Z</time>
      </trkpt>
      <trkpt lat="49.05898" lon="1.28835">
        <ele>326</ele>
        <time>2017-09-24T08:45:22Z</time>
      </trkpt>
      <trkpt lat="49.05911" lon="1.28821">
        <ele>327</ele>
        <time>2017-09-24T08:45:27Z</time>
      </trkpt>
      <trkpt lat="49.05923" lon="1.28807">
        <ele>327</ele>
        <time>2017-09-24T08:45:32Z</time>
      </trkpt>
      <trkpt lat="49.05933" lon="1.2879">
        <ele>328</ele>
        <time>2017-09-24T08:45:37Z</time>
      </trkpt>
      <trkpt lat="49.05944" lon="1.28773">
        <ele>329</ele>
        <time>2017-09-24T08:45:42Z</time>
      </trkpt>
      <trkpt lat="49.05959" lon="1.28756">
        <ele>329</ele>
        <time>2017-09-24T08:45:47Z</time>
      </trkpt>
      <trkpt lat="49.0597" lon="1.28734">
        <ele>330</ele>
        <time>2017-09-24T08:45:52Z</time>
      </trkpt>
      <trkpt lat="49.05977" lon="1.28708">
        <ele>330</ele>
        <time>2017-09-24T08:45:57Z</time>
      </trkpt>
      <trkpt lat="49.05983" lon="1.28683">
        <ele>330</ele>
        <time>2017-09-24T08:46:02Z</time>
      </trkpt>
      <trkpt lat="49.05986" lon="1.28655">
        <ele>331</ele>
        <time>2017-09-24T08:46:07Z</time>
      </trkpt>
      <trkpt lat="49.05984" lon="1.28626">
        <ele>331</ele>
        <time>2017-09-24T08:46:12Z</time>
      </trkpt>
      <trkpt lat="49.05983" lon="1.28609">
        <ele>331</ele>
        <time>2017-09-24T08:46:17Z</time>
      </trkpt>
      <trkpt lat="49.05983" lon="1.28604">
        <ele>331</ele>
        <time>2017-09-24T08:46:21Z</time>
      </trkpt>
      <trkpt lat="49.05978" lon="1.28585">
        <ele>331</ele>
        <time>2017-09-24T08:46:40Z</time>
      </trkpt>
      <trkpt lat="49.05977" lon="1.28581">
        <ele>331</ele>
        <time>2017-09-24T08:46:43Z</time>
      </trkpt>
      <trkpt lat="49.05981" lon="1.28558">
        <ele>331</ele>
        <time>2017-09-24T08:49:08Z</time>
      </trkpt>
      <trkpt lat="49.05986" lon="1.28579">
        <ele>331</ele>
        <time>2017-09-24T08:49:13Z</time>
      </trkpt>
      <trkpt lat="49.0599" lon="1.28597">
        <ele>331</ele>
        <time>2017-09-24T08:49:18Z</time>
      </trkpt>
      <trkpt lat="49.05994" lon="1.28618">
        <ele>331</ele>
        <time>2017-09-24T08:49:23Z</time>
      </trkpt>
      <trkpt lat="49.05993" lon="1.28653">
        <ele>331</ele>
        <time>2017-09-24T08:49:28Z</time>
      </trkpt>
      <trkpt lat="49.05991" lon="1.28688">
        <ele>331</ele>
        <time>2017-09-24T08:49:33Z</time>
      </trkpt>
      <trkpt lat="49.05982" lon="1.28718">
        <ele>330</ele>
        <time>2017-09-24T08:49:38Z</time>
      </trkpt>
      <trkpt lat="49.05965" lon="1.28744">
        <ele>330</ele>
        <time>2017-09-24T08:49:43Z</time>
      </trkpt>
      <trkpt lat="49.05947" lon="1.28779">
        <ele>330</ele>
        <time>2017-09-24T08:49:48Z</time>
      </trkpt>
      <trkpt lat="49.05925" lon="1.28811">
        <ele>328</ele>
        <time>2017-09-24T08:49:53Z</time>
      </trkpt>
      <trkpt lat="49.05893" lon="1.28846">
        <ele>326</ele>
        <time>2017-09-24T08:49:58Z</time>
      </trkpt>
      <trkpt lat="49.05863" lon="1.28875">
        <ele>324</ele>
        <time>2017-09-24T08:50:03Z</time>
      </trkpt>
      <trkpt lat="49.05839" lon="1.28887">
        <ele>323</ele>
        <time>2017-09-24T08:50:08Z</time>
      </trkpt>
      <trkpt lat="49.05812" lon="1.28885">
        <ele>322</ele>
        <time>2017-09-24T08:50:13Z</time>
      </trkpt>
      <trkpt lat="49.05783" lon="1.28878">
        <ele>321</ele>
        <time>2017-09-24T08:50:18Z</time>
      </trkpt>
      <trkpt lat="49.05752" lon="1.2887">
        <ele>321</ele>
        <time>2017-09-24T08:50:23Z</time>
      </trkpt>
      <trkpt lat="49.05723" lon="1.28861">
        <ele>321</ele>
        <time>2017-09-24T08:50:28Z</time>
      </trkpt>
      <trkpt lat="49.05692" lon="1.28851">
        <ele>321</ele>
        <time>2017-09-24T08:50:33Z</time>
      </trkpt>
      <trkpt lat="49.05667" lon="1.28844">
        <ele>321</ele>
        <time>2017-09-24T08:50:38Z</time>
      </trkpt>
      <trkpt lat="49.05639" lon="1.28829">
        <ele>322</ele>
        <time>2017-09-24T08:50:43Z</time>
      </trkpt>
      <trkpt lat="49.05612" lon="1.2882">
        <ele>323</ele>
        <time>2017-09-24T08:50:48Z</time>
      </trkpt>
      <trkpt lat="49.0558" lon="1.28801">
        <ele>322</ele>
        <time>2017-09-24T08:50:53Z</time>
      </trkpt>
      <trkpt lat="49.0556" lon="1.28778">
        <ele>317</ele>
        <time>2017-09-24T08:50:58Z</time>
      </trkpt>
      <trkpt lat="49.05551" lon="1.28738">
        <ele>315</ele>
        <time>2017-09-24T08:51:03Z</time>
      </trkpt>
      <trkpt lat="49.05545" lon="1.28699">
        <ele>315</ele>
        <time>2017-09-24T08:51:08Z</time>
      </trkpt>
      <trkpt lat="49.05533" lon="1.28655">
        <ele>315</ele>
        <time>2017-09-24T08:51:13Z</time>
      </trkpt>
      <trkpt lat="49.0551" lon="1.28652">
        <ele>314</ele>
        <time>2017-09-24T08:51:18Z</time>
      </trkpt>
      <trkpt lat="49.0549" lon="1.2866">
        <ele>314</ele>
        <time>2017-09-24T08:51:23Z</time>
      </trkpt>
      <trkpt lat="49.05472" lon="1.2867">
        <ele>314</ele>
        <time>2017-09-24T08:51:28Z</time>
      </trkpt>
      <trkpt lat="49.05456" lon="1.28679">
        <ele>314</ele>
        <time>2017-09-24T08:51:33Z</time>
      </trkpt>
      <trkpt lat="49.0544" lon="1.2869">
        <ele>315</ele>
        <time>2017-09-24T08:51:38Z</time>
      </trkpt>
      <trkpt lat="49.05422" lon="1.28698">
        <ele>316</ele>
        <time>2017-09-24T08:51:43Z</time>
      </trkpt>
      <trkpt lat="49.05405" lon="1.28696">
        <ele>317</ele>
        <time>2017-09-24T08:51:48Z</time>
      </trkpt>
      <trkpt lat="49.05385" lon="1.28691">
        <ele>319</ele>
        <time>2017-09-24T08:51:53Z</time>
      </trkpt>
      <trkpt lat="49.05368" lon="1.28685">
        <ele>320</ele>
        <time>2017-09-24T08:51:58Z</time>
      </trkpt>
      <trkpt lat="49.05351" lon="1.28678">
        <ele>321</ele>
        <time>2017-09-24T08:52:03Z</time>
      </trkpt>
      <trkpt lat="49.05336" lon="1.28672">
        <ele>321</ele>
        <time>2017-09-24T08:52:08Z</time>
      </trkpt>
      <trkpt lat="49.05324" lon="1.28661">
        <ele>322</ele>
        <time>2017-09-24T08:52:13Z</time>
      </trkpt>
      <trkpt lat="49.0531" lon="1.28648">
        <ele>322</ele>
        <time>2017-09-24T08:52:18Z</time>
      </trkpt>
      <trkpt lat="49.05295" lon="1.28632">
        <ele>322</ele>
        <time>2017-09-24T08:52:23Z</time>
      </trkpt>
      <trkpt lat="49.05278" lon="1.28616">
        <ele>322</ele>
        <time>2017-09-24T08:52:28Z</time>
      </trkpt>
      <trkpt lat="49.0526" lon="1.28597">
        <ele>322</ele>
        <time>2017-09-24T08:52:33Z</time>
      </trkpt>
      <trkpt lat="49.05243" lon="1.28576">
        <ele>322</ele>
        <time>2017-09-24T08:52:38Z</time>
      </trkpt>
      <trkpt lat="49.05225" lon="1.28551">
        <ele>322</ele>
        <time>2017-09-24T08:52:43Z</time>
      </trkpt>
      <trkpt lat="49.05207" lon="1.28531">
        <ele>323</ele>
        <time>2017-09-24T08:52:48Z</time>
      </trkpt>
      <trkpt lat="49.05187" lon="1.28508">
        <ele>323</ele>
        <time>2017-09-24T08:52:53Z</time>
      </trkpt>
      <trkpt lat="49.05167" lon="1.28483">
        <ele>323</ele>
        <time>2017-09-24T08:52:58Z</time>
      </trkpt>
      <trkpt lat="49.05147" lon="1.2846">
        <ele>323</ele>
        <time>2017-09-24T08:53:03Z</time>
      </trkpt>
      <trkpt lat="49.05133" lon="1.28442">
        <ele>323</ele>
        <time>2017-09-24T08:53:08Z</time>
      </trkpt>
      <trkpt lat="49.0512" lon="1.28421">
        <ele>323</ele>
        <time>2017-09-24T08:53:13Z</time>
      </trkpt>
      <trkpt lat="49.05108" lon="1.28398">
        <ele>324</ele>
        <time>2017-09-24T08:53:18Z</time>
      </trkpt>
      <trkpt lat="49.05102" lon="1.28375">
        <ele>325</ele>
        <time>2017-09-24T08:53:23Z</time>
      </trkpt>
      <trkpt lat="49.05103" lon="1.28354">
        <ele>325</ele>
        <time>2017-09-24T08:53:28Z</time>
      </trkpt>
      <trkpt lat="49.05105" lon="1.28329">
        <ele>325</ele>
        <time>2017-09-24T08:53:33Z</time>
      </trkpt>
      <trkpt lat="49.05109" lon="1.28302">
        <ele>325</ele>
        <time>2017-09-24T08:53:38Z</time>
      </trkpt>
      <trkpt lat="49.05111" lon="1.28275">
        <ele>325</ele>
        <time>2017-09-24T08:53:43Z</time>
      </trkpt>
      <trkpt lat="49.05116" lon="1.2826">
        <ele>325</ele>
        <time>2017-09-24T08:53:48Z</time>
      </trkpt>
      <trkpt lat="49.05127" lon="1.28262">
        <ele>326</ele>
        <time>2017-09-24T08:53:53Z</time>
      </trkpt>
      <trkpt lat="49.05136" lon="1.28265">
        <ele>326</ele>
        <time>2017-09-24T08:53:58Z</time>
      </trkpt>
      <trkpt lat="49.0515" lon="1.28271">
        <ele>326</ele>
        <time>2017-09-24T08:54:03Z</time>
      </trkpt>
      <trkpt lat="49.05165" lon="1.28272">
        <ele>326</ele>
        <time>2017-09-24T08:54:08Z</time>
      </trkpt>
      <trkpt lat="49.05177" lon="1.28258">
        <ele>327</ele>
        <time>2017-09-24T08:54:13Z</time>
      </trkpt>
      <trkpt lat="49.05189" lon="1.28241">
        <ele>327</ele>
        <time>2017-09-24T08:54:18Z</time>
      </trkpt>
      <trkpt lat="49.05199" lon="1.28217">
        <ele>327</ele>
        <time>2017-09-24T08:54:23Z</time>
      </trkpt>
      <trkpt lat="49.05211" lon="1.28194">
        <ele>327</ele>
        <time>2017-09-24T08:54:28Z</time>
      </trkpt>
      <trkpt lat="49.05227" lon="1.28176">
        <ele>327</ele>
        <time>2017-09-24T08:54:33Z</time>
      </trkpt>
      <trkpt lat="49.05242" lon="1.28157">
        <ele>328</ele>
        <time>2017-09-24T08:54:38Z</time>
      </trkpt>
      <trkpt lat="49.05258" lon="1.28138">
        <ele>329</ele>
        <time>2017-09-24T08:54:43Z</time>
      </trkpt>
      <trkpt lat="49.05274" lon="1.28113">
        <ele>329</ele>
        <time>2017-09-24T08:54:48Z</time>
      </trkpt>
      <trkpt lat="49.05287" lon="1.28087">
        <ele>329</ele>
        <time>2017-09-24T08:54:53Z</time>
      </trkpt>
      <trkpt lat="49.05305" lon="1.28059">
        <ele>329</ele>
        <time>2017-09-24T08:54:58Z</time>
      </trkpt>
      <trkpt lat="49.05323" lon="1.28036">
        <ele>329</ele>
        <time>2017-09-24T08:55:03Z</time>
      </trkpt>
      <trkpt lat="49.05336" lon="1.28008">
        <ele>329</ele>
        <time>2017-09-24T08:55:08Z</time>
      </trkpt>
      <trkpt lat="49.05355" lon="1.27981">
        <ele>329</ele>
        <time>2017-09-24T08:55:13Z</time>
      </trkpt>
      <trkpt lat="49.05369" lon="1.27956">
        <ele>329</ele>
        <time>2017-09-24T08:55:18Z</time>
      </trkpt>
      <trkpt lat="49.05383" lon="1.27927">
        <ele>329</ele>
        <time>2017-09-24T08:55:23Z</time>
      </trkpt>
      <trkpt lat="49.05396" lon="1.27899">
        <ele>329</ele>
        <time>2017-09-24T08:55:28Z</time>
      </trkpt>
      <trkpt lat="49.05409" lon="1.27871">
        <ele>330</ele>
        <time>2017-09-24T08:55:33Z</time>
      </trkpt>
      <trkpt lat="49.05425" lon="1.27844">
        <ele>330</ele>
        <time>2017-09-24T08:55:38Z</time>
      </trkpt>
      <trkpt lat="49.05441" lon="1.27822">
        <ele>330</ele>
        <time>2017-09-24T08:55:43Z</time>
      </trkpt>
      <trkpt lat="49.05458" lon="1.27801">
        <ele>330</ele>
        <time>2017-09-24T08:55:48Z</time>
      </trkpt>
      <trkpt lat="49.05473" lon="1.27775">
        <ele>330</ele>
        <time>2017-09-24T08:55:53Z</time>
      </trkpt>
      <trkpt lat="49.05488" lon="1.27749">
        <ele>331</ele>
        <time>2017-09-24T08:55:58Z</time>
      </trkpt>
      <trkpt lat="49.05505" lon="1.2772">
        <ele>331</ele>
        <time>2017-09-24T08:56:03Z</time>
      </trkpt>
      <trkpt lat="49.05522" lon="1.2769">
        <ele>331</ele>
        <time>2017-09-24T08:56:08Z</time>
      </trkpt>
      <trkpt lat="49.05539" lon="1.27662">
        <ele>331</ele>
        <time>2017-09-24T08:56:13Z</time>
      </trkpt>
      <trkpt lat="49.05555" lon="1.27633">
        <ele>332</ele>
        <time>2017-09-24T08:56:18Z</time>
      </trkpt>
      <trkpt lat="49.05571" lon="1.27607">
        <ele>333</ele>
        <time>2017-09-24T08:56:23Z</time>
      </trkpt>
      <trkpt lat="49.05587" lon="1.27578">
        <ele>333</ele>
        <time>2017-09-24T08:56:28Z</time>
      </trkpt>
      <trkpt lat="49.05602" lon="1.27545">
        <ele>334</ele>
        <time>2017-09-24T08:56:33Z</time>
      </trkpt>
      <trkpt lat="49.05619" lon="1.27514">
        <ele>334</ele>
        <time>2017-09-24T08:56:38Z</time>
      </trkpt>
      <trkpt lat="49.05637" lon="1.27485">
        <ele>334</ele>
        <time>2017-09-24T08:56:43Z</time>
      </trkpt>
      <trkpt lat="49.05656" lon="1.27455">
        <ele>334</ele>
        <time>2017-09-24T08:56:48Z</time>
      </trkpt>
      <trkpt lat="49.05675" lon="1.27424">
        <ele>334</ele>
        <time>2017-09-24T08:56:53Z</time>
      </trkpt>
      <trkpt lat="49.05694" lon="1.27395">
        <ele>334</ele>
        <time>2017-09-24T08:56:58Z</time>
      </trkpt>
      <trkpt lat="49.05712" lon="1.27366">
        <ele>334</ele>
        <time>2017-09-24T08:57:03Z</time>
      </trkpt>
      <trkpt lat="49.05717" lon="1.27348">
        <ele>332</ele>
        <time>2017-09-24T08:57:08Z</time>
      </trkpt>
      <trkpt lat="49.05713" lon="1.27359">
        <ele>332</ele>
        <time>2017-09-24T08:57:13Z</time>
      </trkpt>
      <trkpt lat="49.05708" lon="1.27369">
        <ele>332</ele>
        <time>2017-09-24T08:57:18Z</time>
      </trkpt>
      <trkpt lat="49.05706" lon="1.27375">
        <ele>332</ele>
        <time>2017-09-24T08:57:23Z</time>
      </trkpt>
      <trkpt lat="49.05705" lon="1.27372">
        <ele>332</ele>
        <time>2017-09-24T08:57:28Z</time>
      </trkpt>
      <trkpt lat="49.05708" lon="1.27363">
        <ele>332</ele>
        <time>2017-09-24T08:57:33Z</time>
      </trkpt>
      <trkpt lat="49.05709" lon="1.27362">
        <ele>332</ele>
        <time>2017-09-24T08:57:37Z</time>
      </trkpt>
      <trkpt lat="49.05716" lon="1.27355">
        <ele>332</ele>
        <time>2017-09-24T08:57:57Z</time>
      </trkpt>
      <trkpt lat="49.05718" lon="1.27349">
        <ele>332</ele>
        <time>2017-09-24T08:58:02Z</time>
      </trkpt>
      <trkpt lat="49.0572" lon="1.27347">
        <ele>332</ele>
        <time>2017-09-24T08:58:07Z</time>
      </trkpt>
      <trkpt lat="49.05721" lon="1.27347">
        <ele>332</ele>
        <time>2017-09-24T08:58:08Z</time>
      </trkpt>
      <trkpt lat="49.05718" lon="1.27362">
        <ele>332</ele>
        <time>2017-09-24T08:58:14Z</time>
      </trkpt>
      <trkpt lat="49.057" lon="1.27388">
        <ele>332</ele>
        <time>2017-09-24T08:58:20Z</time>
      </trkpt>
      <trkpt lat="49.05686" lon="1.27411">
        <ele>332</ele>
        <time>2017-09-24T08:58:25Z</time>
      </trkpt>
      <trkpt lat="49.05672" lon="1.27434">
        <ele>333</ele>
        <time>2017-09-24T08:58:30Z</time>
      </trkpt>
      <trkpt lat="49.05659" lon="1.27456">
        <ele>333</ele>
        <time>2017-09-24T08:58:35Z</time>
      </trkpt>
      <trkpt lat="49.05644" lon="1.2748">
        <ele>334</ele>
        <time>2017-09-24T08:58:40Z</time>
      </trkpt>
      <trkpt lat="49.05627" lon="1.27508">
        <ele>334</ele>
        <time>2017-09-24T08:58:45Z</time>
      </trkpt>
      <trkpt lat="49.05617" lon="1.27523">
        <ele>334</ele>
        <time>2017-09-24T08:58:50Z</time>
      </trkpt>
      <trkpt lat="49.05612" lon="1.27533">
        <ele>334</ele>
        <time>2017-09-24T08:58:55Z</time>
      </trkpt>
      <trkpt lat="49.05601" lon="1.27551">
        <ele>334</ele>
        <time>2017-09-24T08:59:00Z</time>
      </trkpt>
      <trkpt lat="49.05578" lon="1.27588">
        <ele>334</ele>
        <time>2017-09-24T08:59:06Z</time>
      </trkpt>
      <trkpt lat="49.05562" lon="1.27613">
        <ele>334</ele>
        <time>2017-09-24T08:59:10Z</time>
      </trkpt>
      <trkpt lat="49.05547" lon="1.27639">
        <ele>332</ele>
        <time>2017-09-24T08:59:16Z</time>
      </trkpt>
      <trkpt lat="49.05548" lon="1.27638">
        <ele>332</ele>
        <time>2017-09-24T08:59:21Z</time>
      </trkpt>
      <trkpt lat="49.05555" lon="1.27624">
        <ele>332</ele>
        <time>2017-09-24T08:59:26Z</time>
      </trkpt>
      <trkpt lat="49.05568" lon="1.27602">
        <ele>332</ele>
        <time>2017-09-24T08:59:31Z</time>
      </trkpt>
      <trkpt lat="49.05584" lon="1.27579">
        <ele>333</ele>
        <time>2017-09-24T08:59:36Z</time>
      </trkpt>
      <trkpt lat="49.05597" lon="1.27551">
        <ele>333</ele>
        <time>2017-09-24T08:59:41Z</time>
      </trkpt>
      <trkpt lat="49.05606" lon="1.27536">
        <ele>333</ele>
        <time>2017-09-24T08:59:46Z</time>
      </trkpt>
      <trkpt lat="49.05607" lon="1.27534">
        <ele>333</ele>
        <time>2017-09-24T08:59:51Z</time>
      </trkpt>
      <trkpt lat="49.05615" lon="1.2752">
        <ele>334</ele>
        <time>2017-09-24T09:00:00Z</time>
      </trkpt>
      <trkpt lat="49.05621" lon="1.27506">
        <ele>334</ele>
        <time>2017-09-24T09:00:05Z</time>
      </trkpt>
      <trkpt lat="49.05641" lon="1.27473">
        <ele>334</ele>
        <time>2017-09-24T09:00:11Z</time>
      </trkpt>
      <trkpt lat="49.05657" lon="1.27446">
        <ele>334</ele>
        <time>2017-09-24T09:00:15Z</time>
      </trkpt>
      <trkpt lat="49.0568" lon="1.27405">
        <ele>334</ele>
        <time>2017-09-24T09:00:20Z</time>
      </trkpt>
      <trkpt lat="49.05704" lon="1.27365">
        <ele>334</ele>
        <time>2017-09-24T09:00:26Z</time>
      </trkpt>
      <trkpt lat="49.05728" lon="1.27324">
        <ele>332</ele>
        <time>2017-09-24T09:00:31Z</time>
      </trkpt>
      <trkpt lat="49.05757" lon="1.27277">
        <ele>332</ele>
        <time>2017-09-24T09:00:36Z</time>
      </trkpt>
      <trkpt lat="49.05786" lon="1.2723">
        <ele>332</ele>
        <time>2017-09-24T09:00:41Z</time>
      </trkpt>
      <trkpt lat="49.05818" lon="1.27175">
        <ele>332</ele>
        <time>2017-09-24T09:00:47Z</time>
      </trkpt>
      <trkpt lat="49.05846" lon="1.27131">
        <ele>332</ele>
        <time>2017-09-24T09:00:52Z</time>
      </trkpt>
      <trkpt lat="49.05873" lon="1.27086">
        <ele>332</ele>
        <time>2017-09-24T09:00:57Z</time>
      </trkpt>
      <trkpt lat="49.059" lon="1.27046">
        <ele>332</ele>
        <time>2017-09-24T09:01:02Z</time>
      </trkpt>
      <trkpt lat="49.05925" lon="1.27003">
        <ele>331</ele>
        <time>2017-09-24T09:01:07Z</time>
      </trkpt>
      <trkpt lat="49.05948" lon="1.26965">
        <ele>331</ele>
        <time>2017-09-24T09:01:12Z</time>
      </trkpt>
      <trkpt lat="49.05969" lon="1.26951">
        <ele>331</ele>
        <time>2017-09-24T09:01:17Z</time>
      </trkpt>
      <trkpt lat="49.05987" lon="1.26984">
        <ele>332</ele>
        <time>2017-09-24T09:01:22Z</time>
      </trkpt>
      <trkpt lat="49.06005" lon="1.2702">
        <ele>333</ele>
        <time>2017-09-24T09:01:27Z</time>
      </trkpt>
      <trkpt lat="49.06019" lon="1.27046">
        <ele>333</ele>
        <time>2017-09-24T09:01:32Z</time>
      </trkpt>
      <trkpt lat="49.06034" lon="1.27077">
        <ele>333</ele>
        <time>2017-09-24T09:01:37Z</time>
      </trkpt>
      <trkpt lat="49.06054" lon="1.27119">
        <ele>331</ele>
        <time>2017-09-24T09:01:42Z</time>
      </trkpt>
      <trkpt lat="49.06077" lon="1.27168">
        <ele>330</ele>
        <time>2017-09-24T09:01:47Z</time>
      </trkpt>
      <trkpt lat="49.06104" lon="1.27225">
        <ele>327</ele>
        <time>2017-09-24T09:01:52Z</time>
      </trkpt>
      <trkpt lat="49.06127" lon="1.27275">
        <ele>323</ele>
        <time>2017-09-24T09:01:57Z</time>
      </trkpt>
      <trkpt lat="49.06145" lon="1.27298">
        <ele>321</ele>
        <time>2017-09-24T09:02:02Z</time>
      </trkpt>
      <trkpt lat="49.06164" lon="1.27332">
        <ele>318</ele>
        <time>2017-09-24T09:02:07Z</time>
      </trkpt>
      <trkpt lat="49.06193" lon="1.27374">
        <ele>313</ele>
        <time>2017-09-24T09:02:12Z</time>
      </trkpt>
      <trkpt lat="49.06217" lon="1.27431">
        <ele>307</ele>
        <time>2017-09-24T09:02:17Z</time>
      </trkpt>
      <trkpt lat="49.06231" lon="1.27499">
        <ele>300</ele>
        <time>2017-09-24T09:02:22Z</time>
      </trkpt>
      <trkpt lat="49.06243" lon="1.27562">
        <ele>295</ele>
        <time>2017-09-24T09:02:27Z</time>
      </trkpt>
      <trkpt lat="49.06246" lon="1.2762">
        <ele>292</ele>
        <time>2017-09-24T09:02:32Z</time>
      </trkpt>
      <trkpt lat="49.06248" lon="1.27681">
        <ele>288</ele>
        <time>2017-09-24T09:02:37Z</time>
      </trkpt>
      <trkpt lat="49.06251" lon="1.27741">
        <ele>284</ele>
        <time>2017-09-24T09:02:42Z</time>
      </trkpt>
      <trkpt lat="49.06258" lon="1.2779">
        <ele>284</ele>
        <time>2017-09-24T09:02:47Z</time>
      </trkpt>
      <trkpt lat="49.06278" lon="1.27843">
        <ele>280</ele>
        <time>2017-09-24T09:02:52Z</time>
      </trkpt>
      <trkpt lat="49.06295" lon="1.27896">
        <ele>279</ele>
        <time>2017-09-24T09:02:57Z</time>
      </trkpt>
      <trkpt lat="49.06314" lon="1.27949">
        <ele>277</ele>
        <time>2017-09-24T09:03:02Z</time>
      </trkpt>
      <trkpt lat="49.06327" lon="1.28009">
        <ele>275</ele>
        <time>2017-09-24T09:03:07Z</time>
      </trkpt>
      <trkpt lat="49.06347" lon="1.28061">
        <ele>274</ele>
        <time>2017-09-24T09:03:12Z</time>
      </trkpt>
      <trkpt lat="49.06362" lon="1.2812">
        <ele>272</ele>
        <time>2017-09-24T09:03:17Z</time>
      </trkpt>
      <trkpt lat="49.06382" lon="1.28179">
        <ele>270</ele>
        <time>2017-09-24T09:03:22Z</time>
      </trkpt>
      <trkpt lat="49.06394" lon="1.28242">
        <ele>268</ele>
        <time>2017-09-24T09:03:27Z</time>
      </trkpt>
      <trkpt lat="49.06411" lon="1.28298">
        <ele>266</ele>
        <time>2017-09-24T09:03:32Z</time>
      </trkpt>
      <trkpt lat="49.06424" lon="1.28346">
        <ele>264</ele>
        <time>2017-09-24T09:03:37Z</time>
      </trkpt>
      <trkpt lat="49.06439" lon="1.28388">
        <ele>263</ele>
        <time>2017-09-24T09:03:42Z</time>
      </trkpt>
      <trkpt lat="49.06454" lon="1.28433">
        <ele>261</ele>
        <time>2017-09-24T09:03:47Z</time>
      </trkpt>
      <trkpt lat="49.06476" lon="1.28486">
        <ele>261</ele>
        <time>2017-09-24T09:03:52Z</time>
      </trkpt>
      <trkpt lat="49.065" lon="1.28541">
        <ele>260</ele>
        <time>2017-09-24T09:03:57Z</time>
      </trkpt>
      <trkpt lat="49.06527" lon="1.28602">
        <ele>258</ele>
        <time>2017-09-24T09:04:02Z</time>
      </trkpt>
      <trkpt lat="49.06555" lon="1.28668">
        <ele>255</ele>
        <time>2017-09-24T09:04:07Z</time>
      </trkpt>
      <trkpt lat="49.06582" lon="1.28736">
        <ele>253</ele>
        <time>2017-09-24T09:04:12Z</time>
      </trkpt>
      <trkpt lat="49.0661" lon="1.28809">
        <ele>250</ele>
        <time>2017-09-24T09:04:17Z</time>
      </trkpt>
      <trkpt lat="49.06638" lon="1.28883">
        <ele>248</ele>
        <time>2017-09-24T09:04:22Z</time>
      </trkpt>
      <trkpt lat="49.06665" lon="1.28956">
        <ele>246</ele>
        <time>2017-09-24T09:04:27Z</time>
      </trkpt>
      <trkpt lat="49.06684" lon="1.29018">
        <ele>244</ele>
        <time>2017-09-24T09:04:32Z</time>
      </trkpt>
      <trkpt lat="49.06679" lon="1.29053">
        <ele>243</ele>
        <time>2017-09-24T09:04:37Z</time>
      </trkpt>
      <trkpt lat="49.0665" lon="1.2908">
        <ele>242</ele>
        <time>2017-09-24T09:04:42Z</time>
      </trkpt>
      <trkpt lat="49.06616" lon="1.29108">
        <ele>242</ele>
        <time>2017-09-24T09:04:47Z</time>
      </trkpt>
      <trkpt lat="49.0658" lon="1.29131">
        <ele>242</ele>
        <time>2017-09-24T09:04:52Z</time>
      </trkpt>
      <trkpt lat="49.06545" lon="1.29158">
        <ele>242</ele>
        <time>2017-09-24T09:04:57Z</time>
      </trkpt>
      <trkpt lat="49.06512" lon="1.29187">
        <ele>242</ele>
        <time>2017-09-24T09:05:02Z</time>
      </trkpt>
      <trkpt lat="49.06479" lon="1.29215">
        <ele>242</ele>
        <time>2017-09-24T09:05:07Z</time>
      </trkpt>
      <trkpt lat="49.06447" lon="1.29241">
        <ele>242</ele>
        <time>2017-09-24T09:05:12Z</time>
      </trkpt>
      <trkpt lat="49.06415" lon="1.29267">
        <ele>241</ele>
        <time>2017-09-24T09:05:17Z</time>
      </trkpt>
      <trkpt lat="49.06386" lon="1.29284">
        <ele>241</ele>
        <time>2017-09-24T09:05:22Z</time>
      </trkpt>
      <trkpt lat="49.0637" lon="1.29253">
        <ele>241</ele>
        <time>2017-09-24T09:05:27Z</time>
      </trkpt>
      <trkpt lat="49.06352" lon="1.29224">
        <ele>241</ele>
        <time>2017-09-24T09:05:32Z</time>
      </trkpt>
      <trkpt lat="49.06324" lon="1.29237">
        <ele>241</ele>
        <time>2017-09-24T09:05:37Z</time>
      </trkpt>
      <trkpt lat="49.06296" lon="1.29257">
        <ele>241</ele>
        <time>2017-09-24T09:05:42Z</time>
      </trkpt>
      <trkpt lat="49.06267" lon="1.2928">
        <ele>241</ele>
        <time>2017-09-24T09:05:47Z</time>
      </trkpt>
      <trkpt lat="49.06239" lon="1.29304">
        <ele>241</ele>
        <time>2017-09-24T09:05:52Z</time>
      </trkpt>
      <trkpt lat="49.06212" lon="1.29327">
        <ele>241</ele>
        <time>2017-09-24T09:05:57Z</time>
      </trkpt>
      <trkpt lat="49.06185" lon="1.2935">
        <ele>241</ele>
        <time>2017-09-24T09:06:02Z</time>
      </trkpt>
      <trkpt lat="49.06159" lon="1.29371">
        <ele>241</ele>
        <time>2017-09-24T09:06:07Z</time>
      </trkpt>
      <trkpt lat="49.06133" lon="1.29393">
        <ele>241</ele>
        <time>2017-09-24T09:06:12Z</time>
      </trkpt>
      <trkpt lat="49.06107" lon="1.29415">
        <ele>241</ele>
        <time>2017-09-24T09:06:17Z</time>
      </trkpt>
      <trkpt lat="49.06081" lon="1.29436">
        <ele>241</ele>
        <time>2017-09-24T09:06:22Z</time>
      </trkpt>
      <trkpt lat="49.06057" lon="1.29456">
        <ele>241</ele>
        <time>2017-09-24T09:06:27Z</time>
      </trkpt>
      <trkpt lat="49.06034" lon="1.29476">
        <ele>241</ele>
        <time>2017-09-24T09:06:32Z</time>
      </trkpt>
      <trkpt lat="49.06013" lon="1.29496">
        <ele>241</ele>
        <time>2017-09-24T09:06:37Z</time>
      </trkpt>
      <trkpt lat="49.06015" lon="1.29529">
        <ele>241</ele>
        <time>2017-09-24T09:06:42Z</time>
      </trkpt>
      <trkpt lat="49.06026" lon="1.29566">
        <ele>241</ele>
        <time>2017-09-24T09:06:47Z</time>
      </trkpt>
      <trkpt lat="49.06039" lon="1.29604">
        <ele>241</ele>
        <time>2017-09-24T09:06:52Z</time>
      </trkpt>
      <trkpt lat="49.06056" lon="1.29639">
        <ele>241</ele>
        <time>2017-09-24T09:06:57Z</time>
      </trkpt>
      <trkpt lat="49.06075" lon="1.29674">
        <ele>241</ele>
        <time>2017-09-24T09:07:02Z</time>
      </trkpt>
      <trkpt lat="49.06089" lon="1.29707">
        <ele>241</ele>
        <time>2017-09-24T09:07:07Z</time>
      </trkpt>
      <trkpt lat="49.06078" lon="1.29726">
        <ele>241</ele>
        <time>2017-09-24T09:07:12Z</time>
      </trkpt>
      <trkpt lat="49.06051" lon="1.29738">
        <ele>241</ele>
        <time>2017-09-24T09:07:17Z</time>
      </trkpt>
      <trkpt lat="49.06023" lon="1.29749">
        <ele>241</ele>
        <time>2017-09-24T09:07:22Z</time>
      </trkpt>
      <trkpt lat="49.05996" lon="1.29757">
        <ele>241</ele>
        <time>2017-09-24T09:07:27Z</time>
      </trkpt>
      <trkpt lat="49.05968" lon="1.29764">
        <ele>241</ele>
        <time>2017-09-24T09:07:32Z</time>
      </trkpt>
      <trkpt lat="49.05941" lon="1.29769">
        <ele>241</ele>
        <time>2017-09-24T09:07:37Z</time>
      </trkpt>
      <trkpt lat="49.05914" lon="1.29774">
        <ele>241</ele>
        <time>2017-09-24T09:07:42Z</time>
      </trkpt>
      <trkpt lat="49.05887" lon="1.29781">
        <ele>241</ele>
        <time>2017-09-24T09:07:47Z</time>
      </trkpt>
      <trkpt lat="49.0586" lon="1.29792">
        <ele>241</ele>
        <time>2017-09-24T09:07:52Z</time>
      </trkpt>
      <trkpt lat="49.05835" lon="1.29808">
        <ele>242</ele>
        <time>2017-09-24T09:07:57Z</time>
      </trkpt>
      <trkpt lat="49.05821" lon="1.29823">
        <ele>242</ele>
        <time>2017-09-24T09:08:02Z</time>
      </trkpt>
      <trkpt lat="49.05831" lon="1.29849">
        <ele>242</ele>
        <time>2017-09-24T09:08:07Z</time>
      </trkpt>
      <trkpt lat="49.05851" lon="1.29882">
        <ele>242</ele>
        <time>2017-09-24T09:08:12Z</time>
      </trkpt>
      <trkpt lat="49.05872" lon="1.29917">
        <ele>242</ele>
        <time>2017-09-24T09:08:17Z</time>
      </trkpt>
      <trkpt lat="49.05891" lon="1.29949">
        <ele>242</ele>
        <time>2017-09-24T09:08:22Z</time>
      </trkpt>
      <trkpt lat="49.05909" lon="1.29979">
        <ele>242</ele>
        <time>2017-09-24T09:08:27Z</time>
      </trkpt>
      <trkpt lat="49.05928" lon="1.30012">
        <ele>242</ele>
        <time>2017-09-24T09:08:32Z</time>
      </trkpt>
      <trkpt lat="49.05948" lon="1.30045">
        <ele>242</ele>
        <time>2017-09-24T09:08:37Z</time>
      </trkpt>
      <trkpt lat="49.05968" lon="1.30077">
        <ele>242</ele>
        <time>2017-09-24T09:08:42Z</time>
      </trkpt>
      <trkpt lat="49.05987" lon="1.30109">
        <ele>242</ele>
        <time>2017-09-24T09:08:47Z</time>
      </trkpt>
      <trkpt lat="49.06005" lon="1.30141">
        <ele>242</ele>
        <time>2017-09-24T09:08:52Z</time>
      </trkpt>
      <trkpt lat="49.06023" lon="1.30173">
        <ele>242</ele>
        <time>2017-09-24T09:08:57Z</time>
      </trkpt>
      <trkpt lat="49.0604" lon="1.30203">
        <ele>242</ele>
        <time>2017-09-24T09:09:02Z</time>
      </trkpt>
      <trkpt lat="49.06055" lon="1.30227">
        <ele>242</ele>
        <time>2017-09-24T09:09:07Z</time>
      </trkpt>
      <trkpt lat="49.06072" lon="1.30255">
        <ele>242</ele>
        <time>2017-09-24T09:09:12Z</time>
      </trkpt>
      <trkpt lat="49.06092" lon="1.30283">
        <ele>242</ele>
        <time>2017-09-24T09:09:17Z</time>
      </trkpt>
      <trkpt lat="49.06111" lon="1.30315">
        <ele>242</ele>
        <time>2017-09-24T09:09:22Z</time>
      </trkpt>
      <trkpt lat="49.06139" lon="1.30341">
        <ele>242</ele>
        <time>2017-09-24T09:09:27Z</time>
      </trkpt>
      <trkpt lat="49.06165" lon="1.30367">
        <ele>242</ele>
        <time>2017-09-24T09:09:32Z</time>
      </trkpt>
      <trkpt lat="49.06191" lon="1.3039">
        <ele>242</ele>
        <time>2017-09-24T09:09:37Z</time>
      </trkpt>
      <trkpt lat="49.06217" lon="1.30415">
        <ele>242</ele>
        <time>2017-09-24T09:09:42Z</time>
      </trkpt>
      <trkpt lat="49.06244" lon="1.3044">
        <ele>242</ele>
        <time>2017-09-24T09:09:47Z</time>
      </trkpt>
      <trkpt lat="49.06262" lon="1.30478">
        <ele>242</ele>
        <time>2017-09-24T09:09:52Z</time>
      </trkpt>
      <trkpt lat="49.06283" lon="1.30514">
        <ele>242</ele>
        <time>2017-09-24T09:09:57Z</time>
      </trkpt>
      <trkpt lat="49.06294" lon="1.30554">
        <ele>242</ele>
        <time>2017-09-24T09:10:02Z</time>
      </trkpt>
      <trkpt lat="49.06275" lon="1.3059">
        <ele>242</ele>
        <time>2017-09-24T09:10:07Z</time>
      </trkpt>
      <trkpt lat="49.06253" lon="1.30624">
        <ele>242</ele>
        <time>2017-09-24T09:10:12Z</time>
      </trkpt>
      <trkpt lat="49.06232" lon="1.30658">
        <ele>242</ele>
        <time>2017-09-24T09:10:17Z</time>
      </trkpt>
      <trkpt lat="49.06211" lon="1.30692">
        <ele>242</ele>
        <time>2017-09-24T09:10:22Z</time>
      </trkpt>
      <trkpt lat="49.06191" lon="1.30727">
        <ele>242</ele>
        <time>2017-09-24T09:10:27Z</time>
      </trkpt>
      <trkpt lat="49.06171" lon="1.30762">
        <ele>242</ele>
        <time>2017-09-24T09:10:32Z</time>
      </trkpt>
      <trkpt lat="49.06152" lon="1.30798">
        <ele>242</ele>
        <time>2017-09-24T09:10:37Z</time>
      </trkpt>
      <trkpt lat="49.06132" lon="1.30833">
        <ele>243</ele>
        <time>2017-09-24T09:10:42Z</time>
      </trkpt>
      <trkpt lat="49.06126" lon="1.30863">
        <ele>243</ele>
        <time>2017-09-24T09:10:47Z</time>
      </trkpt>
      <trkpt lat="49.06147" lon="1.30881">
        <ele>243</ele>
        <time>2017-09-24T09:10:52Z</time>
      </trkpt>
      <trkpt lat="49.06172" lon="1.30888">
        <ele>243</ele>
        <time>2017-09-24T09:10:57Z</time>
      </trkpt>
      <trkpt lat="49.06198" lon="1.3089">
        <ele>243</ele>
        <time>2017-09-24T09:11:02Z</time>
      </trkpt>
      <trkpt lat="49.06225" lon="1.30889">
        <ele>243</ele>
        <time>2017-09-24T09:11:07Z</time>
      </trkpt>
      <trkpt lat="49.06251" lon="1.30887">
        <ele>243</ele>
        <time>2017-09-24T09:11:12Z</time>
      </trkpt>
      <trkpt lat="49.06278" lon="1.30884">
        <ele>243</ele>
        <time>2017-09-24T09:11:17Z</time>
      </trkpt>
      <trkpt lat="49.06308" lon="1.30885">
        <ele>243</ele>
        <time>2017-09-24T09:11:22Z</time>
      </trkpt>
      <trkpt lat="49.06339" lon="1.30891">
        <ele>243</ele>
        <time>2017-09-24T09:11:27Z</time>
      </trkpt>
      <trkpt lat="49.06369" lon="1.30897">
        <ele>243</ele>
        <time>2017-09-24T09:11:32Z</time>
      </trkpt>
      <trkpt lat="49.06398" lon="1.30887">
        <ele>243</ele>
        <time>2017-09-24T09:11:37Z</time>
      </trkpt>
      <trkpt lat="49.06423" lon="1.30859">
        <ele>243</ele>
        <time>2017-09-24T09:11:42Z</time>
      </trkpt>
      <trkpt lat="49.06446" lon="1.30828">
        <ele>243</ele>
        <time>2017-09-24T09:11:47Z</time>
      </trkpt>
      <trkpt lat="49.06466" lon="1.30794">
        <ele>243</ele>
        <time>2017-09-24T09:11:52Z</time>
      </trkpt>
      <trkpt lat="49.06484" lon="1.30757">
        <ele>243</ele>
        <time>2017-09-24T09:11:57Z</time>
      </trkpt>
      <trkpt lat="49.06495" lon="1.30746">
        <ele>243</ele>
        <time>2017-09-24T09:12:02Z</time>
      </trkpt>
      <trkpt lat="49.06506" lon="1.30764">
        <ele>242</ele>
        <time>2017-09-24T09:12:07Z</time>
      </trkpt>
      <trkpt lat="49.06516" lon="1.30779">
        <ele>242</ele>
        <time>2017-09-24T09:12:12Z</time>
      </trkpt>
      <trkpt lat="49.06529" lon="1.30801">
        <ele>242</ele>
        <time>2017-09-24T09:12:17Z</time>
      </trkpt>
      <trkpt lat="49.06544" lon="1.30825">
        <ele>242</ele>
        <time>2017-09-24T09:12:22Z</time>
      </trkpt>
      <trkpt lat="49.0656" lon="1.30852">
        <ele>242</ele>
        <time>2017-09-24T09:12:27Z</time>
      </trkpt>
      <trkpt lat="49.06576" lon="1.30879">
        <ele>242</ele>
        <time>2017-09-24T09:12:32Z</time>
      </trkpt>
      <trkpt lat="49.06592" lon="1.30907">
        <ele>242</ele>
        <time>2017-09-24T09:12:37Z</time>
      </trkpt>
      <trkpt lat="49.06609" lon="1.30935">
        <ele>242</ele>
        <time>2017-09-24T09:12:42Z</time>
      </trkpt>
      <trkpt lat="49.06625" lon="1.30952">
        <ele>242</ele>
        <time>2017-09-24T09:12:47Z</time>
      </trkpt>
      <trkpt lat="49.0663" lon="1.30966">
        <ele>242</ele>
        <time>2017-09-24T09:12:52Z</time>
      </trkpt>
      <trkpt lat="49.06626" lon="1.30974">
        <ele>242</ele>
        <time>2017-09-24T09:12:57Z</time>
      </trkpt>
      <trkpt lat="49.06626" lon="1.30978">
        <ele>243</ele>
        <time>2017-09-24T09:13:01Z</time>
      </trkpt>
      <trkpt lat="49.06616" lon="1.30997">
        <ele>243</ele>
        <time>2017-09-24T09:13:06Z</time>
      </trkpt>
      <trkpt lat="49.06603" lon="1.31025">
        <ele>243</ele>
        <time>2017-09-24T09:13:11Z</time>
      </trkpt>
      <trkpt lat="49.06586" lon="1.31057">
        <ele>243</ele>
        <time>2017-09-24T09:13:16Z</time>
      </trkpt>
      <trkpt lat="49.0657" lon="1.31088">
        <ele>243</ele>
        <time>2017-09-24T09:13:21Z</time>
      </trkpt>
      <trkpt lat="49.06554" lon="1.31119">
        <ele>243</ele>
        <time>2017-09-24T09:13:26Z</time>
      </trkpt>
      <trkpt lat="49.06537" lon="1.31151">
        <ele>243</ele>
        <time>2017-09-24T09:13:31Z</time>
      </trkpt>
      <trkpt lat="49.06519" lon="1.31185">
        <ele>243</ele>
        <time>2017-09-24T09:13:36Z</time>
      </trkpt>
      <trkpt lat="49.06501" lon="1.31221">
        <ele>243</ele>
        <time>2017-09-24T09:13:41Z</time>
      </trkpt>
      <trkpt lat="49.06482" lon="1.31258">
        <ele>243</ele>
        <time>2017-09-24T09:13:46Z</time>
      </trkpt>
      <trkpt lat="49.06464" lon="1.31294">
        <ele>243</ele>
        <time>2017-09-24T09:13:51Z</time>
      </trkpt>
      <trkpt lat="49.06443" lon="1.31331">
        <ele>243</ele>
        <time>2017-09-24T09:13:56Z</time>
      </trkpt>
      <trkpt lat="49.06424" lon="1.3137">
        <ele>243</ele>
        <time>2017-09-24T09:14:01Z</time>
      </trkpt>
      <trkpt lat="49.06403" lon="1.31411">
        <ele>243</ele>
        <time>2017-09-24T09:14:06Z</time>
      </trkpt>
      <trkpt lat="49.06381" lon="1.31451">
        <ele>243</ele>
        <time>2017-09-24T09:14:11Z</time>
      </trkpt>
      <trkpt lat="49.0636" lon="1.31493">
        <ele>243</ele>
        <time>2017-09-24T09:14:16Z</time>
      </trkpt>
      <trkpt lat="49.06338" lon="1.31537">
        <ele>243</ele>
        <time>2017-09-24T09:14:21Z</time>
      </trkpt>
      <trkpt lat="49.06318" lon="1.31578">
        <ele>243</ele>
        <time>2017-09-24T09:14:26Z</time>
      </trkpt>
      <trkpt lat="49.06297" lon="1.31619">
        <ele>243</ele>
        <time>2017-09-24T09:14:31Z</time>
      </trkpt>
      <trkpt lat="49.06275" lon="1.3166">
        <ele>243</ele>
        <time>2017-09-24T09:14:36Z</time>
      </trkpt>
      <trkpt lat="49.06254" lon="1.31699">
        <ele>243</ele>
        <time>2017-09-24T09:14:41Z</time>
      </trkpt>
      <trkpt lat="49.06235" lon="1.31735">
        <ele>243</ele>
        <time>2017-09-24T09:14:46Z</time>
      </trkpt>
      <trkpt lat="49.06216" lon="1.31772">
        <ele>243</ele>
        <time>2017-09-24T09:14:51Z</time>
      </trkpt>
      <trkpt lat="49.06196" lon="1.31808">
        <ele>243</ele>
        <time>2017-09-24T09:14:56Z</time>
      </trkpt>
      <trkpt lat="49.06177" lon="1.31845">
        <ele>243</ele>
        <time>2017-09-24T09:15:01Z</time>
      </trkpt>
      <trkpt lat="49.06157" lon="1.31884">
        <ele>243</ele>
        <time>2017-09-24T09:15:06Z</time>
      </trkpt>
      <trkpt lat="49.06137" lon="1.31923">
        <ele>243</ele>
        <time>2017-09-24T09:15:11Z</time>
      </trkpt>
      <trkpt lat="49.06116" lon="1.31961">
        <ele>243</ele>
        <time>2017-09-24T09:15:16Z</time>
      </trkpt>
      <trkpt lat="49.06095" lon="1.31999">
        <ele>243</ele>
        <time>2017-09-24T09:15:21Z</time>
      </trkpt>
      <trkpt lat="49.06076" lon="1.32036">
        <ele>243</ele>
        <time>2017-09-24T09:15:26Z</time>
      </trkpt>
      <trkpt lat="49.06055" lon="1.32052">
        <ele>243</ele>
        <time>2017-09-24T09:15:31Z</time>
      </trkpt>
      <trkpt lat="49.06033" lon="1.32029">
        <ele>243</ele>
        <time>2017-09-24T09:15:36Z</time>
      </trkpt>
      <trkpt lat="49.06006" lon="1.31999">
        <ele>243</ele>
        <time>2017-09-24T09:15:41Z</time>
      </trkpt>
      <trkpt lat="49.05986" lon="1.31962">
        <ele>243</ele>
        <time>2017-09-24T09:15:46Z</time>
      </trkpt>
      <trkpt lat="49.05967" lon="1.31924">
        <ele>243</ele>
        <time>2017-09-24T09:15:51Z</time>
      </trkpt>
      <trkpt lat="49.05949" lon="1.31891">
        <ele>243</ele>
        <time>2017-09-24T09:15:56Z</time>
      </trkpt>
      <trkpt lat="49.0593" lon="1.31855">
        <ele>243</ele>
        <time>2017-09-24T09:16:01Z</time>
      </trkpt>
      <trkpt lat="49.05909" lon="1.31813">
        <ele>243</ele>
        <time>2017-09-24T09:16:06Z</time>
      </trkpt>
      <trkpt lat="49.05882" lon="1.31769">
        <ele>243</ele>
        <time>2017-09-24T09:16:11Z</time>
      </trkpt>
      <trkpt lat="49.05857" lon="1.31729">
        <ele>243</ele>
        <time>2017-09-24T09:16:16Z</time>
      </trkpt>
      <trkpt lat="49.05833" lon="1.31692">
        <ele>243</ele>
        <time>2017-09-24T09:16:21Z</time>
      </trkpt>
      <trkpt lat="49.05811" lon="1.31658">
        <ele>243</ele>
        <time>2017-09-24T09:16:26Z</time>
      </trkpt>
      <trkpt lat="49.05789" lon="1.31625">
        <ele>243</ele>
        <time>2017-09-24T09:16:31Z</time>
      </trkpt>
      <trkpt lat="49.05766" lon="1.31591">
        <ele>243</ele>
        <time>2017-09-24T09:16:36Z</time>
      </trkpt>
      <trkpt lat="49.05744" lon="1.31557">
        <ele>243</ele>
        <time>2017-09-24T09:16:41Z</time>
      </trkpt>
      <trkpt lat="49.05724" lon="1.31527">
        <ele>243</ele>
        <time>2017-09-24T09:16:46Z</time>
      </trkpt>
      <trkpt lat="49.05708" lon="1.31512">
        <ele>243</ele>
        <time>2017-09-24T09:16:51Z</time>
      </trkpt>
      <trkpt lat="49.05686" lon="1.31533">
        <ele>243</ele>
        <time>2017-09-24T09:16:56Z</time>
      </trkpt>
      <trkpt lat="49.05662" lon="1.31568">
        <ele>243</ele>
        <time>2017-09-24T09:17:01Z</time>
      </trkpt>
      <trkpt lat="49.05639" lon="1.31602">
        <ele>243</ele>
        <time>2017-09-24T09:17:06Z</time>
      </trkpt>
      <trkpt lat="49.05615" lon="1.31637">
        <ele>243</ele>
        <time>2017-09-24T09:17:11Z</time>
      </trkpt>
      <trkpt lat="49.05593" lon="1.3167">
        <ele>243</ele>
        <time>2017-09-24T09:17:16Z</time>
      </trkpt>
      <trkpt lat="49.0557" lon="1.31702">
        <ele>243</ele>
        <time>2017-09-24T09:17:21Z</time>
      </trkpt>
      <trkpt lat="49.05546" lon="1.31735">
        <ele>243</ele>
        <time>2017-09-24T09:17:26Z</time>
      </trkpt>
      <trkpt lat="49.05523" lon="1.31767">
        <ele>243</ele>
        <time>2017-09-24T09:17:31Z</time>
      </trkpt>
      <trkpt lat="49.05499" lon="1.318">
        <ele>243</ele>
        <time>2017-09-24T09:17:36Z</time>
      </trkpt>
      <trkpt lat="49.05475" lon="1.3183">
        <ele>243</ele>
        <time>2017-09-24T09:17:41Z</time>
      </trkpt>
      <trkpt lat="49.05453" lon="1.3186">
        <ele>243</ele>
        <time>2017-09-24T09:17:46Z</time>
      </trkpt>
      <trkpt lat="49.0543" lon="1.31896">
        <ele>243</ele>
        <time>2017-09-24T09:17:51Z</time>
      </trkpt>
      <trkpt lat="49.05409" lon="1.31932">
        <ele>243</ele>
        <time>2017-09-24T09:17:56Z</time>
      </trkpt>
      <trkpt lat="49.05389" lon="1.31967">
        <ele>243</ele>
        <time>2017-09-24T09:18:01Z</time>
      </trkpt>
      <trkpt lat="49.0537" lon="1.32005">
        <ele>243</ele>
        <time>2017-09-24T09:18:06Z</time>
      </trkpt>
      <trkpt lat="49.05351" lon="1.32043">
        <ele>244</ele>
        <time>2017-09-24T09:18:11Z</time>
      </trkpt>
      <trkpt lat="49.05331" lon="1.32079">
        <ele>244</ele>
        <time>2017-09-24T09:18:16Z</time>
      </trkpt>
      <trkpt lat="49.05312" lon="1.32114">
        <ele>244</ele>
        <time>2017-09-24T09:18:21Z</time>
      </trkpt>
      <trkpt lat="49.05294" lon="1.32146">
        <ele>244</ele>
        <time>2017-09-24T09:18:26Z</time>
      </trkpt>
      <trkpt lat="49.05293" lon="1.32161">
        <ele>244</ele>
        <time>2017-09-24T09:18:31Z</time>
      </trkpt>
      <trkpt lat="49.05303" lon="1.32184">
        <ele>244</ele>
        <time>2017-09-24T09:18:36Z</time>
      </trkpt>
      <trkpt lat="49.05301" lon="1.32192">
        <ele>244</ele>
        <time>2017-09-24T09:18:41Z</time>
      </trkpt>
      <trkpt lat="49.05291" lon="1.32194">
        <ele>244</ele>
        <time>2017-09-24T09:18:46Z</time>
      </trkpt>
      <trkpt lat="49.05281" lon="1.3221">
        <ele>244</ele>
        <time>2017-09-24T09:18:51Z</time>
      </trkpt>
      <trkpt lat="49.05271" lon="1.3223">
        <ele>244</ele>
        <time>2017-09-24T09:18:56Z</time>
      </trkpt>
      <trkpt lat="49.05259" lon="1.32252">
        <ele>244</ele>
        <time>2017-09-24T09:19:01Z</time>
      </trkpt>
      <trkpt lat="49.05244" lon="1.3228">
        <ele>244</ele>
        <time>2017-09-24T09:19:06Z</time>
      </trkpt>
      <trkpt lat="49.05228" lon="1.32308">
        <ele>244</ele>
        <time>2017-09-24T09:19:11Z</time>
      </trkpt>
      <trkpt lat="49.05212" lon="1.32339">
        <ele>244</ele>
        <time>2017-09-24T09:19:16Z</time>
      </trkpt>
      <trkpt lat="49.05195" lon="1.32371">
        <ele>244</ele>
        <time>2017-09-24T09:19:21Z</time>
      </trkpt>
      <trkpt lat="49.05175" lon="1.32403">
        <ele>244</ele>
        <time>2017-09-24T09:19:26Z</time>
      </trkpt>
      <trkpt lat="49.05151" lon="1.3243">
        <ele>244</ele>
        <time>2017-09-24T09:19:31Z</time>
      </trkpt>
      <trkpt lat="49.0512" lon="1.32445">
        <ele>244</ele>
        <time>2017-09-24T09:19:36Z</time>
      </trkpt>
      <trkpt lat="49.05089" lon="1.32457">
        <ele>244</ele>
        <time>2017-09-24T09:19:41Z</time>
      </trkpt>
      <trkpt lat="49.05056" lon="1.32473">
        <ele>244</ele>
        <time>2017-09-24T09:19:46Z</time>
      </trkpt>
      <trkpt lat="49.05024" lon="1.32489">
        <ele>244</ele>
        <time>2017-09-24T09:19:51Z</time>
      </trkpt>
      <trkpt lat="49.04994" lon="1.3251">
        <ele>244</ele>
        <time>2017-09-24T09:19:56Z</time>
      </trkpt>
      <trkpt lat="49.0497" lon="1.32545">
        <ele>244</ele>
        <time>2017-09-24T09:20:01Z</time>
      </trkpt>
      <trkpt lat="49.04947" lon="1.32582">
        <ele>244</ele>
        <time>2017-09-24T09:20:06Z</time>
      </trkpt>
      <trkpt lat="49.04925" lon="1.32619">
        <ele>244</ele>
        <time>2017-09-24T09:20:11Z</time>
      </trkpt>
      <trkpt lat="49.04905" lon="1.32647">
        <ele>244</ele>
        <time>2017-09-24T09:20:16Z</time>
      </trkpt>
      <trkpt lat="49.04884" lon="1.32678">
        <ele>244</ele>
        <time>2017-09-24T09:20:21Z</time>
      </trkpt>
      <trkpt lat="49.04863" lon="1.3271">
        <ele>244</ele>
        <time>2017-09-24T09:20:26Z</time>
      </trkpt>
      <trkpt lat="49.04841" lon="1.32745">
        <ele>244</ele>
        <time>2017-09-24T09:20:31Z</time>
      </trkpt>
      <trkpt lat="49.04819" lon="1.32778">
        <ele>244</ele>
        <time>2017-09-24T09:20:36Z</time>
      </trkpt>
      <trkpt lat="49.04796" lon="1.32812">
        <ele>244</ele>
        <time>2017-09-24T09:20:41Z</time>
      </trkpt>
      <trkpt lat="49.04773" lon="1.32847">
        <ele>244</ele>
        <time>2017-09-24T09:20:46Z</time>
      </trkpt>
      <trkpt lat="49.04751" lon="1.32883">
        <ele>245</ele>
        <time>2017-09-24T09:20:51Z</time>
      </trkpt>
      <trkpt lat="49.04729" lon="1.32919">
        <ele>245</ele>
        <time>2017-09-24T09:20:56Z</time>
      </trkpt>
      <trkpt lat="49.04707" lon="1.32956">
        <ele>245</ele>
        <time>2017-09-24T09:21:01Z</time>
      </trkpt>
      <trkpt lat="49.04686" lon="1.32992">
        <ele>245</ele>
        <time>2017-09-24T09:21:06Z</time>
      </trkpt>
      <trkpt lat="49.04664" lon="1.33031">
        <ele>245</ele>
        <time>2017-09-24T09:21:11Z</time>
      </trkpt>
      <trkpt lat="49.04643" lon="1.33067">
        <ele>245</ele>
        <time>2017-09-24T09:21:16Z</time>
      </trkpt>
      <trkpt lat="49.04622" lon="1.33103">
        <ele>245</ele>
        <time>2017-09-24T09:21:21Z</time>
      </trkpt>
      <trkpt lat="49.04602" lon="1.33141">
        <ele>245</ele>
        <time>2017-09-24T09:21:26Z</time>
      </trkpt>
      <trkpt lat="49.04583" lon="1.33178">
        <ele>245</ele>
        <time>2017-09-24T09:21:31Z</time>
      </trkpt>
      <trkpt lat="49.04564" lon="1.33213">
        <ele>245</ele>
        <time>2017-09-24T09:21:36Z</time>
      </trkpt>
      <trkpt lat="49.04545" lon="1.33248">
        <ele>245</ele>
        <time>2017-09-24T09:21:41Z</time>
      </trkpt>
      <trkpt lat="49.04525" lon="1.33284">
        <ele>245</ele>
        <time>2017-09-24T09:21:46Z</time>
      </trkpt>
      <trkpt lat="49.04505" lon="1.33319">
        <ele>245</ele>
        <time>2017-09-24T09:21:51Z</time>
      </trkpt>
      <trkpt lat="49.04486" lon="1.33354">
        <ele>245</ele>
        <time>2017-09-24T09:21:56Z</time>
      </trkpt>
      <trkpt lat="49.04468" lon="1.33393">
        <ele>245</ele>
        <time>2017-09-24T09:22:01Z</time>
      </trkpt>
      <trkpt lat="49.04449" lon="1.33429">
        <ele>245</ele>
        <time>2017-09-24T09:22:06Z</time>
      </trkpt>
      <trkpt lat="49.04429" lon="1.33465">
        <ele>245</ele>
        <time>2017-09-24T09:22:11Z</time>
      </trkpt>
      <trkpt lat="49.04405" lon="1.33497">
        <ele>245</ele>
        <time>2017-09-24T09:22:16Z</time>
      </trkpt>
      <trkpt lat="49.04379" lon="1.33527">
        <ele>245</ele>
        <time>2017-09-24T09:22:21Z</time>
      </trkpt>
      <trkpt lat="49.04355" lon="1.33555">
        <ele>245</ele>
        <time>2017-09-24T09:22:26Z</time>
      </trkpt>
      <trkpt lat="49.04331" lon="1.33581">
        <ele>245</ele>
        <time>2017-09-24T09:22:31Z</time>
      </trkpt>
      <trkpt lat="49.04308" lon="1.33608">
        <ele>245</ele>
        <time>2017-09-24T09:22:36Z</time>
      </trkpt>
      <trkpt lat="49.04288" lon="1.33633">
        <ele>245</ele>
        <time>2017-09-24T09:22:41Z</time>
      </trkpt>
      <trkpt lat="49.04267" lon="1.33661">
        <ele>246</ele>
        <time>2017-09-24T09:22:46Z</time>
      </trkpt>
      <trkpt lat="49.04244" lon="1.33691">
        <ele>246</ele>
        <time>2017-09-24T09:22:51Z</time>
      </trkpt>
      <trkpt lat="49.04218" lon="1.33718">
        <ele>246</ele>
        <time>2017-09-24T09:22:56Z</time>
      </trkpt>
      <trkpt lat="49.04192" lon="1.33743">
        <ele>246</ele>
        <time>2017-09-24T09:23:01Z</time>
      </trkpt>
      <trkpt lat="49.0417" lon="1.33775">
        <ele>246</ele>
        <time>2017-09-24T09:23:06Z</time>
      </trkpt>
      <trkpt lat="49.04153" lon="1.33805">
        <ele>246</ele>
        <time>2017-09-24T09:23:11Z</time>
      </trkpt>
      <trkpt lat="49.04143" lon="1.33822">
        <ele>246</ele>
        <time>2017-09-24T09:23:16Z</time>
      </trkpt>
      <trkpt lat="49.04139" lon="1.33863">
        <ele>246</ele>
        <time>2017-09-24T09:23:21Z</time>
      </trkpt>
      <trkpt lat="49.04136" lon="1.33901">
        <ele>246</ele>
        <time>2017-09-24T09:23:26Z</time>
      </trkpt>
      <trkpt lat="49.04119" lon="1.3389">
        <ele>246</ele>
        <time>2017-09-24T09:23:31Z</time>
      </trkpt>
      <trkpt lat="49.04098" lon="1.33856">
        <ele>246</ele>
        <time>2017-09-24T09:23:36Z</time>
      </trkpt>
      <trkpt lat="49.04074" lon="1.33822">
        <ele>246</ele>
        <time>2017-09-24T09:23:41Z</time>
      </trkpt>
      <trkpt lat="49.04051" lon="1.33781">
        <ele>246</ele>
        <time>2017-09-24T09:23:46Z</time>
      </trkpt>
      <trkpt lat="49.04025" lon="1.33743">
        <ele>246</ele>
        <time>2017-09-24T09:23:51Z</time>
      </trkpt>
      <trkpt lat="49.03999" lon="1.33706">
        <ele>246</ele>
        <time>2017-09-24T09:23:56Z</time>
      </trkpt>
      <trkpt lat="49.03973" lon="1.33671">
        <ele>246</ele>
        <time>2017-09-24T09:24:01Z</time>
      </trkpt>
      <trkpt lat="49.03949" lon="1.3364">
        <ele>246</ele>
        <time>2017-09-24T09:24:06Z</time>
      </trkpt>
      <trkpt lat="49.03929" lon="1.33618">
        <ele>246</ele>
        <time>2017-09-24T09:24:11Z</time>
      </trkpt>
      <trkpt lat="49.03901" lon="1.33629">
        <ele>246</ele>
        <time>2017-09-24T09:24:16Z</time>
      </trkpt>
      <trkpt lat="49.0387" lon="1.33642">
        <ele>246</ele>
        <time>2017-09-24T09:24:21Z</time>
      </trkpt>
      <trkpt lat="49.03839" lon="1.33654">
        <ele>246</ele>
        <time>2017-09-24T09:24:26Z</time>
      </trkpt>
      <trkpt lat="49.0381" lon="1.33667">
        <ele>246</ele>
        <time>2017-09-24T09:24:31Z</time>
      </trkpt>
      <trkpt lat="49.03784" lon="1.33682">
        <ele>246</ele>
        <time>2017-09-24T09:24:36Z</time>
      </trkpt>
      <trkpt lat="49.0376" lon="1.33702">
        <ele>246</ele>
        <time>2017-09-24T09:24:41Z</time>
      </trkpt>
      <trkpt lat="49.03737" lon="1.33723">
        <ele>246</ele>
        <time>2017-09-24T09:24:46Z</time>
      </trkpt>
      <trkpt lat="49.03713" lon="1.33746">
        <ele>246</ele>
        <time>2017-09-24T09:24:51Z</time>
      </trkpt>
      <trkpt lat="49.03689" lon="1.33766">
        <ele>246</ele>
        <time>2017-09-24T09:24:56Z</time>
      </trkpt>
      <trkpt lat="49.03683" lon="1.33798">
        <ele>246</ele>
        <time>2017-09-24T09:25:01Z</time>
      </trkpt>
      <trkpt lat="49.03693" lon="1.3384">
        <ele>246</ele>
        <time>2017-09-24T09:25:06Z</time>
      </trkpt>
      <trkpt lat="49.03703" lon="1.33883">
        <ele>247</ele>
        <time>2017-09-24T09:25:11Z</time>
      </trkpt>
      <trkpt lat="49.03712" lon="1.33923">
        <ele>248</ele>
        <time>2017-09-24T09:25:16Z</time>
      </trkpt>
      <trkpt lat="49.03722" lon="1.33964">
        <ele>248</ele>
        <time>2017-09-24T09:25:21Z</time>
      </trkpt>
      <trkpt lat="49.03731" lon="1.34001">
        <ele>248</ele>
        <time>2017-09-24T09:25:26Z</time>
      </trkpt>
      <trkpt lat="49.03732" lon="1.34029">
        <ele>248</ele>
        <time>2017-09-24T09:25:31Z</time>
      </trkpt>
      <trkpt lat="49.03723" lon="1.34038">
        <ele>248</ele>
        <time>2017-09-24T09:25:36Z</time>
      </trkpt>
      <trkpt lat="49.03697" lon="1.34045">
        <ele>248</ele>
        <time>2017-09-24T09:25:41Z</time>
      </trkpt>
      <trkpt lat="49.03667" lon="1.34048">
        <ele>248</ele>
        <time>2017-09-24T09:25:46Z</time>
      </trkpt>
      <trkpt lat="49.03636" lon="1.34049">
        <ele>248</ele>
        <time>2017-09-24T09:25:51Z</time>
      </trkpt>
      <trkpt lat="49.03607" lon="1.34051">
        <ele>248</ele>
        <time>2017-09-24T09:25:56Z</time>
      </trkpt>
      <trkpt lat="49.03579" lon="1.34052">
        <ele>248</ele>
        <time>2017-09-24T09:26:01Z</time>
      </trkpt>
      <trkpt lat="49.0355" lon="1.34056">
        <ele>248</ele>
        <time>2017-09-24T09:26:06Z</time>
      </trkpt>
      <trkpt lat="49.0352" lon="1.34065">
        <ele>248</ele>
        <time>2017-09-24T09:26:11Z</time>
      </trkpt>
      <trkpt lat="49.03494" lon="1.34078">
        <ele>248</ele>
        <time>2017-09-24T09:26:16Z</time>
      </trkpt>
      <trkpt lat="49.03469" lon="1.34096">
        <ele>248</ele>
        <time>2017-09-24T09:26:21Z</time>
      </trkpt>
      <trkpt lat="49.03444" lon="1.34111">
        <ele>248</ele>
        <time>2017-09-24T09:26:26Z</time>
      </trkpt>
      <trkpt lat="49.03423" lon="1.3412">
        <ele>248</ele>
        <time>2017-09-24T09:26:31Z</time>
      </trkpt>
      <trkpt lat="49.03407" lon="1.3409">
        <ele>248</ele>
        <time>2017-09-24T09:26:36Z</time>
      </trkpt>
      <trkpt lat="49.03391" lon="1.34053">
        <ele>248</ele>
        <time>2017-09-24T09:26:41Z</time>
      </trkpt>
      <trkpt lat="49.03374" lon="1.34016">
        <ele>247</ele>
        <time>2017-09-24T09:26:46Z</time>
      </trkpt>
      <trkpt lat="49.03357" lon="1.33976">
        <ele>247</ele>
        <time>2017-09-24T09:26:51Z</time>
      </trkpt>
      <trkpt lat="49.03342" lon="1.33938">
        <ele>247</ele>
        <time>2017-09-24T09:26:56Z</time>
      </trkpt>
      <trkpt lat="49.03326" lon="1.339">
        <ele>247</ele>
        <time>2017-09-24T09:27:01Z</time>
      </trkpt>
      <trkpt lat="49.0331" lon="1.33862">
        <ele>247</ele>
        <time>2017-09-24T09:27:06Z</time>
      </trkpt>
      <trkpt lat="49.03296" lon="1.33827">
        <ele>247</ele>
        <time>2017-09-24T09:27:11Z</time>
      </trkpt>
      <trkpt lat="49.03281" lon="1.33791">
        <ele>248</ele>
        <time>2017-09-24T09:27:16Z</time>
      </trkpt>
      <trkpt lat="49.03266" lon="1.33756">
        <ele>248</ele>
        <time>2017-09-24T09:27:21Z</time>
      </trkpt>
      <trkpt lat="49.03251" lon="1.3372">
        <ele>248</ele>
        <time>2017-09-24T09:27:26Z</time>
      </trkpt>
      <trkpt lat="49.03236" lon="1.33684">
        <ele>248</ele>
        <time>2017-09-24T09:27:31Z</time>
      </trkpt>
      <trkpt lat="49.03221" lon="1.33651">
        <ele>248</ele>
        <time>2017-09-24T09:27:36Z</time>
      </trkpt>
      <trkpt lat="49.0321" lon="1.33647">
        <ele>249</ele>
        <time>2017-09-24T09:27:41Z</time>
      </trkpt>
      <trkpt lat="49.03199" lon="1.33675">
        <ele>251</ele>
        <time>2017-09-24T09:27:46Z</time>
      </trkpt>
      <trkpt lat="49.03187" lon="1.33703">
        <ele>251</ele>
        <time>2017-09-24T09:27:51Z</time>
      </trkpt>
      <trkpt lat="49.03174" lon="1.33731">
        <ele>252</ele>
        <time>2017-09-24T09:27:56Z</time>
      </trkpt>
      <trkpt lat="49.03162" lon="1.33761">
        <ele>252</ele>
        <time>2017-09-24T09:28:01Z</time>
      </trkpt>
      <trkpt lat="49.03148" lon="1.33793">
        <ele>252</ele>
        <time>2017-09-24T09:28:06Z</time>
      </trkpt>
      <trkpt lat="49.03133" lon="1.33825">
        <ele>252</ele>
        <time>2017-09-24T09:28:11Z</time>
      </trkpt>
      <trkpt lat="49.03119" lon="1.33856">
        <ele>252</ele>
        <time>2017-09-24T09:28:16Z</time>
      </trkpt>
      <trkpt lat="49.03107" lon="1.33887">
        <ele>252</ele>
        <time>2017-09-24T09:28:21Z</time>
      </trkpt>
      <trkpt lat="49.03096" lon="1.33917">
        <ele>252</ele>
        <time>2017-09-24T09:28:26Z</time>
      </trkpt>
      <trkpt lat="49.03086" lon="1.33949">
        <ele>252</ele>
        <time>2017-09-24T09:28:31Z</time>
      </trkpt>
      <trkpt lat="49.03074" lon="1.33984">
        <ele>252</ele>
        <time>2017-09-24T09:28:36Z</time>
      </trkpt>
      <trkpt lat="49.03058" lon="1.34018">
        <ele>252</ele>
        <time>2017-09-24T09:28:41Z</time>
      </trkpt>
      <trkpt lat="49.03042" lon="1.3405">
        <ele>252</ele>
        <time>2017-09-24T09:28:46Z</time>
      </trkpt>
      <trkpt lat="49.03027" lon="1.3408">
        <ele>252</ele>
        <time>2017-09-24T09:28:51Z</time>
      </trkpt>
      <trkpt lat="49.03016" lon="1.34096">
        <ele>252</ele>
        <time>2017-09-24T09:28:56Z</time>
      </trkpt>
      <trkpt lat="49.03006" lon="1.34088">
        <ele>252</ele>
        <time>2017-09-24T09:29:01Z</time>
      </trkpt>
      <trkpt lat="49.02998" lon="1.3408">
        <ele>254</ele>
        <time>2017-09-24T09:29:06Z</time>
      </trkpt>
      <trkpt lat="49.02989" lon="1.34073">
        <ele>256</ele>
        <time>2017-09-24T09:29:11Z</time>
      </trkpt>
      <trkpt lat="49.02984" lon="1.34068">
        <ele>258</ele>
        <time>2017-09-24T09:29:16Z</time>
      </trkpt>
      <trkpt lat="49.02978" lon="1.34063">
        <ele>259</ele>
        <time>2017-09-24T09:29:21Z</time>
      </trkpt>
      <trkpt lat="49.02972" lon="1.34056">
        <ele>261</ele>
        <time>2017-09-24T09:29:26Z</time>
      </trkpt>
      <trkpt lat="49.02965" lon="1.34045">
        <ele>262</ele>
        <time>2017-09-24T09:29:31Z</time>
      </trkpt>
      <trkpt lat="49.02958" lon="1.34037">
        <ele>263</ele>
        <time>2017-09-24T09:29:36Z</time>
      </trkpt>
      <trkpt lat="49.02951" lon="1.34029">
        <ele>265</ele>
        <time>2017-09-24T09:29:41Z</time>
      </trkpt>
      <trkpt lat="49.02943" lon="1.3402">
        <ele>266</ele>
        <time>2017-09-24T09:29:46Z</time>
      </trkpt>
      <trkpt lat="49.02936" lon="1.34013">
        <ele>267</ele>
        <time>2017-09-24T09:29:51Z</time>
      </trkpt>
      <trkpt lat="49.02929" lon="1.34004">
        <ele>268</ele>
        <time>2017-09-24T09:29:56Z</time>
      </trkpt>
      <trkpt lat="49.02923" lon="1.33998">
        <ele>269</ele>
        <time>2017-09-24T09:30:01Z</time>
      </trkpt>
      <trkpt lat="49.02916" lon="1.33991">
        <ele>270</ele>
        <time>2017-09-24T09:30:06Z</time>
      </trkpt>
      <trkpt lat="49.02909" lon="1.33984">
        <ele>272</ele>
        <time>2017-09-24T09:30:11Z</time>
      </trkpt>
      <trkpt lat="49.02904" lon="1.33978">
        <ele>273</ele>
        <time>2017-09-24T09:30:16Z</time>
      </trkpt>
      <trkpt lat="49.02899" lon="1.33972">
        <ele>274</ele>
        <time>2017-09-24T09:30:21Z</time>
      </trkpt>
      <trkpt lat="49.02897" lon="1.33962">
        <ele>275</ele>
        <time>2017-09-24T09:30:26Z</time>
      </trkpt>
      <trkpt lat="49.02897" lon="1.3395">
        <ele>276</ele>
        <time>2017-09-24T09:30:31Z</time>
      </trkpt>
      <trkpt lat="49.02896" lon="1.33937">
        <ele>277</ele>
        <time>2017-09-24T09:30:36Z</time>
      </trkpt>
      <trkpt lat="49.02895" lon="1.33923">
        <ele>278</ele>
        <time>2017-09-24T09:30:41Z</time>
      </trkpt>
      <trkpt lat="49.02895" lon="1.3391">
        <ele>278</ele>
        <time>2017-09-24T09:30:46Z</time>
      </trkpt>
      <trkpt lat="49.02896" lon="1.33898">
        <ele>280</ele>
        <time>2017-09-24T09:30:51Z</time>
      </trkpt>
      <trkpt lat="49.02896" lon="1.33889">
        <ele>281</ele>
        <time>2017-09-24T09:30:56Z</time>
      </trkpt>
      <trkpt lat="49.02897" lon="1.33877">
        <ele>282</ele>
        <time>2017-09-24T09:31:01Z</time>
      </trkpt>
      <trkpt lat="49.02897" lon="1.33865">
        <ele>283</ele>
        <time>2017-09-24T09:31:06Z</time>
      </trkpt>
      <trkpt lat="49.02899" lon="1.33852">
        <ele>284</ele>
        <time>2017-09-24T09:31:11Z</time>
      </trkpt>
      <trkpt lat="49.02901" lon="1.33839">
        <ele>285</ele>
        <time>2017-09-24T09:31:16Z</time>
      </trkpt>
      <trkpt lat="49.02901" lon="1.33828">
        <ele>287</ele>
        <time>2017-09-24T09:31:21Z</time>
      </trkpt>
      <trkpt lat="49.02902" lon="1.33817">
        <ele>288</ele>
        <time>2017-09-24T09:31:26Z</time>
      </trkpt>
      <trkpt lat="49.02902" lon="1.33806">
        <ele>290</ele>
        <time>2017-09-24T09:31:31Z</time>
      </trkpt>
      <trkpt lat="49.02903" lon="1.33796">
        <ele>291</ele>
        <time>2017-09-24T09:31:36Z</time>
      </trkpt>
      <trkpt lat="49.02903" lon="1.33785">
        <ele>293</ele>
        <time>2017-09-24T09:31:41Z</time>
      </trkpt>
      <trkpt lat="49.02904" lon="1.33773">
        <ele>294</ele>
        <time>2017-09-24T09:31:46Z</time>
      </trkpt>
      <trkpt lat="49.02903" lon="1.33762">
        <ele>296</ele>
        <time>2017-09-24T09:31:51Z</time>
      </trkpt>
      <trkpt lat="49.02902" lon="1.33753">
        <ele>297</ele>
        <time>2017-09-24T09:31:56Z</time>
      </trkpt>
      <trkpt lat="49.029" lon="1.33744">
        <ele>299</ele>
        <time>2017-09-24T09:32:01Z</time>
      </trkpt>
      <trkpt lat="49.02898" lon="1.33734">
        <ele>300</ele>
        <time>2017-09-24T09:32:06Z</time>
      </trkpt>
      <trkpt lat="49.02896" lon="1.33723">
        <ele>301</ele>
        <time>2017-09-24T09:32:11Z</time>
      </trkpt>
      <trkpt lat="49.02893" lon="1.33714">
        <ele>302</ele>
        <time>2017-09-24T09:32:16Z</time>
      </trkpt>
      <trkpt lat="49.0289" lon="1.33704">
        <ele>304</ele>
        <time>2017-09-24T09:32:21Z</time>
      </trkpt>
      <trkpt lat="49.02887" lon="1.33694">
        <ele>305</ele>
        <time>2017-09-24T09:32:26Z</time>
      </trkpt>
      <trkpt lat="49.02884" lon="1.33684">
        <ele>306</ele>
        <time>2017-09-24T09:32:31Z</time>
      </trkpt>
      <trkpt lat="49.02882" lon="1.33673">
        <ele>307</ele>
        <time>2017-09-24T09:32:36Z</time>
      </trkpt>
      <trkpt lat="49.0288" lon="1.33661">
        <ele>309</ele>
        <time>2017-09-24T09:32:41Z</time>
      </trkpt>
      <trkpt lat="49.02879" lon="1.33648">
        <ele>310</ele>
        <time>2017-09-24T09:32:46Z</time>
      </trkpt>
      <trkpt lat="49.02878" lon="1.33634">
        <ele>310</ele>
        <time>2017-09-24T09:32:51Z</time>
      </trkpt>
      <trkpt lat="49.02874" lon="1.3362">
        <ele>311</ele>
        <time>2017-09-24T09:32:56Z</time>
      </trkpt>
      <trkpt lat="49.02867" lon="1.33605">
        <ele>313</ele>
        <time>2017-09-24T09:33:02Z</time>
      </trkpt>
      <trkpt lat="49.02862" lon="1.33596">
        <ele>313</ele>
        <time>2017-09-24T09:33:06Z</time>
      </trkpt>
      <trkpt lat="49.02856" lon="1.33583">
        <ele>314</ele>
        <time>2017-09-24T09:33:11Z</time>
      </trkpt>
      <trkpt lat="49.0285" lon="1.3357">
        <ele>315</ele>
        <time>2017-09-24T09:33:16Z</time>
      </trkpt>
      <trkpt lat="49.02844" lon="1.33554">
        <ele>315</ele>
        <time>2017-09-24T09:33:21Z</time>
      </trkpt>
      <trkpt lat="49.02836" lon="1.33535">
        <ele>316</ele>
        <time>2017-09-24T09:33:27Z</time>
      </trkpt>
      <trkpt lat="49.02827" lon="1.33521">
        <ele>317</ele>
        <time>2017-09-24T09:33:32Z</time>
      </trkpt>
      <trkpt lat="49.02821" lon="1.3351">
        <ele>318</ele>
        <time>2017-09-24T09:33:36Z</time>
      </trkpt>
      <trkpt lat="49.02812" lon="1.33496">
        <ele>318</ele>
        <time>2017-09-24T09:33:41Z</time>
      </trkpt>
      <trkpt lat="49.02805" lon="1.33481">
        <ele>319</ele>
        <time>2017-09-24T09:33:46Z</time>
      </trkpt>
      <trkpt lat="49.02796" lon="1.33463">
        <ele>320</ele>
        <time>2017-09-24T09:33:51Z</time>
      </trkpt>
      <trkpt lat="49.02787" lon="1.3344">
        <ele>320</ele>
        <time>2017-09-24T09:33:57Z</time>
      </trkpt>
      <trkpt lat="49.02779" lon="1.33416">
        <ele>321</ele>
        <time>2017-09-24T09:34:02Z</time>
      </trkpt>
      <trkpt lat="49.02773" lon="1.33397">
        <ele>321</ele>
        <time>2017-09-24T09:34:06Z</time>
      </trkpt>
      <trkpt lat="49.02766" lon="1.33369">
        <ele>323</ele>
        <time>2017-09-24T09:34:11Z</time>
      </trkpt>
      <trkpt lat="49.02757" lon="1.33339">
        <ele>323</ele>
        <time>2017-09-24T09:34:16Z</time>
      </trkpt>
      <trkpt lat="49.02748" lon="1.33306">
        <ele>323</ele>
        <time>2017-09-24T09:34:21Z</time>
      </trkpt>
      <trkpt lat="49.02736" lon="1.33272">
        <ele>324</ele>
        <time>2017-09-24T09:34:26Z</time>
      </trkpt>
      <trkpt lat="49.02721" lon="1.3323">
        <ele>324</ele>
        <time>2017-09-24T09:34:32Z</time>
      </trkpt>
      <trkpt lat="49.02711" lon="1.33203">
        <ele>325</ele>
        <time>2017-09-24T09:34:36Z</time>
      </trkpt>
      <trkpt lat="49.02693" lon="1.33162">
        <ele>325</ele>
        <time>2017-09-24T09:34:42Z</time>
      </trkpt>
      <trkpt lat="49.0268" lon="1.33135">
        <ele>325</ele>
        <time>2017-09-24T09:34:46Z</time>
      </trkpt>
      <trkpt lat="49.02653" lon="1.331">
        <ele>325</ele>
        <time>2017-09-24T09:34:52Z</time>
      </trkpt>
      <trkpt lat="49.02624" lon="1.33079">
        <ele>323</ele>
        <time>2017-09-24T09:34:57Z</time>
      </trkpt>
      <trkpt lat="49.02599" lon="1.33063">
        <ele>323</ele>
        <time>2017-09-24T09:35:01Z</time>
      </trkpt>
      <trkpt lat="49.02569" lon="1.33046">
        <ele>324</ele>
        <time>2017-09-24T09:35:06Z</time>
      </trkpt>
      <trkpt lat="49.0254" lon="1.33032">
        <ele>324</ele>
        <time>2017-09-24T09:35:11Z</time>
      </trkpt>
      <trkpt lat="49.02511" lon="1.33023">
        <ele>324</ele>
        <time>2017-09-24T09:35:16Z</time>
      </trkpt>
      <trkpt lat="49.02485" lon="1.33014">
        <ele>324</ele>
        <time>2017-09-24T09:35:21Z</time>
      </trkpt>
      <trkpt lat="49.02461" lon="1.33006">
        <ele>325</ele>
        <time>2017-09-24T09:35:26Z</time>
      </trkpt>
      <trkpt lat="49.02437" lon="1.32997">
        <ele>325</ele>
        <time>2017-09-24T09:35:31Z</time>
      </trkpt>
      <trkpt lat="49.02406" lon="1.32989">
        <ele>325</ele>
        <time>2017-09-24T09:35:37Z</time>
      </trkpt>
      <trkpt lat="49.02385" lon="1.32983">
        <ele>325</ele>
        <time>2017-09-24T09:35:41Z</time>
      </trkpt>
      <trkpt lat="49.02358" lon="1.32974">
        <ele>326</ele>
        <time>2017-09-24T09:35:46Z</time>
      </trkpt>
      <trkpt lat="49.02333" lon="1.32969">
        <ele>327</ele>
        <time>2017-09-24T09:35:51Z</time>
      </trkpt>
      <trkpt lat="49.02302" lon="1.32969">
        <ele>328</ele>
        <time>2017-09-24T09:35:57Z</time>
      </trkpt>
      <trkpt lat="49.02282" lon="1.32962">
        <ele>328</ele>
        <time>2017-09-24T09:36:01Z</time>
      </trkpt>
      <trkpt lat="49.02258" lon="1.32953">
        <ele>328</ele>
        <time>2017-09-24T09:36:06Z</time>
      </trkpt>
      <trkpt lat="49.02231" lon="1.3298">
        <ele>328</ele>
        <time>2017-09-24T09:36:12Z</time>
      </trkpt>
      <trkpt lat="49.02208" lon="1.33005">
        <ele>329</ele>
        <time>2017-09-24T09:36:17Z</time>
      </trkpt>
      <trkpt lat="49.02185" lon="1.33029">
        <ele>329</ele>
        <time>2017-09-24T09:36:22Z</time>
      </trkpt>
      <trkpt lat="49.02161" lon="1.33054">
        <ele>329</ele>
        <time>2017-09-24T09:36:27Z</time>
      </trkpt>
      <trkpt lat="49.02144" lon="1.33063">
        <ele>329</ele>
        <time>2017-09-24T09:36:32Z</time>
      </trkpt>
      <trkpt lat="49.02138" lon="1.33043">
        <ele>329</ele>
        <time>2017-09-24T09:36:36Z</time>
      </trkpt>
      <trkpt lat="49.02127" lon="1.33005">
        <ele>329</ele>
        <time>2017-09-24T09:36:41Z</time>
      </trkpt>
      <trkpt lat="49.02113" lon="1.32953">
        <ele>329</ele>
        <time>2017-09-24T09:36:47Z</time>
      </trkpt>
      <trkpt lat="49.02102" lon="1.32911">
        <ele>329</ele>
        <time>2017-09-24T09:36:52Z</time>
      </trkpt>
      <trkpt lat="49.02092" lon="1.32883">
        <ele>330</ele>
        <time>2017-09-24T09:36:56Z</time>
      </trkpt>
      <trkpt lat="49.02064" lon="1.3289">
        <ele>331</ele>
        <time>2017-09-24T09:37:02Z</time>
      </trkpt>
      <trkpt lat="49.02035" lon="1.32911">
        <ele>331</ele>
        <time>2017-09-24T09:37:07Z</time>
      </trkpt>
      <trkpt lat="49.02004" lon="1.32934">
        <ele>331</ele>
        <time>2017-09-24T09:37:12Z</time>
      </trkpt>
      <trkpt lat="49.0199" lon="1.32978">
        <ele>329</ele>
        <time>2017-09-24T09:37:17Z</time>
      </trkpt>
      <trkpt lat="49.01996" lon="1.33027">
        <ele>329</ele>
        <time>2017-09-24T09:37:22Z</time>
      </trkpt>
      <trkpt lat="49.02007" lon="1.33076">
        <ele>329</ele>
        <time>2017-09-24T09:37:27Z</time>
      </trkpt>
      <trkpt lat="49.0201" lon="1.33128">
        <ele>328</ele>
        <time>2017-09-24T09:37:32Z</time>
      </trkpt>
      <trkpt lat="49.02009" lon="1.3318">
        <ele>326</ele>
        <time>2017-09-24T09:37:37Z</time>
      </trkpt>
      <trkpt lat="49.02007" lon="1.33232">
        <ele>326</ele>
        <time>2017-09-24T09:37:42Z</time>
      </trkpt>
      <trkpt lat="49.02003" lon="1.33283">
        <ele>324</ele>
        <time>2017-09-24T09:37:47Z</time>
      </trkpt>
      <trkpt lat="49.01995" lon="1.33333">
        <ele>323</ele>
        <time>2017-09-24T09:37:52Z</time>
      </trkpt>
      <trkpt lat="49.01984" lon="1.33382">
        <ele>322</ele>
        <time>2017-09-24T09:37:57Z</time>
      </trkpt>
      <trkpt lat="49.0197" lon="1.33431">
        <ele>321</ele>
        <time>2017-09-24T09:38:02Z</time>
      </trkpt>
      <trkpt lat="49.01952" lon="1.33474">
        <ele>320</ele>
        <time>2017-09-24T09:38:07Z</time>
      </trkpt>
      <trkpt lat="49.0193" lon="1.33516">
        <ele>318</ele>
        <time>2017-09-24T09:38:12Z</time>
      </trkpt>
      <trkpt lat="49.01913" lon="1.3356">
        <ele>317</ele>
        <time>2017-09-24T09:38:17Z</time>
      </trkpt>
      <trkpt lat="49.01898" lon="1.33597">
        <ele>317</ele>
        <time>2017-09-24T09:38:22Z</time>
      </trkpt>
      <trkpt lat="49.01888" lon="1.33621">
        <ele>317</ele>
        <time>2017-09-24T09:38:26Z</time>
      </trkpt>
      <trkpt lat="49.01872" lon="1.33655">
        <ele>317</ele>
        <time>2017-09-24T09:38:32Z</time>
      </trkpt>
      <trkpt lat="49.01859" lon="1.33685">
        <ele>318</ele>
        <time>2017-09-24T09:38:37Z</time>
      </trkpt>
      <trkpt lat="49.0185" lon="1.33718">
        <ele>319</ele>
        <time>2017-09-24T09:38:42Z</time>
      </trkpt>
      <trkpt lat="49.01847" lon="1.33752">
        <ele>319</ele>
        <time>2017-09-24T09:38:47Z</time>
      </trkpt>
      <trkpt lat="49.01848" lon="1.33788">
        <ele>319</ele>
        <time>2017-09-24T09:38:52Z</time>
      </trkpt>
      <trkpt lat="49.0185" lon="1.33819">
        <ele>319</ele>
        <time>2017-09-24T09:38:56Z</time>
      </trkpt>
      <trkpt lat="49.01852" lon="1.33867">
        <ele>319</ele>
        <time>2017-09-24T09:39:02Z</time>
      </trkpt>
      <trkpt lat="49.01854" lon="1.33907">
        <ele>319</ele>
        <time>2017-09-24T09:39:07Z</time>
      </trkpt>
      <trkpt lat="49.01853" lon="1.33945">
        <ele>320</ele>
        <time>2017-09-24T09:39:12Z</time>
      </trkpt>
      <trkpt lat="49.01849" lon="1.33983">
        <ele>320</ele>
        <time>2017-09-24T09:39:17Z</time>
      </trkpt>
      <trkpt lat="49.01843" lon="1.3402">
        <ele>320</ele>
        <time>2017-09-24T09:39:22Z</time>
      </trkpt>
      <trkpt lat="49.01835" lon="1.34057">
        <ele>320</ele>
        <time>2017-09-24T09:39:27Z</time>
      </trkpt>
      <trkpt lat="49.01824" lon="1.34093">
        <ele>320</ele>
        <time>2017-09-24T09:39:32Z</time>
      </trkpt>
      <trkpt lat="49.01812" lon="1.34127">
        <ele>320</ele>
        <time>2017-09-24T09:39:37Z</time>
      </trkpt>
      <trkpt lat="49.01798" lon="1.34158">
        <ele>320</ele>
        <time>2017-09-24T09:39:42Z</time>
      </trkpt>
      <trkpt lat="49.01783" lon="1.3419">
        <ele>321</ele>
        <time>2017-09-24T09:39:47Z</time>
      </trkpt>
      <trkpt lat="49.01768" lon="1.3422">
        <ele>321</ele>
        <time>2017-09-24T09:39:52Z</time>
      </trkpt>
      <trkpt lat="49.01755" lon="1.34245">
        <ele>321</ele>
        <time>2017-09-24T09:39:56Z</time>
      </trkpt>
      <trkpt lat="49.01738" lon="1.34277">
        <ele>321</ele>
        <time>2017-09-24T09:40:01Z</time>
      </trkpt>
      <trkpt lat="49.01718" lon="1.34315">
        <ele>321</ele>
        <time>2017-09-24T09:40:07Z</time>
      </trkpt>
      <trkpt lat="49.01697" lon="1.34341">
        <ele>321</ele>
        <time>2017-09-24T09:40:12Z</time>
      </trkpt>
      <trkpt lat="49.01675" lon="1.34362">
        <ele>321</ele>
        <time>2017-09-24T09:40:17Z</time>
      </trkpt>
      <trkpt lat="49.01658" lon="1.34378">
        <ele>322</ele>
        <time>2017-09-24T09:40:21Z</time>
      </trkpt>
      <trkpt lat="49.01632" lon="1.344">
        <ele>322</ele>
        <time>2017-09-24T09:40:27Z</time>
      </trkpt>
      <trkpt lat="49.0161" lon="1.34418">
        <ele>323</ele>
        <time>2017-09-24T09:40:32Z</time>
      </trkpt>
      <trkpt lat="49.01594" lon="1.34437">
        <ele>323</ele>
        <time>2017-09-24T09:40:37Z</time>
      </trkpt>
      <trkpt lat="49.01602" lon="1.3447">
        <ele>324</ele>
        <time>2017-09-24T09:40:42Z</time>
      </trkpt>
      <trkpt lat="49.01608" lon="1.34497">
        <ele>324</ele>
        <time>2017-09-24T09:40:47Z</time>
      </trkpt>
      <trkpt lat="49.0161" lon="1.34507">
        <ele>324</ele>
        <time>2017-09-24T09:40:51Z</time>
      </trkpt>
      <trkpt lat="49.01613" lon="1.34525">
        <ele>324</ele>
        <time>2017-09-24T09:40:57Z</time>
      </trkpt>
      <trkpt lat="49.01613" lon="1.34545">
        <ele>324</ele>
        <time>2017-09-24T09:41:02Z</time>
      </trkpt>
      <trkpt lat="49.01614" lon="1.34576">
        <ele>324</ele>
        <time>2017-09-24T09:41:07Z</time>
      </trkpt>
      <trkpt lat="49.01613" lon="1.34613">
        <ele>324</ele>
        <time>2017-09-24T09:41:12Z</time>
      </trkpt>
      <trkpt lat="49.01611" lon="1.34651">
        <ele>324</ele>
        <time>2017-09-24T09:41:17Z</time>
      </trkpt>
      <trkpt lat="49.01612" lon="1.34689">
        <ele>324</ele>
        <time>2017-09-24T09:41:22Z</time>
      </trkpt>
      <trkpt lat="49.01601" lon="1.34721">
        <ele>324</ele>
        <time>2017-09-24T09:41:27Z</time>
      </trkpt>
      <trkpt lat="49.0158" lon="1.34747">
        <ele>324</ele>
        <time>2017-09-24T09:41:32Z</time>
      </trkpt>
      <trkpt lat="49.01562" lon="1.34778">
        <ele>324</ele>
        <time>2017-09-24T09:41:37Z</time>
      </trkpt>
      <trkpt lat="49.01546" lon="1.34811">
        <ele>324</ele>
        <time>2017-09-24T09:41:42Z</time>
      </trkpt>
      <trkpt lat="49.01529" lon="1.34844">
        <ele>324</ele>
        <time>2017-09-24T09:41:47Z</time>
      </trkpt>
      <trkpt lat="49.01513" lon="1.34876">
        <ele>324</ele>
        <time>2017-09-24T09:41:52Z</time>
      </trkpt>
      <trkpt lat="49.01498" lon="1.34909">
        <ele>324</ele>
        <time>2017-09-24T09:41:57Z</time>
      </trkpt>
      <trkpt lat="49.01483" lon="1.34942">
        <ele>324</ele>
        <time>2017-09-24T09:42:02Z</time>
      </trkpt>
      <trkpt lat="49.01466" lon="1.34977">
        <ele>324</ele>
        <time>2017-09-24T09:42:07Z</time>
      </trkpt>
      <trkpt lat="49.01447" lon="1.35014">
        <ele>324</ele>
        <time>2017-09-24T09:42:12Z</time>
      </trkpt>
      <trkpt lat="49.01433" lon="1.35055">
        <ele>321</ele>
        <time>2017-09-24T09:42:17Z</time>
      </trkpt>
      <trkpt lat="49.01419" lon="1.35094">
        <ele>321</ele>
        <time>2017-09-24T09:42:22Z</time>
      </trkpt>
      <trkpt lat="49.01403" lon="1.35135">
        <ele>319</ele>
        <time>2017-09-24T09:42:27Z</time>
      </trkpt>
      <trkpt lat="49.01387" lon="1.35182">
        <ele>317</ele>
        <time>2017-09-24T09:42:32Z</time>
      </trkpt>
      <trkpt lat="49.01371" lon="1.35235">
        <ele>315</ele>
        <time>2017-09-24T09:42:37Z</time>
      </trkpt>
      <trkpt lat="49.01355" lon="1.35288">
        <ele>313</ele>
        <time>2017-09-24T09:42:42Z</time>
      </trkpt>
      <trkpt lat="49.01339" lon="1.35341">
        <ele>311</ele>
        <time>2017-09-24T09:42:47Z</time>
      </trkpt>
      <trkpt lat="49.01324" lon="1.35398">
        <ele>309</ele>
        <time>2017-09-24T09:42:52Z</time>
      </trkpt>
      <trkpt lat="49.01308" lon="1.35458">
        <ele>307</ele>
        <time>2017-09-24T09:42:57Z</time>
      </trkpt>
      <trkpt lat="49.01294" lon="1.35519">
        <ele>303</ele>
        <time>2017-09-24T09:43:02Z</time>
      </trkpt>
      <trkpt lat="49.01278" lon="1.35576">
        <ele>299</ele>
        <time>2017-09-24T09:43:07Z</time>
      </trkpt>
      <trkpt lat="49.01259" lon="1.35599">
        <ele>293</ele>
        <time>2017-09-24T09:43:12Z</time>
      </trkpt>
      <trkpt lat="49.01244" lon="1.35629">
        <ele>291</ele>
        <time>2017-09-24T09:43:17Z</time>
      </trkpt>
      <trkpt lat="49.01225" lon="1.3568">
        <ele>287</ele>
        <time>2017-09-24T09:43:22Z</time>
      </trkpt>
      <trkpt lat="49.01236" lon="1.35741">
        <ele>284</ele>
        <time>2017-09-24T09:43:27Z</time>
      </trkpt>
      <trkpt lat="49.01259" lon="1.35799">
        <ele>278</ele>
        <time>2017-09-24T09:43:32Z</time>
      </trkpt>
      <trkpt lat="49.0126" lon="1.35856">
        <ele>272</ele>
        <time>2017-09-24T09:43:37Z</time>
      </trkpt>
      <trkpt lat="49.01238" lon="1.35888">
        <ele>265</ele>
        <time>2017-09-24T09:43:42Z</time>
      </trkpt>
      <trkpt lat="49.0123" lon="1.35899">
        <ele>262</ele>
        <time>2017-09-24T09:43:47Z</time>
      </trkpt>
      <trkpt lat="49.01218" lon="1.35927">
        <ele>260</ele>
        <time>2017-09-24T09:43:52Z</time>
      </trkpt>
      <trkpt lat="49.0119" lon="1.35947">
        <ele>258</ele>
        <time>2017-09-24T09:43:57Z</time>
      </trkpt>
      <trkpt lat="49.01167" lon="1.35957">
        <ele>258</ele>
        <time>2017-09-24T09:44:02Z</time>
      </trkpt>
      <trkpt lat="49.01155" lon="1.35965">
        <ele>257</ele>
        <time>2017-09-24T09:44:07Z</time>
      </trkpt>
      <trkpt lat="49.01132" lon="1.35975">
        <ele>257</ele>
        <time>2017-09-24T09:44:12Z</time>
      </trkpt>
      <trkpt lat="49.01108" lon="1.3599">
        <ele>257</ele>
        <time>2017-09-24T09:44:17Z</time>
      </trkpt>
      <trkpt lat="49.01081" lon="1.36006">
        <ele>257</ele>
        <time>2017-09-24T09:44:22Z</time>
      </trkpt>
      <trkpt lat="49.01054" lon="1.36022">
        <ele>257</ele>
        <time>2017-09-24T09:44:27Z</time>
      </trkpt>
      <trkpt lat="49.01027" lon="1.36038">
        <ele>257</ele>
        <time>2017-09-24T09:44:32Z</time>
      </trkpt>
      <trkpt lat="49.01" lon="1.36055">
        <ele>256</ele>
        <time>2017-09-24T09:44:37Z</time>
      </trkpt>
      <trkpt lat="49.00971" lon="1.36072">
        <ele>256</ele>
        <time>2017-09-24T09:44:42Z</time>
      </trkpt>
      <trkpt lat="49.00944" lon="1.36089">
        <ele>256</ele>
        <time>2017-09-24T09:44:47Z</time>
      </trkpt>
      <trkpt lat="49.00923" lon="1.36104">
        <ele>256</ele>
        <time>2017-09-24T09:44:52Z</time>
      </trkpt>
      <trkpt lat="49.00915" lon="1.36121">
        <ele>256</ele>
        <time>2017-09-24T09:44:57Z</time>
      </trkpt>
      <trkpt lat="49.00903" lon="1.36135">
        <ele>256</ele>
        <time>2017-09-24T09:45:02Z</time>
      </trkpt>
      <trkpt lat="49.00896" lon="1.3616">
        <ele>256</ele>
        <time>2017-09-24T09:45:07Z</time>
      </trkpt>
      <trkpt lat="49.00887" lon="1.36195">
        <ele>256</ele>
        <time>2017-09-24T09:45:12Z</time>
      </trkpt>
      <trkpt lat="49.00875" lon="1.36237">
        <ele>256</ele>
        <time>2017-09-24T09:45:17Z</time>
      </trkpt>
      <trkpt lat="49.00861" lon="1.3628">
        <ele>256</ele>
        <time>2017-09-24T09:45:22Z</time>
      </trkpt>
      <trkpt lat="49.0085" lon="1.36325">
        <ele>254</ele>
        <time>2017-09-24T09:45:27Z</time>
      </trkpt>
      <trkpt lat="49.00844" lon="1.3636">
        <ele>254</ele>
        <time>2017-09-24T09:45:32Z</time>
      </trkpt>
      <trkpt lat="49.00839" lon="1.36385">
        <ele>254</ele>
        <time>2017-09-24T09:45:37Z</time>
      </trkpt>
      <trkpt lat="49.00832" lon="1.36416">
        <ele>253</ele>
        <time>2017-09-24T09:45:42Z</time>
      </trkpt>
      <trkpt lat="49.00824" lon="1.36452">
        <ele>252</ele>
        <time>2017-09-24T09:45:47Z</time>
      </trkpt>
      <trkpt lat="49.00819" lon="1.36489">
        <ele>252</ele>
        <time>2017-09-24T09:45:52Z</time>
      </trkpt>
      <trkpt lat="49.00814" lon="1.36524">
        <ele>252</ele>
        <time>2017-09-24T09:45:57Z</time>
      </trkpt>
      <trkpt lat="49.00807" lon="1.36563">
        <ele>252</ele>
        <time>2017-09-24T09:46:02Z</time>
      </trkpt>
      <trkpt lat="49.008" lon="1.36603">
        <ele>252</ele>
        <time>2017-09-24T09:46:07Z</time>
      </trkpt>
      <trkpt lat="49.00796" lon="1.36643">
        <ele>252</ele>
        <time>2017-09-24T09:46:12Z</time>
      </trkpt>
      <trkpt lat="49.00794" lon="1.36687">
        <ele>252</ele>
        <time>2017-09-24T09:46:17Z</time>
      </trkpt>
      <trkpt lat="49.0079" lon="1.36735">
        <ele>252</ele>
        <time>2017-09-24T09:46:22Z</time>
      </trkpt>
      <trkpt lat="49.00784" lon="1.36782">
        <ele>252</ele>
        <time>2017-09-24T09:46:27Z</time>
      </trkpt>
      <trkpt lat="49.00779" lon="1.36828">
        <ele>252</ele>
        <time>2017-09-24T09:46:32Z</time>
      </trkpt>
      <trkpt lat="49.00773" lon="1.36871">
        <ele>252</ele>
        <time>2017-09-24T09:46:37Z</time>
      </trkpt>
      <trkpt lat="49.00769" lon="1.36906">
        <ele>251</ele>
        <time>2017-09-24T09:46:42Z</time>
      </trkpt>
      <trkpt lat="49.00766" lon="1.36938">
        <ele>251</ele>
        <time>2017-09-24T09:46:47Z</time>
      </trkpt>
      <trkpt lat="49.00765" lon="1.36969">
        <ele>251</ele>
        <time>2017-09-24T09:46:52Z</time>
      </trkpt>
      <trkpt lat="49.00763" lon="1.37005">
        <ele>251</ele>
        <time>2017-09-24T09:46:57Z</time>
      </trkpt>
      <trkpt lat="49.0076" lon="1.37034">
        <ele>251</ele>
        <time>2017-09-24T09:47:02Z</time>
      </trkpt>
      <trkpt lat="49.00759" lon="1.37063">
        <ele>251</ele>
        <time>2017-09-24T09:47:07Z</time>
      </trkpt>
      <trkpt lat="49.00756" lon="1.37095">
        <ele>251</ele>
        <time>2017-09-24T09:47:12Z</time>
      </trkpt>
      <trkpt lat="49.00753" lon="1.37128">
        <ele>251</ele>
        <time>2017-09-24T09:47:17Z</time>
      </trkpt>
      <trkpt lat="49.00752" lon="1.37163">
        <ele>251</ele>
        <time>2017-09-24T09:47:22Z</time>
      </trkpt>
      <trkpt lat="49.00751" lon="1.37199">
        <ele>251</ele>
        <time>2017-09-24T09:47:27Z</time>
      </trkpt>
      <trkpt lat="49.0075" lon="1.37234">
        <ele>251</ele>
        <time>2017-09-24T09:47:32Z</time>
      </trkpt>
      <trkpt lat="49.00748" lon="1.3727">
        <ele>251</ele>
        <time>2017-09-24T09:47:37Z</time>
      </trkpt>
      <trkpt lat="49.00741" lon="1.37289">
        <ele>251</ele>
        <time>2017-09-24T09:47:42Z</time>
      </trkpt>
      <trkpt lat="49.00728" lon="1.37282">
        <ele>251</ele>
        <time>2017-09-24T09:47:47Z</time>
      </trkpt>
      <trkpt lat="49.0071" lon="1.37269">
        <ele>251</ele>
        <time>2017-09-24T09:47:52Z</time>
      </trkpt>
      <trkpt lat="49.00691" lon="1.37254">
        <ele>251</ele>
        <time>2017-09-24T09:47:57Z</time>
      </trkpt>
      <trkpt lat="49.00672" lon="1.37242">
        <ele>251</ele>
        <time>2017-09-24T09:48:02Z</time>
      </trkpt>
      <trkpt lat="49.00652" lon="1.37227">
        <ele>251</ele>
        <time>2017-09-24T09:48:07Z</time>
      </trkpt>
      <trkpt lat="49.00628" lon="1.37205">
        <ele>251</ele>
        <time>2017-09-24T09:48:12Z</time>
      </trkpt>
      <trkpt lat="49.00603" lon="1.37184">
        <ele>251</ele>
        <time>2017-09-24T09:48:17Z</time>
      </trkpt>
      <trkpt lat="49.00576" lon="1.37168">
        <ele>251</ele>
        <time>2017-09-24T09:48:22Z</time>
      </trkpt>
      <trkpt lat="49.0055" lon="1.37152">
        <ele>251</ele>
        <time>2017-09-24T09:48:27Z</time>
      </trkpt>
      <trkpt lat="49.00525" lon="1.3713">
        <ele>252</ele>
        <time>2017-09-24T09:48:32Z</time>
      </trkpt>
      <trkpt lat="49.00502" lon="1.37134">
        <ele>252</ele>
        <time>2017-09-24T09:48:37Z</time>
      </trkpt>
      <trkpt lat="49.00482" lon="1.37155">
        <ele>252</ele>
        <time>2017-09-24T09:48:42Z</time>
      </trkpt>
      <trkpt lat="49.00459" lon="1.37182">
        <ele>252</ele>
        <time>2017-09-24T09:48:47Z</time>
      </trkpt>
      <trkpt lat="49.00436" lon="1.37213">
        <ele>252</ele>
        <time>2017-09-24T09:48:52Z</time>
      </trkpt>
      <trkpt lat="49.00414" lon="1.37243">
        <ele>252</ele>
        <time>2017-09-24T09:48:57Z</time>
      </trkpt>
      <trkpt lat="49.00393" lon="1.37274">
        <ele>252</ele>
        <time>2017-09-24T09:49:02Z</time>
      </trkpt>
      <trkpt lat="49.00377" lon="1.37303">
        <ele>252</ele>
        <time>2017-09-24T09:49:07Z</time>
      </trkpt>
      <trkpt lat="49.00382" lon="1.37324">
        <ele>252</ele>
        <time>2017-09-24T09:49:12Z</time>
      </trkpt>
      <trkpt lat="49.0039" lon="1.37356">
        <ele>252</ele>
        <time>2017-09-24T09:49:17Z</time>
      </trkpt>
      <trkpt lat="49.00395" lon="1.37392">
        <ele>252</ele>
        <time>2017-09-24T09:49:22Z</time>
      </trkpt>
      <trkpt lat="49.00397" lon="1.3743">
        <ele>252</ele>
        <time>2017-09-24T09:49:27Z</time>
      </trkpt>
      <trkpt lat="49.00395" lon="1.37466">
        <ele>252</ele>
        <time>2017-09-24T09:49:32Z</time>
      </trkpt>
      <trkpt lat="49.00392" lon="1.37502">
        <ele>252</ele>
        <time>2017-09-24T09:49:37Z</time>
      </trkpt>
      <trkpt lat="49.00391" lon="1.37539">
        <ele>252</ele>
        <time>2017-09-24T09:49:42Z</time>
      </trkpt>
      <trkpt lat="49.00391" lon="1.37573">
        <ele>252</ele>
        <time>2017-09-24T09:49:47Z</time>
      </trkpt>
      <trkpt lat="49.00392" lon="1.37607">
        <ele>252</ele>
        <time>2017-09-24T09:49:52Z</time>
      </trkpt>
      <trkpt lat="49.00395" lon="1.37641">
        <ele>252</ele>
        <time>2017-09-24T09:49:57Z</time>
      </trkpt>
      <trkpt lat="49.00399" lon="1.37676">
        <ele>252</ele>
        <time>2017-09-24T09:50:02Z</time>
      </trkpt>
      <trkpt lat="49.00404" lon="1.3771">
        <ele>252</ele>
        <time>2017-09-24T09:50:07Z</time>
      </trkpt>
      <trkpt lat="49.00408" lon="1.37742">
        <ele>252</ele>
        <time>2017-09-24T09:50:12Z</time>
      </trkpt>
      <trkpt lat="49.00411" lon="1.37774">
        <ele>252</ele>
        <time>2017-09-24T09:50:17Z</time>
      </trkpt>
      <trkpt lat="49.00416" lon="1.37804">
        <ele>252</ele>
        <time>2017-09-24T09:50:22Z</time>
      </trkpt>
      <trkpt lat="49.0042" lon="1.37833">
        <ele>252</ele>
        <time>2017-09-24T09:50:27Z</time>
      </trkpt>
      <trkpt lat="49.00424" lon="1.37861">
        <ele>252</ele>
        <time>2017-09-24T09:50:32Z</time>
      </trkpt>
      <trkpt lat="49.00424" lon="1.37889">
        <ele>252</ele>
        <time>2017-09-24T09:50:37Z</time>
      </trkpt>
      <trkpt lat="49.00424" lon="1.37919">
        <ele>252</ele>
        <time>2017-09-24T09:50:42Z</time>
      </trkpt>
      <trkpt lat="49.00425" lon="1.37949">
        <ele>252</ele>
        <time>2017-09-24T09:50:47Z</time>
      </trkpt>
      <trkpt lat="49.00427" lon="1.37982">
        <ele>252</ele>
        <time>2017-09-24T09:50:52Z</time>
      </trkpt>
      <trkpt lat="49.0043" lon="1.38013">
        <ele>252</ele>
        <time>2017-09-24T09:50:57Z</time>
      </trkpt>
      <trkpt lat="49.00433" lon="1.38044">
        <ele>252</ele>
        <time>2017-09-24T09:51:02Z</time>
      </trkpt>
      <trkpt lat="49.00437" lon="1.38076">
        <ele>252</ele>
        <time>2017-09-24T09:51:07Z</time>
      </trkpt>
      <trkpt lat="49.0044" lon="1.38108">
        <ele>252</ele>
        <time>2017-09-24T09:51:12Z</time>
      </trkpt>
      <trkpt lat="49.00444" lon="1.38139">
        <ele>252</ele>
        <time>2017-09-24T09:51:17Z</time>
      </trkpt>
      <trkpt lat="49.00446" lon="1.38171">
        <ele>252</ele>
        <time>2017-09-24T09:51:22Z</time>
      </trkpt>
      <trkpt lat="49.0045" lon="1.38194">
        <ele>252</ele>
        <time>2017-09-24T09:51:27Z</time>
      </trkpt>
      <trkpt lat="49.00439" lon="1.38206">
        <ele>252</ele>
        <time>2017-09-24T09:51:32Z</time>
      </trkpt>
      <trkpt lat="49.00422" lon="1.382">
        <ele>252</ele>
        <time>2017-09-24T09:51:37Z</time>
      </trkpt>
      <trkpt lat="49.00401" lon="1.38192">
        <ele>252</ele>
        <time>2017-09-24T09:51:42Z</time>
      </trkpt>
      <trkpt lat="49.00378" lon="1.3818">
        <ele>252</ele>
        <time>2017-09-24T09:51:47Z</time>
      </trkpt>
      <trkpt lat="49.00355" lon="1.38165">
        <ele>252</ele>
        <time>2017-09-24T09:51:52Z</time>
      </trkpt>
      <trkpt lat="49.00334" lon="1.38151">
        <ele>252</ele>
        <time>2017-09-24T09:51:57Z</time>
      </trkpt>
      <trkpt lat="49.00313" lon="1.38137">
        <ele>252</ele>
        <time>2017-09-24T09:52:02Z</time>
      </trkpt>
      <trkpt lat="49.00292" lon="1.38123">
        <ele>252</ele>
        <time>2017-09-24T09:52:07Z</time>
      </trkpt>
      <trkpt lat="49.00272" lon="1.38107">
        <ele>252</ele>
        <time>2017-09-24T09:52:12Z</time>
      </trkpt>
      <trkpt lat="49.00254" lon="1.38122">
        <ele>253</ele>
        <time>2017-09-24T09:52:17Z</time>
      </trkpt>
      <trkpt lat="49.00234" lon="1.38145">
        <ele>253</ele>
        <time>2017-09-24T09:52:22Z</time>
      </trkpt>
      <trkpt lat="49.00214" lon="1.38168">
        <ele>253</ele>
        <time>2017-09-24T09:52:27Z</time>
      </trkpt>
      <trkpt lat="49.00193" lon="1.38193">
        <ele>253</ele>
        <time>2017-09-24T09:52:32Z</time>
      </trkpt>
      <trkpt lat="49.00171" lon="1.38219">
        <ele>253</ele>
        <time>2017-09-24T09:52:37Z</time>
      </trkpt>
      <trkpt lat="49.00149" lon="1.38245">
        <ele>253</ele>
        <time>2017-09-24T09:52:42Z</time>
      </trkpt>
      <trkpt lat="49.00128" lon="1.38271">
        <ele>253</ele>
        <time>2017-09-24T09:52:47Z</time>
      </trkpt>
      <trkpt lat="49.00107" lon="1.38296">
        <ele>253</ele>
        <time>2017-09-24T09:52:52Z</time>
      </trkpt>
      <trkpt lat="49.00086" lon="1.38321">
        <ele>253</ele>
        <time>2017-09-24T09:52:57Z</time>
      </trkpt>
      <trkpt lat="49.00064" lon="1.38346">
        <ele>253</ele>
        <time>2017-09-24T09:53:02Z</time>
      </trkpt>
      <trkpt lat="49.00043" lon="1.38371">
        <ele>253</ele>
        <time>2017-09-24T09:53:07Z</time>
      </trkpt>
      <trkpt lat="49.00022" lon="1.38395">
        <ele>253</ele>
        <time>2017-09-24T09:53:12Z</time>
      </trkpt>
      <trkpt lat="49" lon="1.3842">
        <ele>253</ele>
        <time>2017-09-24T09:53:17Z</time>
      </trkpt>
      <trkpt lat="48.99979" lon="1.38445">
        <ele>253</ele>
        <time>2017-09-24T09:53:22Z</time>
      </trkpt>
      <trkpt lat="48.99954" lon="1.38458">
        <ele>253</ele>
        <time>2017-09-24T09:53:27Z</time>
      </trkpt>
      <trkpt lat="48.99931" lon="1.38465">
        <ele>253</ele>
        <time>2017-09-24T09:53:32Z</time>
      </trkpt>
      <trkpt lat="48.99914" lon="1.38494">
        <ele>253</ele>
        <time>2017-09-24T09:53:37Z</time>
      </trkpt>
      <trkpt lat="48.99895" lon="1.38524">
        <ele>253</ele>
        <time>2017-09-24T09:53:42Z</time>
      </trkpt>
      <trkpt lat="48.99876" lon="1.38554">
        <ele>253</ele>
        <time>2017-09-24T09:53:47Z</time>
      </trkpt>
      <trkpt lat="48.99857" lon="1.38586">
        <ele>253</ele>
        <time>2017-09-24T09:53:52Z</time>
      </trkpt>
      <trkpt lat="48.99836" lon="1.38622">
        <ele>253</ele>
        <time>2017-09-24T09:53:58Z</time>
      </trkpt>
      <trkpt lat="48.99819" lon="1.38651">
        <ele>253</ele>
        <time>2017-09-24T09:54:03Z</time>
      </trkpt>
      <trkpt lat="48.99812" lon="1.38685">
        <ele>253</ele>
        <time>2017-09-24T09:54:08Z</time>
      </trkpt>
      <trkpt lat="48.99801" lon="1.38716">
        <ele>253</ele>
        <time>2017-09-24T09:54:13Z</time>
      </trkpt>
      <trkpt lat="48.99786" lon="1.38744">
        <ele>253</ele>
        <time>2017-09-24T09:54:18Z</time>
      </trkpt>
      <trkpt lat="48.9977" lon="1.38772">
        <ele>253</ele>
        <time>2017-09-24T09:54:23Z</time>
      </trkpt>
      <trkpt lat="48.9976" lon="1.38806">
        <ele>253</ele>
        <time>2017-09-24T09:54:28Z</time>
      </trkpt>
      <trkpt lat="48.9975" lon="1.38828">
        <ele>253</ele>
        <time>2017-09-24T09:54:33Z</time>
      </trkpt>
      <trkpt lat="48.9973" lon="1.38819">
        <ele>253</ele>
        <time>2017-09-24T09:54:38Z</time>
      </trkpt>
      <trkpt lat="48.99709" lon="1.388">
        <ele>253</ele>
        <time>2017-09-24T09:54:43Z</time>
      </trkpt>
      <trkpt lat="48.99691" lon="1.38773">
        <ele>253</ele>
        <time>2017-09-24T09:54:48Z</time>
      </trkpt>
      <trkpt lat="48.99672" lon="1.38748">
        <ele>253</ele>
        <time>2017-09-24T09:54:53Z</time>
      </trkpt>
      <trkpt lat="48.99652" lon="1.38724">
        <ele>253</ele>
        <time>2017-09-24T09:54:58Z</time>
      </trkpt>
      <trkpt lat="48.99633" lon="1.38703">
        <ele>253</ele>
        <time>2017-09-24T09:55:03Z</time>
      </trkpt>
      <trkpt lat="48.99617" lon="1.38672">
        <ele>254</ele>
        <time>2017-09-24T09:55:08Z</time>
      </trkpt>
      <trkpt lat="48.99598" lon="1.38639">
        <ele>254</ele>
        <time>2017-09-24T09:55:13Z</time>
      </trkpt>
      <trkpt lat="48.9958" lon="1.38605">
        <ele>254</ele>
        <time>2017-09-24T09:55:18Z</time>
      </trkpt>
      <trkpt lat="48.99561" lon="1.38571">
        <ele>254</ele>
        <time>2017-09-24T09:55:23Z</time>
      </trkpt>
      <trkpt lat="48.99544" lon="1.38535">
        <ele>254</ele>
        <time>2017-09-24T09:55:28Z</time>
      </trkpt>
      <trkpt lat="48.99527" lon="1.385">
        <ele>254</ele>
        <time>2017-09-24T09:55:33Z</time>
      </trkpt>
      <trkpt lat="48.99512" lon="1.38468">
        <ele>254</ele>
        <time>2017-09-24T09:55:38Z</time>
      </trkpt>
      <trkpt lat="48.995" lon="1.38444">
        <ele>254</ele>
        <time>2017-09-24T09:55:43Z</time>
      </trkpt>
      <trkpt lat="48.995" lon="1.38432">
        <ele>254</ele>
        <time>2017-09-24T09:55:48Z</time>
      </trkpt>
      <trkpt lat="48.99505" lon="1.38426">
        <ele>254</ele>
        <time>2017-09-24T09:55:53Z</time>
      </trkpt>
      <trkpt lat="48.99506" lon="1.38424">
        <ele>254</ele>
        <time>2017-09-24T09:55:58Z</time>
      </trkpt>
      <trkpt lat="48.99507" lon="1.38424">
        <ele>254</ele>
        <time>2017-09-24T09:55:59Z</time>
      </trkpt>
      <trkpt lat="48.99509" lon="1.38423">
        <ele>254</ele>
        <time>2017-09-24T09:56:04Z</time>
      </trkpt>
    </trkseg>
  </trk>
</gpx>